Date StartTime U_cm/s V_cm/s W_cm/s Ustd_cm/s Vstd_cm/s Wstd_cm/s Uvar_(cm/s)^2 Vvar_(cm/s)^2 Wvar_(cm/s)^2 KE_(m/s)^2 TurbulentKE_(m/s)^2 HorizWindSpeed_cm/s FrictionSpeec_cm/s DragCoef SpeedOfSound_m/s SonicTemperature_C Pressure_mb 
07/21/2013  00:00:00     -161.567       95.475      -23.985       44.768       47.348       25.168     2004.208     2241.860      633.425        2.034        0.244      187.668       24.094        0.016      348.881       28.900      858.878
07/21/2013  00:01:00     -172.766       93.713      -28.660       39.224       35.280       24.402     1538.492     1244.657      595.435        2.141        0.169      196.545       21.379        0.012      348.929       28.981      858.865
07/21/2013  00:02:00     -163.083       72.657      -18.509       27.351       31.825       21.995      748.099     1012.831      483.780        1.723        0.112      178.536       16.491        0.009      348.973       29.060      858.848
07/21/2013  00:03:00     -128.344       26.997      -17.602       23.253       29.794       15.575      540.702      887.660      242.593        0.959        0.084      131.153       13.290        0.010      348.699       28.584      858.848
07/21/2013  00:04:00     -130.230       -0.268      -21.354       37.575       30.750       21.154     1411.891      945.582      447.477        1.011        0.140      130.230       18.026        0.019      348.680       28.554      858.830
07/21/2013  00:05:00     -136.271        4.749      -14.582       33.421       43.009       22.640     1116.984     1849.791      512.556        1.114        0.174      136.354       17.016        0.016      348.648       28.497      858.819
07/21/2013  00:06:00     -103.055        9.635      -11.136       41.222       40.913       20.165     1699.267     1673.843      406.623        0.731        0.189      103.505       20.475        0.039      348.623       28.454      858.809
07/21/2013  00:07:00     -126.583       35.231      -15.921       30.964       39.849       26.735      958.749     1587.910      714.748        1.039        0.163      131.394       17.294        0.017      348.646       28.494      858.797
07/21/2013  00:08:00     -122.445       53.597      -18.756       38.321       35.452       22.408     1468.471     1256.869      502.137        1.072        0.161      133.661       17.297        0.017      348.537       28.305      858.795
07/21/2013  00:09:00     -119.973       12.147      -14.521       25.418       37.400       23.298      646.066     1398.735      542.781        0.867        0.129      120.587       14.462        0.014      348.442       28.143      858.791
07/21/2013  00:10:00     -124.298       -8.233      -21.435       36.323       49.725       30.568     1319.396     2472.582      934.408        1.035        0.236      124.570       18.767        0.023      348.284       27.867      858.806
07/21/2013  00:11:00     -142.847      -60.049       -8.057       63.827       66.715       31.598     4073.841     4450.890      998.433        1.680        0.476      154.955       25.254        0.027      348.184       27.693      858.801
07/21/2013  00:12:00     -243.756      -33.360      -22.550       82.309       52.946       36.115     6774.792     2803.319     1304.316        3.596        0.544      246.028       34.854        0.020      348.118       27.578      858.799
07/21/2013  00:13:00     -223.430       13.048      -20.559       77.550       67.837       37.993     6014.007     4601.855     1443.442        3.128        0.603      223.811       35.922        0.026      348.132       27.601      858.801
07/21/2013  00:14:00     -203.058      -27.052       -7.652       82.308       69.640       37.909     6774.685     4849.794     1437.121        2.754        0.653      204.852       37.508        0.034      348.245       27.798      858.789
07/21/2013  00:15:00     -232.935      -78.228      -11.186       67.083       48.671       36.414     4500.090     2368.840     1325.956        3.435        0.410      245.720       27.174        0.012      348.376       28.020      858.778
07/21/2013  00:16:00     -222.452      -64.350       -6.274       63.551       58.803       29.228     4038.789     3457.837      854.273        3.101        0.418      231.573       27.095        0.014      348.408       28.077      858.783
07/21/2013  00:17:00     -207.837      -48.594        6.726      109.554       66.132       47.760    12002.049     4373.500     2281.028        3.213        0.933      213.442       52.226        0.060      348.595       28.404      858.768
07/21/2013  00:18:00     -301.087      -51.726      -11.287       96.871       83.754       40.310     9384.000     7014.657     1624.889        5.574        0.901      305.498       45.213        0.022      348.726       28.630      858.763
07/21/2013  00:19:00     -285.924      -79.000       -9.894       90.191       68.258       42.422     8134.382     4659.209     1799.610        5.134        0.730      296.637       40.706        0.019      348.649       28.496      858.764
07/21/2013  00:20:00     -277.089      -77.072      -16.838       95.320       82.994       48.080     9085.875     6888.004     2311.665        5.064        0.914      287.608       46.762        0.026      348.691       28.569      858.757
07/21/2013  00:21:00     -239.081      -53.347       -4.084       96.167       75.800       52.995     9248.037     5745.622     2808.455        3.891        0.890      244.960       49.910        0.042      348.756       28.681      858.763
07/21/2013  00:22:00     -218.789      -52.758       -5.067       71.016       71.084       36.378     5043.207     5052.978     1323.347        3.105        0.571      225.060       36.614        0.026      348.782       28.726      858.763
07/21/2013  00:23:00     -142.875      -37.344        1.778       75.507       66.406       35.486     5701.304     4409.802     1259.236        1.659        0.569      147.675       37.833        0.066      348.656       28.509      858.748
07/21/2013  00:24:00     -232.379      -34.242      -15.065       77.118       51.058       35.379     5947.210     2606.877     1251.665        3.260        0.490      234.888       37.982        0.026      348.346       27.972      858.761
07/21/2013  00:25:00     -288.016      -65.134      -20.720       84.286       73.729       45.982     7104.188     5435.945     2114.365        5.114        0.733      295.289       42.776        0.021      348.458       28.164      858.767
07/21/2013  00:26:00     -239.028      -86.937       -0.858       95.999       92.655       44.555     9215.758     8584.922     1985.180        4.224        0.989      254.347       48.267        0.036      348.566       28.353      858.759
07/21/2013  00:27:00     -198.954      -48.402        3.496       93.985       65.850       43.586     8833.247     4336.244     1899.757        2.850        0.753      204.757       54.551        0.071      348.703       28.588      858.751
07/21/2013  00:28:00     -200.699       -8.698       -8.533       83.252       76.008       39.140     6930.901     5777.156     1531.909        2.733        0.712      200.887       36.867        0.034      348.729       28.635      858.749
07/21/2013  00:29:00     -199.644       82.727      -26.468       57.110       47.462       28.530     3261.504     2252.654      813.939        2.686        0.316      216.105       19.844        0.008      348.377       28.027      858.783
07/21/2013  00:30:00     -170.138       -0.213      -20.746       84.276       78.101       39.650     7102.450     6099.701     1572.124        2.207        0.739      170.139       44.997        0.070      348.299       27.891      858.786
07/21/2013  00:31:00     -159.790      -64.420       -4.008       69.661       60.864       37.261     4852.654     3704.444     1388.416        1.982        0.497      172.287       34.354        0.040      348.306       27.903      858.780
07/21/2013  00:32:00     -200.872      -57.041       -5.708       43.042       51.788       33.472     1852.625     2682.041     1120.367        2.464        0.283      208.813       26.485        0.016      348.304       27.900      858.782
07/21/2013  00:33:00     -124.515      -17.709        6.258       58.192       71.170       33.003     3386.324     5065.101     1089.195        1.270        0.477      125.768       35.691        0.081      348.238       27.787      858.796
07/21/2013  00:34:00     -113.158        9.033      -10.691       40.842       45.623       24.073     1668.059     2081.418      579.531        0.866        0.216      113.518       22.074        0.038      348.295       27.887      858.818
07/21/2013  00:35:00     -125.067      -15.200       -9.507       34.550       63.535       27.894     1193.671     4036.680      778.099        1.098        0.300      125.987       20.911        0.028      348.253       27.815      858.815
07/21/2013  00:36:00     -120.837       -1.179      -25.970       33.747       78.972       23.765     1138.848     6236.602      564.773        1.161        0.397      120.842       17.592        0.021      348.301       27.896      858.816
07/21/2013  00:37:00      -63.415      -19.520       -5.548       47.439       37.130       29.330     2250.455     1378.634      860.249        0.446        0.224       66.351       27.475        0.171      348.277       27.855      858.827
07/21/2013  00:38:00     -105.212      -47.161      -11.577       52.095       36.117       21.370     2713.939     1304.417      456.663        0.895        0.224      115.298       23.019        0.040      348.307       27.908      858.813
07/21/2013  00:39:00     -158.594      -53.076      -10.228       53.119       35.597       26.258     2821.623     1267.178      689.468        1.643        0.239      167.240       23.445        0.020      348.221       27.757      858.819
07/21/2013  00:40:00     -184.982      -67.402      -20.871       54.771       51.383       30.068     2999.885     2640.186      904.091        2.287        0.327      196.879       20.422        0.011      348.291       27.878      858.808
07/21/2013  00:41:00     -116.368      -31.835        5.261       71.928       47.668       27.897     5173.677     2272.272      778.247        1.140        0.411      120.644       35.396        0.086      348.483       28.211      858.793
07/21/2013  00:42:00     -156.530       38.148      -15.659       47.376       37.296       19.557     2244.467     1391.016      382.477        1.511        0.201      161.111       12.719        0.006      348.185       27.697      858.810
07/21/2013  00:43:00     -159.154       34.119      -21.660       57.141       64.326       31.062     3265.069     4137.835      964.827        1.766        0.418      162.770       33.143        0.041      348.555       28.336      858.806
07/21/2013  00:44:00     -155.404        3.033      -18.832       38.278       44.521       27.754     1465.204     1982.110      770.263        1.437        0.211      155.434       17.300        0.012      348.463       28.179      858.806
07/21/2013  00:45:00     -108.262      -12.991      -13.553       31.682       31.749       26.256     1003.719     1007.994      689.400        0.739        0.135      109.039       18.795        0.030      348.346       27.975      858.818
07/21/2013  00:46:00     -111.115       32.506      -13.893       50.397       41.094       26.023     2539.880     1688.679      677.177        0.925        0.245      115.772       30.595        0.070      348.414       28.093      858.809
07/21/2013  00:47:00      -60.720       57.049       -5.385       26.015       33.924       21.089      676.781     1150.861      444.748        0.462        0.114       83.316       17.665        0.045      348.442       28.140      858.812
07/21/2013  00:48:00      -80.865      119.166      -14.006       44.432       45.515       27.049     1974.214     2071.653      731.636        1.286        0.239      144.012       27.733        0.037      348.658       28.514      858.808
07/21/2013  00:49:00      -69.244       68.588      -10.422       22.621       63.696       17.670      511.713     4057.215      312.228        0.724        0.244       97.463       19.788        0.041      348.436       28.131      858.816
07/21/2013  00:50:00      -54.670       -5.077      -11.419       22.659       19.049       14.387      513.451      362.860      206.999        0.211        0.054       54.905        8.593        0.024      348.309       27.910      858.824
07/21/2013  00:51:00      -54.743       40.757       -3.324       27.131       29.445       20.742      736.070      866.987      430.219        0.335        0.102       68.249       10.440        0.023      348.564       28.353      858.812
07/21/2013  00:52:00      -41.563       51.754       -7.671       28.304       18.789       10.379      801.104      353.010      107.715        0.286        0.063       66.378       11.219        0.029      348.588       28.393      858.802
07/21/2013  00:53:00      -68.216       89.563      -16.871       29.256       39.887       20.244      855.938     1590.993      409.813        0.791        0.143      112.583       18.795        0.028      348.644       28.491      858.822
07/21/2013  00:54:00      -93.144      132.578      -17.879       56.042       34.187       30.025     3140.655     1168.724      901.484        1.589        0.261      162.027       29.807        0.034      348.819       28.793      858.827
07/21/2013  00:55:00      -51.128       46.950      -12.121       30.516       47.639       19.734      931.215     2269.463      389.425        0.428        0.180       69.414       17.968        0.067      348.912       28.954      858.804
07/21/2013  00:56:00       -7.080        8.744        7.416       10.843       15.994        9.378      117.578      255.793       87.938        0.032        0.023       11.251        3.905        0.120      348.701       28.588      858.803
07/21/2013  00:57:00      -32.697       17.614        3.800       37.064       27.496       13.713     1373.766      756.051      188.037        0.186        0.116       37.140       14.926        0.162      348.712       28.608      858.816
07/21/2013  00:58:00       31.403      -26.257        2.315       24.147       27.992        9.310      583.084      783.562       86.680        0.157        0.073       40.934       13.548        0.110      348.455       28.165      858.820
07/21/2013  00:59:00       38.258      -80.606       -3.933       19.332       17.981       13.353      373.724      323.324      178.316        0.443        0.044       89.225        9.943        0.012      348.415       28.095      858.816
07/21/2013  01:00:00       42.390      -91.777       -8.746       33.128       52.071       34.903     1097.467     2711.397     1218.224        0.766        0.251      101.094       40.214        0.158      348.443       28.142      858.787
07/21/2013  01:01:00       37.355     -102.157      -11.407       35.023       39.857       31.169     1226.604     1588.554      971.525        0.787        0.189      108.772       24.351        0.050      348.547       28.322      858.791
07/21/2013  01:02:00       43.383      -76.753       18.514       47.131       48.954       36.501     2221.324     2396.539     1332.298        0.703        0.298       88.165       28.731        0.106      348.558       28.342      858.802
07/21/2013  01:03:00       18.126       36.757       72.009       30.455       37.732       20.983      927.522     1423.669      440.284        0.483        0.140       40.983       23.007        0.315      348.426       28.113      858.795
07/21/2013  01:04:00       45.044       64.127       67.282       63.402       38.448       39.110     4019.845     1478.253     1529.564        0.885        0.351       78.365       40.168        0.263      348.344       27.972      858.814
07/21/2013  01:05:00       56.842       38.009       52.464       38.878       34.904       24.306     1511.520     1218.277      590.778        0.537        0.166       68.379       13.495        0.039      348.282       27.864      858.835
07/21/2013  01:06:00       57.806       21.474       42.618       42.146       28.960       23.307     1776.300      838.686      543.210        0.439        0.158       61.666       25.025        0.165      348.270       27.843      858.836
07/21/2013  01:07:00       53.865      -46.364       -9.429       27.892       34.132       27.931      777.976     1164.987      780.146        0.393        0.136       71.070       20.217        0.081      348.296       27.888      858.833
07/21/2013  01:08:00       30.845       -7.566       18.492       23.348       22.471       15.990      545.113      504.963      255.669        0.133        0.065       31.760       12.824        0.163      348.173       27.676      858.833
07/21/2013  01:09:00       15.572      -60.027       -6.216       30.273       15.089       12.644      916.433      227.665      159.882        0.259        0.065       62.014       12.429        0.040      348.270       27.845      858.822
07/21/2013  01:10:00      -59.954       -9.259      -13.774        9.418       16.135        7.952       88.695      260.345       63.237        0.214        0.021       60.664        6.072        0.010      348.081       27.518      858.837
07/21/2013  01:11:00      -46.211      -16.369       -9.210       12.704       17.504        8.137      161.384      306.392       66.207        0.151        0.027       49.025        5.952        0.015      348.032       27.430      858.825
07/21/2013  01:12:00      -58.783      -49.323      -11.633       29.614       15.207       11.282      877.005      231.265      127.286        0.363        0.062       76.735        8.289        0.012      348.246       27.802      858.809
07/21/2013  01:13:00      -35.176      -32.039       -5.038       24.262        9.197        8.546      588.643       84.587       73.028        0.152        0.037       47.579        8.591        0.033      348.402       28.071      858.790
07/21/2013  01:14:00      -57.511      -22.272       -8.981       11.627       12.036        5.535      135.182      144.870       30.632        0.210        0.016       61.673        3.077        0.002      348.336       27.957      858.779
07/21/2013  01:15:00      -59.804      -30.211       -8.222       11.953        8.384        5.934      142.870       70.298       35.211        0.240        0.012       67.002        4.852        0.005      348.081       27.517      858.744
07/21/2013  01:16:00      -86.627      -13.843       -5.969       31.556       17.323       16.417      995.777      300.086      269.504        0.465        0.078       87.726       18.102        0.043      347.911       27.224      858.719
07/21/2013  01:17:00      -97.705      -45.796        0.101       15.595       15.304       10.918      243.219      234.227      119.201        0.612        0.030      107.905        8.237        0.006      347.982       27.347      858.704
07/21/2013  01:18:00      -95.810      -32.784        1.048       40.837       23.846       16.468     1667.683      568.649      271.192        0.638        0.125      101.263       17.934        0.031      347.800       27.031      858.705
07/21/2013  01:19:00      -72.585      -51.164        2.232       36.815       26.976       20.478     1355.344      727.726      419.343        0.520        0.125       88.805       21.765        0.060      347.852       27.122      858.699
07/21/2013  01:20:00      -91.104      -90.442        8.920       79.783       54.029       39.977     6365.379     2919.090     1598.150        1.372        0.544      128.373       43.287        0.114      348.118       27.580      858.659
07/21/2013  01:21:00     -173.889     -110.661        0.294       68.938       54.788       34.321     4752.438     3001.744     1177.918        2.571        0.447      206.114       33.112        0.026      348.612       28.432      858.643
07/21/2013  01:22:00     -154.910      -47.326        4.884       56.585       47.134       25.632     3201.810     2221.656      656.977        1.617        0.304      161.978       26.225        0.026      348.385       28.043      858.644
07/21/2013  01:23:00     -159.436      -62.059        2.306       52.809       51.499       24.619     2788.809     2652.134      606.081        1.766        0.302      171.088       23.306        0.019      348.397       28.063      858.649
07/21/2013  01:24:00     -171.177      -97.295       -3.703       49.019       50.123       26.987     2402.838     2512.290      728.296        2.221        0.282      196.896       25.095        0.016      348.468       28.183      858.642
07/21/2013  01:25:00     -160.729      -70.608        5.706       85.837       56.862       31.660     7367.965     3233.309     1002.345        2.123        0.580      175.554       37.362        0.045      348.402       28.068      858.638
07/21/2013  01:26:00     -167.734     -107.491       -0.184       91.351       62.057       36.025     8344.937     3851.081     1297.804        2.659        0.675      199.221       36.090        0.033      348.431       28.119      858.613
07/21/2013  01:27:00     -114.202      -45.408        3.878       75.803       70.473       31.645     5746.129     4966.514     1001.397        1.341        0.586      122.899       33.668        0.075      348.381       28.036      858.624
07/21/2013  01:28:00      -78.388       44.817        1.612       50.008       29.548       22.733     2500.843      873.106      516.805        0.602        0.195       90.295       23.656        0.069      347.866       27.145      858.629
07/21/2013  01:29:00     -139.361       36.386      -10.308       57.773       35.613       24.840     3337.707     1268.270      617.045        1.304        0.261      144.033       23.187        0.026      348.074       27.503      858.628
07/21/2013  01:30:00     -113.419        4.663       -8.643       32.434       28.448       18.160     1051.985      809.279      329.772        0.758        0.110      113.515       14.581        0.016      347.870       27.152      858.623
07/21/2013  01:31:00      -91.158      -14.234      -10.981       18.056       24.327       14.493      326.036      591.787      210.053        0.488        0.056       92.262        9.586        0.011      347.748       26.943      858.599
07/21/2013  01:32:00     -142.862       30.881       -5.865       43.820       33.391       21.478     1920.208     1114.948      461.303        1.245        0.175      146.161        7.183        0.002      348.218       27.753      858.584
07/21/2013  01:33:00     -119.197      -40.203       -3.826       40.708       46.293       24.002     1657.135     2143.034      576.097        1.011        0.219      125.795       19.410        0.024      348.078       27.512      858.576
07/21/2013  01:34:00     -110.591      -26.477       -4.489       30.598       26.280       16.474      936.250      690.653      271.395        0.742        0.095      113.716       17.779        0.024      348.022       27.414      858.591
07/21/2013  01:35:00     -107.484       43.254      -10.794       42.910       32.298       20.698     1841.298     1043.175      428.408        0.843        0.166      115.860       17.386        0.023      347.883       27.175      858.602
07/21/2013  01:36:00     -133.801      -69.576       -4.570       49.608       37.114       25.687     2460.997     1377.471      659.824        1.363        0.225      150.810       19.604        0.017      348.090       27.530      858.591
07/21/2013  01:37:00     -131.866      -79.540        3.882       50.145       43.189       26.817     2514.511     1865.303      719.158        1.441        0.255      153.998       25.915        0.028      348.317       27.924      858.589
07/21/2013  01:38:00     -110.596      -68.391       -2.800       71.998       61.978       37.844     5183.680     3841.311     1432.199        1.368        0.523      130.034       36.386        0.078      348.569       28.361      858.600
07/21/2013  01:39:00      -81.865      -79.850        3.659       95.018       64.633       36.336     9028.444     4177.361     1320.270        1.381        0.726      114.358       41.053        0.129      348.507       28.253      858.618
07/21/2013  01:40:00     -135.428      -52.977       -4.370       78.187       68.610       27.525     6113.136     4707.273      757.644        1.637        0.579      145.421       26.919        0.034      348.548       28.323      858.634
07/21/2013  01:41:00      -65.416      -17.793       -2.539       35.382       27.151       19.916     1251.883      737.180      396.637        0.349        0.119       67.792       17.770        0.069      348.402       28.071      858.643
07/21/2013  01:42:00       19.909       26.322       14.633       16.275       17.657       12.119      264.870      311.763      146.860        0.101        0.036       33.003       11.608        0.124      348.003       27.383      858.646
07/21/2013  01:43:00       28.049       75.333      -14.914       30.091       26.821       22.812      905.478      719.355      520.401        0.441        0.107       80.385       11.888        0.022      347.698       26.853      858.653
07/21/2013  01:44:00       52.424       38.157        3.920       28.949       20.425       17.275      838.036      417.180      298.424        0.289        0.078       64.840       15.812        0.059      347.433       26.399      858.659
07/21/2013  01:45:00        6.023       -9.559        7.121       17.660       11.578       11.597      311.893      134.043      134.492        0.038        0.029       11.298        5.786        0.262      347.607       26.700      858.677
07/21/2013  01:46:00       19.095      -30.623        9.144       37.030       31.113       16.365     1371.207      968.017      267.828        0.200        0.130       36.088       18.554        0.264      347.983       27.348      858.675
07/21/2013  01:47:00     -108.033      -31.141       -1.707       44.801       35.126       25.417     2007.092     1233.856      646.023        0.826        0.194      112.431       17.525        0.024      348.503       28.247      858.657
07/21/2013  01:48:00      -96.654        6.089       -5.781       45.866       33.125       19.911     2103.719     1097.243      396.449        0.650        0.180       96.845       23.462        0.059      348.409       28.084      858.663
07/21/2013  01:49:00      -51.743       26.374        0.878       36.854       18.949        9.867     1358.226      359.062       97.351        0.259        0.091       58.077        8.722        0.023      348.456       28.165      858.681
07/21/2013  01:50:00        4.149      -10.110        6.761       13.228       12.155        7.823      174.969      147.742       61.201        0.027        0.019       10.928        6.976        0.407      348.069       27.495      858.676
07/21/2013  01:51:00       -4.652       -5.231        6.712       31.862       12.704       10.603     1015.170      161.381      112.427        0.069        0.064        7.000       11.730        2.808      348.094       27.540      858.694
07/21/2013  01:52:00       43.483      -41.978       -9.698       16.439       27.223       13.558      270.235      741.093      183.823        0.247        0.060       60.439       16.762        0.077      347.703       26.865      858.699
07/21/2013  01:53:00       79.114      -64.777       -8.674       17.977       18.412        9.532      323.165      338.990       90.861        0.564        0.038      102.250        5.321        0.003      347.759       26.961      858.694
07/21/2013  01:54:00       41.853      -70.763      -11.496       38.037       23.324       12.370     1446.806      544.031      153.008        0.452        0.107       82.213        6.882        0.007      347.929       27.253      858.715
07/21/2013  01:55:00      -11.092       -6.682        2.207       12.049       16.513       11.042      145.181      272.676      121.920        0.036        0.027       12.949        5.042        0.152      347.906       27.215      858.730
07/21/2013  01:56:00       -7.756      -30.183        7.948       17.027       20.212       13.676      289.916      408.513      187.041        0.096        0.044       31.163       12.085        0.150      347.960       27.308      858.732
07/21/2013  01:57:00       -1.935      -45.417       -2.457        7.502       11.733       11.719       56.283      137.663      137.336        0.120        0.017       45.459        5.753        0.016      347.940       27.273      858.729
07/21/2013  01:58:00       -9.562      -80.587        1.376       17.479       17.197       19.295      305.515      295.746      372.295        0.378        0.049       81.153        8.360        0.011      348.375       28.024      858.746
07/21/2013  01:59:00       24.645      -73.967        1.645       34.445       35.351       15.947     1186.434     1249.717      254.311        0.439        0.135       77.964       16.842        0.047      348.335       27.955      858.754
07/21/2013  02:00:00       26.523       13.223       12.545       13.112       11.282        9.547      171.932      127.289       91.147        0.071        0.020       29.636        5.169        0.030      347.567       26.629      858.765
07/21/2013  02:01:00       97.502       54.530        8.085       25.151       23.792       14.453      632.592      566.059      208.889        0.698        0.070      111.715       15.581        0.019      347.204       26.004      858.756
07/21/2013  02:02:00       42.766       25.953       27.507       39.433       25.445       22.303     1554.949      647.438      497.417        0.298        0.135       50.025       18.281        0.134      347.035       25.713      858.764
07/21/2013  02:03:00       93.371       56.621       -2.073       23.541       22.115       18.514      554.161      489.083      342.756        0.666        0.069      109.197       11.421        0.011      346.865       25.418      858.776
07/21/2013  02:04:00       66.142       40.789        7.688       31.373       28.974       20.264      984.271      839.482      410.624        0.417        0.112       77.708       13.014        0.028      347.005       25.661      858.779
07/21/2013  02:05:00       98.581       61.934       19.845       19.516       14.206       17.122      380.872      201.807      293.166        0.741        0.044      116.422       13.401        0.013      347.343       26.243      858.786
07/21/2013  02:06:00       40.891       33.937       26.921       39.836       22.908       21.485     1586.871      524.782      461.622        0.306        0.129       53.139       15.279        0.083      347.104       25.832      858.766
07/21/2013  02:07:00      -20.469       61.162       -6.065       35.195       51.582       22.674     1238.694     2660.753      514.123        0.430        0.221       64.497       30.141        0.218      346.881       25.449      858.758
07/21/2013  02:08:00       11.394      128.351       -9.587       64.389       30.564       20.973     4146.004      934.136      439.853        1.111        0.276      128.856       20.712        0.026      347.481       26.481      858.757
07/21/2013  02:09:00      152.187       78.233       28.098       23.230       27.569       32.963      539.649      760.067     1086.552        1.623        0.119      171.117       19.435        0.013      348.091       27.533      858.732
07/21/2013  02:10:00      -68.086       48.126        3.746       69.602       40.160       35.475     4844.464     1612.813     1258.460        0.734        0.386       83.378       38.986        0.219      347.534       26.573      858.718
07/21/2013  02:11:00      -29.117       13.466       -4.930       41.021       35.358       27.067     1682.754     1250.187      732.632        0.236        0.183       32.081       19.314        0.362      348.020       27.412      858.698
07/21/2013  02:12:00      -25.364      -30.276        0.540       26.532       24.797       16.599      703.944      614.870      275.532        0.158        0.080       39.496       11.085        0.079      347.632       26.743      858.686
07/21/2013  02:13:00      -52.824      -19.949        2.605       37.102       29.292       16.619     1376.560      858.039      276.182        0.285        0.126       56.465       18.009        0.102      347.550       26.601      858.691
07/21/2013  02:14:00      -52.280       66.394      -12.871       31.723       30.132       20.244     1006.331      907.918      409.837        0.482        0.116       84.506       24.305        0.083      347.490       26.496      858.700
07/21/2013  02:15:00      -36.383       66.573      -10.296       16.370       20.292       12.305      267.971      411.780      151.418        0.335        0.042       75.866       12.400        0.027      347.723       26.899      858.713
07/21/2013  02:16:00      -52.906       67.475      -12.208       18.588       15.810        8.198      345.518      249.966       67.212        0.408        0.033       85.743        5.127        0.004      347.535       26.576      858.722
07/21/2013  02:17:00      -49.102       62.753      -16.031       15.308       13.462        7.526      234.340      181.221       56.648        0.354        0.024       79.680        6.161        0.006      347.470       26.461      858.712
07/21/2013  02:18:00      -79.952       12.811       -8.847       24.993       32.986       12.781      624.669     1088.062      163.354        0.426        0.094       80.972        9.975        0.015      347.734       26.918      858.711
07/21/2013  02:19:00      -14.552      -41.242       -5.755       22.873       20.409       10.430      523.164      416.530      108.783        0.150        0.052       43.734        5.939        0.018      347.377       26.300      858.700
07/21/2013  02:20:00      -45.873      -23.757        1.480       11.872       15.534       12.470      140.936      241.320      155.503        0.160        0.027       51.660        7.357        0.020      347.362       26.278      858.696
07/21/2013  02:21:00      -56.448       -4.020       -5.887       14.091       11.511        8.226      198.556      132.499       67.669        0.182        0.020       56.591        8.085        0.020      347.162       25.932      858.702
07/21/2013  02:22:00      -25.469       -2.512       -4.550       11.399        6.026        4.914      129.927       36.318       24.147        0.043        0.010       25.593        2.663        0.011      347.213       26.019      858.693
07/21/2013  02:23:00      -48.096       28.829       -6.407       16.282       12.293        7.844      265.115      151.123       61.529        0.183        0.024       56.074        6.143        0.012      347.502       26.517      858.694
07/21/2013  02:24:00      -28.034       13.413       -3.226       16.108       25.518       10.738      259.461      651.145      115.306        0.100        0.051       31.077        6.166        0.039      347.363       26.279      858.677
07/21/2013  02:25:00      -61.575       -7.767       -4.844       24.530       13.757       14.604      601.732      189.246      213.283        0.244        0.050       62.063       16.218        0.068      347.434       26.400      858.652
07/21/2013  02:26:00     -100.116       -6.653       -4.831       22.936       16.421       10.394      526.068      269.657      108.026        0.550        0.045      100.336        9.758        0.009      347.448       26.424      858.639
07/21/2013  02:27:00     -105.022        5.579       -9.788       20.816       25.280       13.112      433.307      639.085      171.916        0.620        0.062      105.170        9.887        0.009      347.282       26.138      858.630
07/21/2013  02:28:00      -78.897      -10.493       -1.271       32.315       18.506       16.220     1044.241      342.471      263.101        0.399        0.082       79.591       18.058        0.051      347.241       26.069      858.613
07/21/2013  02:29:00      -41.326      -35.414        5.889       33.040       23.309       21.530     1091.642      543.294      463.544        0.255        0.105       54.424       20.495        0.142      346.931       25.533      858.591
07/21/2013  02:30:00     -101.216      -57.394       -0.814       34.526       20.681       16.984     1192.057      427.699      288.447        0.772        0.095      116.356       17.304        0.022      347.033       25.710      858.567
07/21/2013  02:31:00      -51.860      -11.292        4.892       56.588       22.984       16.417     3202.164      528.243      269.503        0.342        0.200       53.075       22.309        0.177      346.777       25.268      858.571
07/21/2013  02:32:00      -98.145       26.033       -8.855       26.595       24.309       17.675      707.302      590.913      312.421        0.600        0.081      101.539       12.936        0.016      346.763       25.245      858.585
07/21/2013  02:33:00      -59.071      -16.678        0.548       29.400       29.914       14.251      864.336      894.852      203.090        0.286        0.098       61.380       11.263        0.034      346.830       25.357      858.575
07/21/2013  02:34:00      -26.156      -21.403        0.859       19.757       19.080        9.912      390.319      364.041       98.248        0.100        0.043       33.797        6.369        0.036      346.930       25.531      858.550
07/21/2013  02:35:00      -57.235      -24.768       -3.971       24.203       29.952       15.490      585.773      897.146      239.929        0.281        0.086       62.365        9.546        0.023      347.402       26.346      858.541
07/21/2013  02:36:00      -76.003       84.859      -10.095       26.002       37.821       14.830      676.124     1430.446      219.930        0.770        0.116      113.919       15.515        0.019      347.256       26.093      858.545
07/21/2013  02:37:00     -154.373       72.728      -11.152       53.896       35.393       26.802     2904.739     1252.642      718.367        1.706        0.244      170.647       23.122        0.018      347.506       26.524      858.565
07/21/2013  02:38:00      -82.655       31.131       -1.947       50.555       23.246       16.687     2555.793      540.393      278.472        0.559        0.169       88.323       21.461        0.059      347.393       26.330      858.573
07/21/2013  02:39:00     -110.180        1.004      -10.952       32.158       23.051       17.832     1034.128      531.344      317.991        0.707        0.094      110.185       15.779        0.021      347.333       26.226      858.581
07/21/2013  02:40:00      -94.931       -2.286       -0.547       33.357       26.801       16.310     1112.666      718.299      266.019        0.556        0.105       94.959       11.755        0.015      347.173       25.949      858.560
07/21/2013  02:41:00      -87.408       10.085       -4.901       35.799       29.966       18.804     1281.593      897.971      353.592        0.515        0.127       87.988       19.181        0.048      347.407       26.355      858.567
07/21/2013  02:42:00      -56.309        6.633       -1.449       23.534       18.984       11.567      553.854      360.403      133.791        0.213        0.052       56.698        5.247        0.009      347.390       26.326      858.578
07/21/2013  02:43:00      -36.207      -13.275        0.532       24.623       14.121       10.778      606.307      199.411      116.160        0.120        0.046       38.564        5.653        0.021      347.240       26.068      858.575
07/21/2013  02:44:00       -2.776       -2.613        3.628       16.089       22.527        9.914      258.844      507.480       98.288        0.045        0.043        3.812       12.300       10.409      347.205       26.006      858.565
07/21/2013  02:45:00      -52.601       62.043      -11.659       21.031       26.185       14.477      442.296      685.679      209.590        0.404        0.067       81.340       10.174        0.016      347.125       25.867      858.586
07/21/2013  02:46:00      -67.653        3.793       -6.211       21.285       26.343       13.408      453.040      693.935      179.769        0.298        0.066       67.759        9.372        0.019      347.245       26.075      858.597
07/21/2013  02:47:00       10.153       10.760       10.303       50.499       12.535       18.156     2550.145      157.118      329.644        0.168        0.152       14.794       10.730        0.526      347.015       25.679      858.584
07/21/2013  02:48:00      -17.794      -29.035       11.551       17.422       21.465       23.502      303.513      460.753      552.330        0.130        0.066       34.054       10.001        0.086      346.874       25.434      858.579
07/21/2013  02:49:00       36.854       52.069        9.396       31.898       22.577       11.541     1017.458      509.739      133.192        0.291        0.083       63.792       12.529        0.039      346.843       25.382      858.595
07/21/2013  02:50:00       42.509       22.662        1.990       12.314       18.563        9.671      151.645      344.590       93.527        0.146        0.029       48.173        8.541        0.031      346.937       25.544      858.622
07/21/2013  02:51:00       -0.530      -18.640       19.119       10.158       30.495       22.324      103.178      929.961      498.357        0.112        0.077       18.648       17.651        0.896      346.932       25.535      858.614
07/21/2013  02:52:00        1.213        0.748       43.900       19.141       31.644       17.683      366.367     1001.372      312.674        0.180        0.084        1.425       11.855       69.212      346.801       25.310      858.613
07/21/2013  02:53:00       10.169       21.661       30.957       19.633       22.133       11.640      385.472      489.890      135.482        0.127        0.051       23.930        9.535        0.159      346.582       24.934      858.631
07/21/2013  02:54:00      102.152       55.741       31.335       36.342       26.916       17.131     1320.720      724.468      293.486        0.843        0.117      116.370       16.461        0.020      346.709       25.153      858.634
07/21/2013  02:55:00      138.315       62.546       25.181       33.044       23.037       24.384     1091.925      530.692      594.562        1.295        0.111      151.799       11.116        0.005      347.134       25.883      858.634
07/21/2013  02:56:00       75.184       26.642        8.998       33.425       21.274       20.350     1117.210      452.584      414.123        0.421        0.099       79.764       15.890        0.040      347.087       25.803      858.666
07/21/2013  02:57:00       64.745       49.011       30.185       37.235       36.238       34.336     1386.461     1313.198     1178.993        0.569        0.194       81.203       29.792        0.135      347.043       25.726      858.684
07/21/2013  02:58:00      100.338       88.222       56.011       24.566       25.544       21.226      603.498      652.472      450.557        1.135        0.085      133.607       11.730        0.008      346.758       25.236      858.685
07/21/2013  02:59:00       58.672       62.219       70.173       34.877       31.134       27.728     1216.432      969.329      768.868        0.760        0.148       85.519        7.760        0.008      346.499       24.789      858.690
07/21/2013  03:00:00       62.539       63.949       68.512       35.517       33.017       28.503     1261.423     1090.108      812.427        0.793        0.158       89.446       16.696        0.035      346.494       24.782      858.722
07/21/2013  03:01:00      107.079       73.428       29.927       37.080       31.835       32.450     1374.960     1013.473     1053.021        1.060        0.172      129.837       21.224        0.027      346.444       24.697      858.739
07/21/2013  03:02:00      140.711       81.341       36.015       37.919       35.436       28.739     1437.829     1255.679      825.952        1.562        0.176      162.530       15.594        0.009      346.475       24.750      858.727
07/21/2013  03:03:00      104.831       66.108       55.299       52.085       40.538       39.247     2712.860     1643.302     1540.307        1.216        0.295      123.934       20.060        0.026      346.602       24.967      858.716
07/21/2013  03:04:00       96.053       51.932       46.015       56.106       43.099       27.456     3147.898     1857.537      753.845        0.990        0.288      109.193       20.187        0.034      346.724       25.177      858.709
07/21/2013  03:05:00       77.199       37.717       21.151       41.730       24.155       25.259     1741.412      583.462      638.023        0.540        0.148       85.920       12.103        0.020      346.875       25.436      858.721
07/21/2013  03:06:00       33.967       26.800        5.228       19.293       18.889       15.102      372.236      356.795      228.063        0.143        0.048       43.267       10.441        0.058      346.816       25.335      858.756
07/21/2013  03:07:00       81.045       51.561       19.587       38.126       19.094       21.601     1453.606      364.595      466.608        0.595        0.114       96.056       18.991        0.039      346.772       25.259      858.750
07/21/2013  03:08:00       92.862       36.359       15.265       26.235       19.384       19.268      688.299      375.737      371.270        0.581        0.072       99.726       12.453        0.016      346.748       25.218      858.749
07/21/2013  03:09:00       75.896       26.174       12.969       33.299       18.403       21.008     1108.804      338.682      441.323        0.425        0.094       80.283       19.226        0.057      346.807       25.320      858.730
07/21/2013  03:10:00       26.805       30.578       39.286       28.926       19.483       16.234      836.728      379.578      263.537        0.234        0.074       40.663       15.427        0.144      346.696       25.129      858.711
07/21/2013  03:11:00       34.502       -5.474       26.331       32.685       36.820       22.411     1068.288     1355.694      502.266        0.242        0.146       34.933       20.537        0.346      347.022       25.691      858.719
07/21/2013  03:12:00       51.106      -65.897        2.530       22.946       20.317       15.203      526.510      412.787      231.124        0.407        0.059       83.392        9.436        0.013      347.145       25.904      858.724
07/21/2013  03:13:00       48.325      -49.477       16.444       27.852       39.347       19.989      775.761     1548.161      399.548        0.389        0.136       69.161       17.755        0.066      347.091       25.809      858.727
07/21/2013  03:14:00       32.467      -53.084       16.295       27.238       40.346       28.810      741.916     1627.815      830.014        0.367        0.160       62.226       23.319        0.140      347.050       25.737      858.737
07/21/2013  03:15:00       13.020      -53.364        9.984       29.473       31.618       17.321      868.640      999.699      300.018        0.264        0.108       54.929        9.811        0.032      347.043       25.727      858.749
07/21/2013  03:16:00      -37.781        4.408        2.596       12.120       18.806       13.894      146.893      353.683      193.047        0.107        0.035       38.038        6.107        0.026      346.633       25.021      858.767
07/21/2013  03:17:00      -29.747       56.218        4.781       19.792       26.494       17.479      391.713      701.937      305.500        0.273        0.070       63.603       16.548        0.068      347.021       25.687      858.765
07/21/2013  03:18:00      -41.055       29.137       -8.789       17.388       20.174       10.724      302.342      406.997      114.999        0.172        0.041       50.343        4.794        0.009      346.882       25.450      858.775
07/21/2013  03:19:00      -77.378        1.649       -9.160       13.874       22.540        7.806      192.492      508.065       60.939        0.342        0.038       77.396        5.495        0.005      346.643       25.038      858.758
07/21/2013  03:20:00      -64.562      -36.665      -11.412       18.514       14.370        9.740      342.779      206.491       94.876        0.314        0.032       74.247        4.445        0.004      346.429       24.669      858.736
07/21/2013  03:21:00      -71.936      -26.837       -8.778       13.888       15.488        8.375      192.877      239.889       70.144        0.324        0.025       76.779        6.130        0.006      346.489       24.773      858.740
07/21/2013  03:22:00      -68.749       -2.390      -11.580        6.386       13.288        6.476       40.787      176.572       41.933        0.256        0.013       68.790        6.037        0.008      346.502       24.794      858.747
07/21/2013  03:23:00      -83.651        3.709       -5.262       16.443        9.141        7.582      270.364       83.554       57.487        0.373        0.021       83.733        4.090        0.002      346.630       25.016      858.744
07/21/2013  03:24:00      -90.237      -22.667      -15.097       14.049       10.601        8.276      197.377      112.391       68.492        0.463        0.019       93.041        7.801        0.007      346.478       24.753      858.741
07/21/2013  03:25:00      -42.562      -33.094       -8.562       13.949       13.801       10.119      194.573      190.478      102.392        0.173        0.024       53.914        7.849        0.021      346.578       24.927      858.740
07/21/2013  03:26:00      -23.516      -22.872       -6.888       12.725       12.448        8.478      161.927      154.950       71.882        0.076        0.019       32.805        6.979        0.045      346.698       25.132      858.737
07/21/2013  03:27:00      -70.335      -23.581      -15.209       21.808       12.282       10.400      475.607      150.853      108.157        0.323        0.037       74.183        9.520        0.016      346.555       24.886      858.731
07/21/2013  03:28:00      -78.888      -33.157      -12.739       15.065       13.036       10.814      226.967      169.931      116.935        0.400        0.026       85.573        7.488        0.008      346.371       24.571      858.721
07/21/2013  03:29:00      -62.142      -24.004      -13.024        9.719        8.711        5.982       94.457       75.877       35.787        0.241        0.010       66.617        3.599        0.003      346.469       24.739      858.718
07/21/2013  03:30:00      -78.309      -46.151       -9.409       24.474       16.302       13.993      598.953      265.766      195.802        0.471        0.053       90.897        8.871        0.010      346.364       24.558      858.718
07/21/2013  03:31:00      -88.843      -43.358       -3.293       22.530       25.061       14.953      507.588      628.071      223.584        0.557        0.068       98.858       11.857        0.014      346.227       24.324      858.717
07/21/2013  03:32:00      -82.466      -25.391       -8.252       25.142       32.182       17.140      632.111     1035.678      293.776        0.474        0.098       86.287       14.374        0.028      346.051       24.020      858.715
07/21/2013  03:33:00     -149.439       13.583      -18.664       38.273       29.826       21.132     1464.850      889.606      446.576        1.283        0.140      150.055        6.200        0.002      346.640       25.034      858.712
07/21/2013  03:34:00     -132.294      -33.573       -6.766       33.643       27.429       20.811     1131.858      752.323      433.077        1.050        0.116      136.487       20.148        0.022      346.504       24.801      858.706
07/21/2013  03:35:00      -85.178      -43.729       -4.775       32.054       32.378       19.685     1027.466     1048.342      387.488        0.583        0.123       95.747       15.312        0.026      346.283       24.418      858.684
07/21/2013  03:36:00      -63.220      -21.828       -5.057       35.703       23.620       13.248     1274.672      557.888      175.504        0.325        0.100       66.882       18.126        0.073      346.223       24.318      858.670
07/21/2013  03:37:00     -103.962       -5.882      -10.353       20.435       11.720       10.138      417.576      137.356      102.779        0.580        0.033      104.128        9.710        0.009      346.360       24.552      858.681
07/21/2013  03:38:00      -49.430      -39.523       -4.550       35.415       14.051       12.457     1254.202      197.428      155.186        0.282        0.080       63.289       16.858        0.071      346.568       24.909      858.671
07/21/2013  03:39:00      -30.015      -32.565        2.014       16.682       14.383       10.537      278.281      206.864      111.023        0.128        0.030       44.287        9.961        0.051      346.729       25.185      858.662
07/21/2013  03:40:00       -7.372      -72.944        9.893       18.137       25.010       12.063      328.954      625.506      145.523        0.329        0.055       73.315        8.978        0.015      346.843       25.382      858.651
07/21/2013  03:41:00       -4.774      -25.819       12.046       12.333       24.555        8.230      152.101      602.956       67.728        0.083        0.041       26.257        9.442        0.129      346.847       25.389      858.662
07/21/2013  03:42:00      -41.817      -21.400       -5.375       13.469       15.417        8.793      181.417      237.693       77.314        0.137        0.025       46.975        6.511        0.019      346.491       24.777      858.680
07/21/2013  03:43:00      -60.848       -1.382       -7.542       14.053       17.575       12.567      197.499      308.891      157.927        0.221        0.033       60.864        9.229        0.023      346.281       24.415      858.682
07/21/2013  03:44:00      -45.077      -37.385      -10.729        6.971        8.133        5.335       48.594       66.153       28.467        0.184        0.007       58.562        4.648        0.006      346.617       24.993      858.676
07/21/2013  03:45:00      -43.880      -44.521       -4.954       13.042       12.783       10.105      170.097      163.415      102.115        0.218        0.022       62.511        7.612        0.015      346.736       25.197      858.662
07/21/2013  03:46:00      -63.684        2.718       -6.081       19.312       13.801        8.194      372.943      190.466       67.149        0.237        0.032       63.742        4.819        0.006      346.622       25.003      858.655
07/21/2013  03:47:00      -84.121       23.581       -4.051       12.637       10.930        9.134      159.685      119.462       83.429        0.401        0.018       87.364        5.813        0.004      346.533       24.850      858.660
07/21/2013  03:48:00      -74.939       20.118       -6.828       18.223       14.933       10.945      332.090      222.985      119.785        0.337        0.034       77.593        9.354        0.015      346.115       24.129      858.661
07/21/2013  03:49:00      -75.161        7.092      -16.465       14.454       19.194       14.561      208.922      368.401      212.020        0.338        0.039       75.494       11.071        0.022      345.820       23.623      858.654
07/21/2013  03:50:00      -87.370       11.580       -6.639       15.494       21.852       14.024      240.053      477.519      196.682        0.436        0.046       88.134        9.265        0.011      345.850       23.677      858.640
07/21/2013  03:51:00      -81.981      -14.653       -3.644       26.687       30.109       15.450      712.218      906.541      238.714        0.440        0.093       83.280       11.408        0.019      345.732       23.472      858.635
07/21/2013  03:52:00      -82.194      -57.892       -3.662       45.514       33.723       20.360     2071.548     1137.220      414.515        0.687        0.181      100.535       26.751        0.071      345.730       23.469      858.638
07/21/2013  03:53:00     -108.107      -74.377      -10.635       30.100       18.378       16.220      905.992      337.759      263.104        0.942        0.075      131.222       15.271        0.014      345.791       23.573      858.650
07/21/2013  03:54:00      -70.435      -18.629       -9.697       31.291       28.613       16.869      979.105      818.690      284.570        0.374        0.104       72.856       15.649        0.046      345.643       23.319      858.657
07/21/2013  03:55:00      -65.411       13.075       -3.967       16.278       14.059       11.275      264.969      197.642      127.117        0.253        0.029       66.705        8.311        0.016      345.562       23.180      858.657
07/21/2013  03:56:00      -87.621      -16.063      -15.454       34.186       28.169       13.124     1168.687      793.496      172.232        0.515        0.107       89.081       12.574        0.020      345.620       23.279      858.672
07/21/2013  03:57:00      -90.950      -29.839       -3.631       26.037       29.244       16.869      677.903      855.237      284.570        0.550        0.091       95.720        9.929        0.011      345.597       23.241      858.686
07/21/2013  03:58:00      -63.549      -25.489       -3.466       30.792       25.044       17.148      948.176      627.220      294.045        0.328        0.093       68.471       15.792        0.053      345.533       23.130      858.699
07/21/2013  03:59:00      -76.679      -26.046       -8.848       25.254       18.728       14.239      637.778      350.742      202.759        0.391        0.060       80.982       14.580        0.032      345.750       23.505      858.690
07/21/2013  04:00:00     -100.123      -23.339       -8.317       18.056       16.261       10.357      326.029      264.424      107.260        0.567        0.035      102.807        6.649        0.004      345.745       23.495      858.691
07/21/2013  04:01:00      -53.424      -23.123       -5.339       19.652       15.279       11.363      386.190      233.460      129.123        0.208        0.037       58.213        7.498        0.017      345.689       23.399      858.713
07/21/2013  04:02:00      -23.929      -16.597       -2.039       16.838       12.529        9.385      283.526      156.982       88.084        0.069        0.026       29.121        7.815        0.072      345.817       23.619      858.719
07/21/2013  04:03:00      -30.562      -26.878       -0.303       14.047       10.051       12.377      197.314      101.028      153.189        0.105        0.023       40.700        7.526        0.034      345.858       23.690      858.742
07/21/2013  04:04:00      -83.649      -25.105       -6.790       24.264       10.861        7.335      588.753      117.967       53.803        0.422        0.038       87.335        3.032        0.001      345.823       23.631      858.773
07/21/2013  04:05:00      -58.315       -2.933       -5.635       20.400       13.240       10.571      416.163      175.294      111.756        0.207        0.035       58.388        9.496        0.026      345.749       23.503      858.780
07/21/2013  04:06:00      -26.419       10.210        1.227       28.698       25.070       19.382      823.556      628.492      375.678        0.132        0.091       28.323       20.931        0.546      345.895       23.752      858.780
07/21/2013  04:07:00      -26.442       18.057       -7.080       22.362       14.910        7.123      500.064      222.303       50.734        0.092        0.039       32.019        2.435        0.006      346.078       24.068      858.783
07/21/2013  04:08:00      -53.882       -3.544       -3.369       19.915       12.139       10.560      396.626      147.357      111.504        0.179        0.033       53.998        8.634        0.026      345.958       23.861      858.785
07/21/2013  04:09:00      -69.011      -36.577       -1.835       28.153       33.182       13.588      792.613     1101.027      184.645        0.409        0.104       78.105       10.820        0.019      345.769       23.538      858.812
07/21/2013  04:10:00      -51.241      -40.259       -2.908       14.148       16.538        7.222      200.152      273.508       52.157        0.239        0.026       65.165        5.684        0.008      346.015       23.959      858.818
07/21/2013  04:11:00      -26.951      -32.097       -7.970       13.017        7.828        5.800      169.429       61.278       33.639        0.104        0.013       41.912        3.867        0.009      346.058       24.031      858.795
07/21/2013  04:12:00      -40.452      -43.410        2.062       18.608       15.538       11.082      346.249      241.441      122.811        0.212        0.036       59.337       10.873        0.034      346.128       24.151      858.783
07/21/2013  04:13:00       -4.609      -15.001       12.428       26.071       14.263       12.799      679.721      203.436      163.808        0.072        0.052       15.693       11.769        0.562      345.907       23.774      858.777
07/21/2013  04:14:00      -54.625      -25.766        2.272       35.832       24.372       14.618     1283.955      593.975      213.682        0.287        0.105       60.397       15.906        0.069      345.792       23.576      858.767
07/21/2013  04:15:00      -70.792       -6.099       -6.334       26.280       18.522       12.069      690.657      343.065      145.657        0.313        0.059       71.055       14.333        0.041      345.536       23.138      858.767
07/21/2013  04:16:00      -87.245      -15.778       -5.066       20.446       15.654       11.579      418.046      245.051      134.069        0.434        0.040       88.660        9.601        0.012      345.423       22.943      858.770
07/21/2013  04:17:00      -73.714      -43.588        0.033       24.431       19.631       15.375      596.863      385.388      236.395        0.428        0.061       85.637       12.829        0.022      345.392       22.890      858.758
07/21/2013  04:18:00      -87.059      -43.226        5.475       27.754       22.660       17.049      770.293      513.487      290.678        0.553        0.079       97.199       15.933        0.027      345.445       22.982      858.749
07/21/2013  04:19:00      -77.139      -33.361        5.220       37.396       21.781       15.462     1398.444      474.430      239.079        0.460        0.106       84.044       16.417        0.038      345.503       23.080      858.755
07/21/2013  04:20:00      -63.257       -3.291        1.905       24.821       22.276       14.432      616.079      496.210      208.297        0.267        0.066       63.343       12.884        0.041      345.411       22.923      858.759
07/21/2013  04:21:00      -58.067       15.327       -5.414       16.155       17.023        9.280      260.992      289.766       86.117        0.214        0.032       60.056        8.201        0.019      345.278       22.693      858.765
07/21/2013  04:22:00      -82.300      -21.856       -7.037       20.273       24.329        8.592      410.989      591.921       73.831        0.419        0.054       85.153        9.163        0.012      345.542       23.148      858.772
07/21/2013  04:23:00      -78.969      -62.540       -1.772       35.682       20.680       24.049     1273.182      427.673      578.354        0.621        0.114      100.734       18.985        0.036      345.351       22.818      858.787
07/21/2013  04:24:00      -63.456      -58.275        6.949       45.552       27.502       26.735     2074.992      756.358      714.769        0.551        0.177       86.155       26.297        0.093      345.337       22.796      858.801
07/21/2013  04:25:00      -64.961      -58.064        8.774       46.847       35.299       25.063     2194.600     1246.020      628.130        0.587        0.203       87.128       25.770        0.087      345.510       23.091      858.797
07/21/2013  04:26:00      -89.062      -80.449        7.136       38.699       23.779       21.399     1497.620      565.425      457.907        0.849        0.126      120.017       20.268        0.029      345.562       23.180      858.796
07/21/2013  04:27:00      -57.140      -51.073        4.204       44.469       30.320       19.695     1977.449      919.287      387.888        0.459        0.164       76.638       19.496        0.065      345.555       23.169      858.809
07/21/2013  04:28:00      -89.150      -55.643        1.774       57.273       35.416       22.587     3280.168     1254.306      510.175        0.804        0.252      105.090       30.049        0.082      345.447       22.983      858.814
07/21/2013  04:29:00      -84.896      -18.782       -0.443       31.694       37.503       17.498     1004.525     1406.443      306.175        0.514        0.136       86.949       14.503        0.028      345.287       22.708      858.820
07/21/2013  04:30:00      -41.267        2.003        2.945       34.984       30.604       26.117     1223.863      936.583      682.111        0.228        0.142       41.315       25.049        0.368      345.109       22.406      858.839
07/21/2013  04:31:00      -80.807       13.930       -4.366       32.580       25.156       16.699     1061.469      632.830      278.850        0.436        0.099       81.999       13.210        0.026      345.106       22.398      858.852
07/21/2013  04:32:00      -68.394       -5.533        0.898       17.276       25.434       13.072      298.456      646.912      170.884        0.291        0.056       68.617        7.385        0.012      345.215       22.585      858.856
07/21/2013  04:33:00      -66.828      -27.055       -0.290       16.959       16.504        9.668      287.608      272.372       93.473        0.293        0.033       72.097        7.235        0.010      345.208       22.575      858.864
07/21/2013  04:34:00      -65.927      -14.800       -8.925       20.772       14.003       11.804      431.482      196.072      139.344        0.271        0.038       67.567        6.899        0.010      345.121       22.426      858.864
07/21/2013  04:35:00      -14.447      -21.148       -5.511       20.463       11.011       10.828      418.751      121.237      117.250        0.067        0.033       25.612        4.245        0.027      345.171       22.510      858.841
07/21/2013  04:36:00      -57.768      -28.489        0.787       17.094       14.498       10.160      292.217      210.178      103.232        0.238        0.030       64.411        8.612        0.018      345.397       22.899      858.834
07/21/2013  04:37:00      -70.435      -50.100        8.118       45.225       30.533       23.768     2045.281      932.282      564.928        0.554        0.177       86.435       23.715        0.075      345.150       22.474      858.833
07/21/2013  04:38:00     -129.857      -46.857       -5.268       27.917       24.763       15.509      779.336      613.226      240.537        1.036        0.082      138.052       12.048        0.008      345.034       22.278      858.842
07/21/2013  04:39:00      -85.673      -17.221        5.854       31.393       27.149       14.653      985.514      737.046      214.699        0.480        0.097       87.386       16.413        0.035      345.051       22.305      858.857
07/21/2013  04:40:00      -78.552       -0.553       -2.556       27.231       15.874       14.920      741.528      251.990      222.597        0.370        0.061       78.554       13.468        0.029      345.193       22.549      858.860
07/21/2013  04:41:00      -51.913      -30.677      -10.356       27.462       19.209       10.979      754.171      368.970      120.538        0.249        0.062       60.300       10.716        0.032      345.297       22.726      858.863
07/21/2013  04:42:00      -12.034      -23.463        9.608       34.575       19.460       19.449     1195.412      378.695      378.279        0.137        0.098       26.369       15.142        0.330      345.204       22.567      858.888
07/21/2013  04:43:00      -35.152      -35.384       11.308       37.603       20.340       21.417     1414.019      413.713      458.708        0.245        0.114       49.877       22.439        0.202      345.077       22.351      858.904
07/21/2013  04:44:00      -83.452      -30.686       -6.679       13.976       22.895        6.735      195.336      524.199       45.361        0.436        0.038       88.915        2.866        0.001      345.221       22.597      858.905
07/21/2013  04:45:00      -59.197       -8.965       -2.262       16.527       19.713        7.946      273.153      388.607       63.132        0.216        0.036       59.872        6.819        0.013      345.067       22.333      858.914
07/21/2013  04:46:00      -36.003      -30.229        1.698       24.685       18.081       11.088      609.331      326.937      122.947        0.164        0.053       47.011        8.012        0.029      345.121       22.426      858.933
07/21/2013  04:47:00      -51.266      -30.594       -0.131       22.876       10.796        8.913      523.306      116.547       79.436        0.214        0.036       59.700        7.852        0.017      345.167       22.505      858.941
07/21/2013  04:48:00      -83.397      -34.017       -3.703       14.540       16.065        9.302      211.402      258.095       86.536        0.434        0.028       90.068        2.924        0.001      345.117       22.418      858.947
07/21/2013  04:49:00      -95.637      -20.335       -5.206       24.018       18.377       11.778      576.882      337.714      138.710        0.532        0.053       97.775       10.954        0.013      345.085       22.364      858.950
07/21/2013  04:50:00      -77.643      -41.882       -5.877       34.943       16.864       11.233     1220.982      284.390      126.182        0.472        0.082       88.219       11.364        0.017      345.120       22.424      858.952
07/21/2013  04:51:00      -15.392      -47.080       -1.319       21.099       24.016       15.680      445.178      576.766      245.860        0.186        0.063       49.532       15.366        0.096      345.154       22.481      858.972
07/21/2013  04:52:00      -41.175      -59.214        7.201       34.694       19.662       16.782     1203.639      386.589      281.622        0.356        0.094       72.123       14.388        0.040      345.340       22.799      858.990
07/21/2013  04:53:00      -48.473      -94.569      -12.173       27.972       23.243       15.593      782.436      540.216      243.129        0.650        0.078      106.268       13.375        0.016      345.366       22.845      859.004
07/21/2013  04:54:00      -58.022      -76.851       -9.089       29.866       24.507       20.603      891.974      600.591      424.503        0.564        0.096       96.294       15.881        0.027      345.307       22.743      859.024
07/21/2013  04:55:00      -29.825      -48.321        8.364       34.244       37.681       20.872     1172.658     1419.846      435.634        0.316        0.151       56.784       14.131        0.062      345.274       22.687      859.044
07/21/2013  04:56:00      -90.081     -104.489       -6.967       46.567       32.396       20.607     2168.520     1049.515      424.644        1.136        0.182      137.959       18.551        0.018      345.243       22.635      859.069
07/21/2013  04:57:00      -55.292      -57.979        4.256       31.664       36.962       16.921     1002.588     1366.177      286.312        0.455        0.133       80.117       14.941        0.035      345.203       22.566      859.086
07/21/2013  04:58:00      -33.949      -98.784        2.975       33.170       45.538       19.851     1100.223     2073.735      394.051        0.724        0.178      104.455       17.977        0.030      345.325       22.773      859.097
07/21/2013  04:59:00      -80.959      -96.282       -2.843       29.934       34.233       18.923      896.021     1171.895      358.087        0.913        0.121      125.795       14.449        0.013      345.281       22.698      859.113
07/21/2013  05:00:00      -43.303      -32.314        5.160       54.503       30.987       21.722     2970.541      960.191      471.855        0.367        0.220       54.031       16.622        0.095      345.233       22.617      859.134
07/21/2013  05:01:00      -87.977      -68.825       -3.499       54.011       41.617       28.314     2917.213     1731.978      801.685        0.897        0.273      111.700       26.998        0.058      345.268       22.676      859.152
07/21/2013  05:02:00      -98.993     -102.777       -9.039       58.173       48.914       26.326     3384.068     2392.606      693.039        1.346        0.323      142.698       26.945        0.036      345.218       22.591      859.163
07/21/2013  05:03:00     -108.246     -119.394      -17.743       47.231       58.617       38.005     2230.776     3435.964     1444.365        1.670        0.356      161.159       31.549        0.038      345.252       22.648      859.180
07/21/2013  05:04:00     -101.651     -127.596       -6.784       36.207       61.789       26.506     1310.928     3817.902      702.555        1.624        0.292      163.137       16.853        0.011      345.276       22.687      859.196
07/21/2013  05:05:00     -109.963     -139.382        1.622       56.994       64.726       28.941     3248.300     4189.409      837.582        1.990        0.414      177.537       30.865        0.030      345.313       22.751      859.223
07/21/2013  05:06:00      -73.711      -70.527        4.747       49.057       51.785       29.707     2406.590     2681.711      882.480        0.820        0.299      102.016       23.834        0.055      345.276       22.690      859.233
07/21/2013  05:07:00      -90.879      -66.002       -2.760       50.390       39.281       28.200     2539.156     1543.029      795.258        0.875        0.244      112.318       25.424        0.051      345.246       22.640      859.231
07/21/2013  05:08:00     -130.155     -160.577       -8.015       63.202       49.934       44.131     3994.433     2493.357     1947.572        2.561        0.422      206.701       40.858        0.039      345.302       22.734      859.232
07/21/2013  05:09:00     -113.392     -100.193       -2.743       64.245       44.343       31.325     4127.479     1966.298      981.252        1.499        0.354      151.315       33.466        0.049      345.274       22.685      859.234
07/21/2013  05:10:00     -116.852      -89.791       -1.715       68.121       50.368       31.397     4640.418     2536.953      985.756        1.494        0.408      147.366       29.261        0.039      345.218       22.589      859.238
07/21/2013  05:11:00     -174.487     -114.941       -5.814       62.881       50.524       35.492     3954.073     2552.656     1259.694        2.573        0.388      208.943       34.408        0.027      345.227       22.604      859.237
07/21/2013  05:12:00     -105.017      -89.877        2.754       52.617       42.148       34.917     2768.543     1776.460     1219.196        1.244        0.288      138.227       32.862        0.057      345.166       22.502      859.255
07/21/2013  05:13:00      -93.941      -70.018       -2.489       49.551       39.784       22.870     2455.331     1582.750      523.041        0.915        0.228      117.164       25.543        0.048      345.145       22.465      859.257
07/21/2013  05:14:00     -155.018      -51.271       -7.455       35.879       30.961       22.394     1287.293      958.613      501.489        1.473        0.137      163.276       20.685        0.016      345.166       22.501      859.251
07/21/2013  05:15:00     -134.647      -50.535       -2.755       31.902       27.768       20.144     1017.722      771.050      405.793        1.144        0.110      143.818       16.125        0.013      345.129       22.439      859.265
07/21/2013  05:16:00     -123.929      -55.437        3.002       39.310       34.661       26.314     1545.273     1201.381      692.429        1.094        0.172      135.763       19.928        0.022      345.040       22.286      859.270
07/21/2013  05:17:00     -118.762      -32.697       -0.102       39.814       39.504       22.454     1585.147     1560.545      504.174        0.941        0.182      123.180       16.817        0.019      344.896       22.040      859.275
07/21/2013  05:18:00     -141.128      -11.895        5.071       50.902       46.344       27.709     2591.008     2147.737      767.776        1.279        0.275      141.628       24.996        0.031      344.678       21.666      859.282
07/21/2013  05:19:00     -141.740       -3.129       -7.611       54.392       41.269       27.178     2958.491     1703.116      738.620        1.278        0.270      141.774       24.757        0.030      344.464       21.302      859.304
07/21/2013  05:20:00     -161.339      -41.992       -5.611       46.255       41.896       21.517     2139.493     1755.240      462.968        1.609        0.218      166.715       18.321        0.012      344.445       21.268      859.316
07/21/2013  05:21:00     -143.105      -58.046        0.550       53.347       37.750       26.274     2845.908     1425.061      690.344        1.440        0.248      154.429       28.997        0.035      344.462       21.297      859.323
07/21/2013  05:22:00     -169.927      -66.843       -5.541       31.670       27.065       22.424     1002.971      732.532      502.830        1.781        0.112      182.601       16.618        0.008      344.484       21.336      859.322
07/21/2013  05:23:00     -192.042      -71.563      -11.621       38.858       33.139       23.795     1509.927     1098.190      566.198        2.265        0.159      204.942       20.074        0.010      344.378       21.153      859.327
07/21/2013  05:24:00     -175.271      -55.656      -10.100       44.637       38.959       29.237     1992.420     1517.825      854.792        1.914        0.218      183.896       24.070        0.017      344.289       21.001      859.340
07/21/2013  05:25:00     -138.309      -45.110       -3.168       45.954       40.461       27.060     2111.781     1637.068      732.254        1.283        0.224      145.480       25.733        0.031      344.241       20.921      859.343
07/21/2013  05:26:00     -122.864      -41.410        2.205       67.436       50.333       32.279     4547.669     2533.422     1041.929        1.247        0.406      129.655       32.530        0.063      344.299       21.017      859.341
07/21/2013  05:27:00     -179.092      -54.159       -5.300       56.279       47.272       27.722     3167.338     2234.619      768.530        2.060        0.309      187.102       26.443        0.020      344.353       21.110      859.346
07/21/2013  05:28:00     -190.436      -71.380       -3.307       29.503       41.185       25.318      870.424     1696.175      641.010        2.229        0.160      203.374       15.538        0.006      344.343       21.092      859.346
07/21/2013  05:29:00     -159.327      -34.728       -9.486       55.407       33.315       23.827     3069.956     1109.862      567.738        1.571        0.237      163.068       23.951        0.022      344.295       21.011      859.344
07/21/2013  05:30:00     -130.568      -35.600       -4.834       53.899       40.226       28.311     2905.109     1618.147      801.536        1.183        0.266      135.334       24.206        0.032      344.309       21.037      859.353
07/21/2013  05:31:00     -163.440      -62.824       -2.391       56.231       49.221       29.911     3161.886     2422.688      894.693        1.857        0.324      175.098       27.423        0.025      344.500       21.360      859.355
07/21/2013  05:32:00     -170.270      -50.882       -3.437       49.571       48.850       28.143     2457.263     2386.330      792.005        1.861        0.282      177.710       24.502        0.019      344.547       21.442      859.354
07/21/2013  05:33:00     -143.800      -31.116       -4.140       60.768       45.659       32.074     3692.717     2084.732     1028.736        1.423        0.340      147.128       36.990        0.063      344.438       21.257      859.347
07/21/2013  05:34:00     -105.288       -6.175        6.076       60.038       42.343       31.223     3604.577     1792.972      974.885        0.877        0.319      105.469       28.925        0.075      344.224       20.890      859.351
07/21/2013  05:35:00     -147.567       -4.939       -8.365       40.166       38.359       22.389     1613.318     1471.426      501.268        1.273        0.179      147.650       18.539        0.016      344.186       20.825      859.355
07/21/2013  05:36:00     -188.192        0.778      -14.851       35.609       35.379       21.202     1268.024     1251.688      449.545        1.930        0.148      188.194       14.631        0.006      344.172       20.801      859.364
07/21/2013  05:37:00     -149.682       -8.438      -11.379       55.017       36.129       29.040     3026.824     1305.325      843.336        1.389        0.259      149.920       27.209        0.033      344.222       20.889      859.368
07/21/2013  05:38:00     -127.549      -38.975      -10.950       32.391       41.948       22.338     1049.167     1759.652      498.986        1.061        0.165      133.371       17.610        0.017      344.352       21.110      859.389
07/21/2013  05:39:00     -180.413      -51.939      -12.489       25.122       26.540       19.224      631.123      704.379      369.565        1.855        0.085      187.741       15.958        0.007      344.468       21.309      859.403
07/21/2013  05:40:00     -146.882      -31.171      -11.242       38.025       35.513       22.290     1445.904     1261.204      496.824        1.294        0.160      150.153       24.194        0.026      344.291       21.005      859.418
07/21/2013  05:41:00     -119.333      -36.793        0.364       33.094       24.852       21.448     1095.183      617.613      460.031        0.888        0.109      124.877       15.201        0.015      344.196       20.844      859.432
07/21/2013  05:42:00     -127.354      -53.137        2.797       38.630       23.260       20.416     1492.286      541.016      416.803        1.075        0.123      137.995       19.013        0.019      344.255       20.943      859.442
07/21/2013  05:43:00     -113.120      -56.257        0.510       40.060       30.418       20.488     1604.774      925.282      419.752        0.945        0.147      126.337       20.759        0.027      344.442       21.264      859.441
07/21/2013  05:44:00     -119.379      -48.203       -1.395       35.441       33.523       19.103     1256.064     1123.788      364.907        0.966        0.137      128.744       15.569        0.015      344.457       21.290      859.440
07/21/2013  05:45:00     -109.885      -36.730        3.470       43.852       29.423       20.838     1922.958      865.693      434.223        0.833        0.161      115.861       21.605        0.035      344.391       21.175      859.446
07/21/2013  05:46:00      -88.776      -20.244        4.391       38.911       30.600       21.839     1514.071      936.356      476.955        0.562        0.146       91.055       21.056        0.053      344.276       20.980      859.458
07/21/2013  05:47:00      -71.658      -15.911        3.670       40.706       24.511       17.923     1657.007      600.798      321.221        0.399        0.129       73.403       17.306        0.056      344.201       20.850      859.466
07/21/2013  05:48:00      -70.438      -33.431        1.544       20.115       20.775       13.899      404.594      431.603      193.192        0.356        0.051       77.969       11.728        0.023      344.286       20.998      859.488
07/21/2013  05:49:00      -24.760      -49.858       -2.313       25.166       13.975        9.711      633.333      195.291       94.301        0.201        0.046       55.668        5.184        0.009      344.441       21.262      859.491
07/21/2013  05:50:00       -1.434      -44.560        3.469       16.637       18.251       11.237      276.796      333.089      126.264        0.137        0.037       44.583        7.802        0.031      344.590       21.516      859.505
07/21/2013  05:51:00       11.919      -58.069       -0.682       32.966       24.521       20.042     1086.744      601.276      401.682        0.280        0.104       59.280       16.443        0.077      344.864       21.985      859.511
07/21/2013  05:52:00      -15.709       -4.838        1.082       21.519       25.002        8.219      463.079      625.080       67.549        0.071        0.058       16.437       10.578        0.414      344.628       21.582      859.519
07/21/2013  05:53:00      -23.903       29.779       -2.551       16.706       22.657        8.643      279.088      513.325       74.710        0.117        0.043       38.186       11.225        0.086      344.548       21.444      859.530
07/21/2013  05:54:00      -46.652       39.291       -4.846       22.594       20.992       13.551      510.478      440.667      183.640        0.244        0.057       60.993       12.714        0.043      344.518       21.394      859.536
07/21/2013  05:55:00      -56.191        6.466       -3.838       18.747       15.159       10.157      351.453      229.803      103.160        0.195        0.034       56.562       10.440        0.034      344.552       21.452      859.540
07/21/2013  05:56:00      -30.027      -21.200        4.404       19.623       13.917        9.427      385.047      193.669       88.876        0.102        0.033       36.757        9.004        0.060      344.447       21.272      859.544
07/21/2013  05:57:00      -63.580      -26.886        1.911       25.216       12.145       11.624      635.871      147.510      135.122        0.284        0.046       69.031       13.470        0.038      344.453       21.282      859.526
07/21/2013  05:58:00      -75.847      -49.120       -4.274       22.657       13.343       11.315      513.348      178.045      128.038        0.450        0.041       90.364        4.365        0.002      344.391       21.175      859.517
07/21/2013  05:59:00      -35.890      -23.000        6.992       24.962       19.770       15.262      623.108      390.860      232.932        0.156        0.062       42.628       13.892        0.106      344.351       21.108      859.518
07/21/2013  06:00:00      -54.040      -47.928       -1.983       33.158       18.407       12.364     1099.447      338.799      152.876        0.341        0.080       72.232       10.959        0.023      344.410       21.209      859.510
07/21/2013  06:01:00      -34.428      -36.635        5.785       35.214       30.112       16.645     1240.029      906.727      277.054        0.249        0.121       50.274       12.202        0.059      344.419       21.224      859.514
07/21/2013  06:02:00      -81.003      -54.267        0.622       22.335       23.280       17.222      498.849      541.942      296.603        0.542        0.067       97.501       13.674        0.020      344.444       21.268      859.525
07/21/2013  06:03:00     -106.901      -53.802        4.452       46.288       45.834       23.256     2142.563     2100.713      540.864        0.956        0.239      119.677       25.187        0.044      344.485       21.338      859.537
07/21/2013  06:04:00     -138.716      -72.710        0.386       55.328       52.725       26.410     3061.158     2779.887      697.465        1.553        0.327      156.617       22.412        0.020      344.598       21.528      859.537
07/21/2013  06:05:00     -112.876      -70.124       -4.155       50.227       37.275       27.108     2522.787     1389.429      734.839        1.116        0.232      132.885       27.379        0.042      344.552       21.454      859.535
07/21/2013  06:06:00      -81.832      -74.741        5.714       61.752       55.486       28.708     3813.272     3078.652      824.166        1.001        0.386      110.828       28.410        0.066      344.594       21.523      859.534
07/21/2013  06:07:00     -129.583      -90.950        2.495       69.053       61.261       30.781     4768.312     3752.854      947.481        1.727        0.473      158.315       35.855        0.051      344.661       21.637      859.535
07/21/2013  06:08:00     -134.013     -121.516      -11.902       68.887       69.056       26.721     4745.415     4768.666      714.014        2.155        0.511      180.903       32.343        0.032      344.715       21.728      859.535
07/21/2013  06:09:00     -151.714     -121.509       -6.720       49.025       59.920       33.231     2403.445     3590.383     1104.324        2.246        0.355      194.375       32.598        0.028      344.700       21.702      859.537
07/21/2013  06:10:00     -143.147     -125.035       -8.882       48.275       43.531       26.390     2330.434     1894.942      696.457        2.056        0.246      190.065       23.491        0.015      344.736       21.765      859.539
07/21/2013  06:11:00      -82.016      -60.673       -2.180       58.442       44.418       27.720     3415.443     1972.921      768.377        0.828        0.308      102.019       28.718        0.079      344.686       21.680      859.545
07/21/2013  06:12:00      -80.071      -82.783        1.206       40.866       29.152       22.805     1670.051      849.829      520.048        0.815        0.152      115.171       21.673        0.035      344.711       21.724      859.549
07/21/2013  06:13:00      -70.704      -52.665        3.820       52.345       29.083       22.806     2740.044      845.832      520.126        0.595        0.205       88.163       28.983        0.108      344.629       21.583      859.553
07/21/2013  06:14:00      -90.420      -66.582        4.222       51.573       21.847       27.887     2659.813      477.289      777.664        0.827        0.196      112.290       29.282        0.068      344.629       21.585      859.558
07/21/2013  06:15:00      -72.310      -73.216        8.651       50.027       42.860       27.509     2502.651     1836.953      756.721        0.788        0.255      102.905       30.005        0.085      344.602       21.537      859.578
07/21/2013  06:16:00      -83.298      -90.006        4.317       53.694       40.075       29.976     2883.040     1605.979      898.565        1.022        0.269      122.636       29.348        0.057      344.577       21.495      859.590
07/21/2013  06:17:00     -126.509      -95.904       -8.373       37.261       43.750       23.055     1388.394     1914.056      531.515        1.455        0.192      158.752       20.386        0.016      344.572       21.487      859.597
07/21/2013  06:18:00     -135.908     -102.759        0.502       55.298       49.017       29.808     3057.845     2402.672      888.517        1.769        0.317      170.383       22.502        0.017      344.504       21.369      859.600
07/21/2013  06:19:00     -113.928      -77.422       -0.766       68.437       51.823       26.467     4683.591     2685.609      700.501        1.352        0.403      137.745       35.415        0.066      344.500       21.362      859.603
07/21/2013  06:20:00      -33.636      -26.789       12.657       36.235       37.834       25.345     1313.006     1431.407      642.386        0.270        0.169       43.000       21.654        0.254      344.495       21.355      859.606
07/21/2013  06:21:00     -121.490      -90.645       -8.267       58.142       40.755       28.952     3380.518     1660.944      838.247        1.446        0.294      151.579       25.439        0.028      344.479       21.325      859.616
07/21/2013  06:22:00      -60.862      -59.255       -2.459       57.004       28.956       22.796     3249.431      838.453      519.675        0.591        0.230       84.943       25.441        0.090      344.496       21.357      859.630
07/21/2013  06:23:00      -64.025      -47.207       -0.830       28.457       33.446       18.001      809.795     1118.668      324.047        0.429        0.113       79.547       17.472        0.048      344.524       21.406      859.639
07/21/2013  06:24:00      -82.627      -56.495      -12.631       31.266       28.275       19.658      977.537      799.502      386.438        0.617        0.108      100.094       14.408        0.021      344.525       21.404      859.647
07/21/2013  06:25:00      -82.674      -40.967      -11.857       16.638       20.714       13.778      276.824      429.087      189.830        0.477        0.045       92.267        8.396        0.008      344.537       21.427      859.650
07/21/2013  06:26:00      -88.596        0.764       -4.858       16.751       12.870       18.853      280.590      165.634      355.439        0.434        0.040       88.599       12.673        0.020      344.451       21.279      859.648
07/21/2013  06:27:00      -86.172       -8.194       -6.203       22.649       23.617       20.655      512.956      557.746      426.613        0.451        0.075       86.561       21.055        0.059      344.483       21.334      859.627
07/21/2013  06:28:00      -83.186       -8.907       -7.170       19.471       17.188       12.309      379.115      295.442      151.523        0.394        0.041       83.661        8.832        0.011      344.369       21.139      859.609
07/21/2013  06:29:00     -112.047        5.818       -4.333       38.578       30.611       23.105     1488.265      937.057      533.860        0.778        0.148      112.198       22.023        0.039      344.277       20.982      859.598
07/21/2013  06:30:00     -110.505      -12.488       -3.878       54.669       33.303       24.995     2988.733     1109.066      624.749        0.855        0.236      111.208       27.386        0.061      344.271       20.970      859.598
07/21/2013  06:31:00     -121.160      -56.842       -5.449       24.345       27.401       17.576      592.681      750.829      308.909        0.980        0.083      133.831       12.571        0.009      344.306       21.031      859.596
07/21/2013  06:32:00     -111.780      -71.108        6.541       38.188       39.841       24.566     1458.300     1587.325      603.474        1.062        0.182      132.480       23.171        0.031      344.337       21.086      859.605
07/21/2013  06:33:00     -119.783      -49.106       -0.118       44.250       35.197       23.021     1958.051     1238.804      529.965        1.024        0.186      129.458       18.553        0.021      344.367       21.136      859.600
07/21/2013  06:34:00      -94.321      -69.045        2.622       36.760       31.728       19.087     1351.273     1006.676      364.307        0.820        0.136      116.892       15.854        0.018      344.390       21.175      859.598
07/21/2013  06:35:00      -83.757      -81.071        1.697       43.477       33.842       23.851     1890.217     1145.257      568.874        0.860        0.180      116.567       25.222        0.047      344.477       21.323      859.601
07/21/2013  06:36:00      -52.479      -60.225        4.102       43.356       43.245       24.359     1879.704     1870.093      593.339        0.537        0.217       79.882       19.763        0.061      344.523       21.404      859.611
07/21/2013  06:37:00      -73.226      -79.168        5.964       41.002       26.801       28.473     1681.162      718.294      810.731        0.744        0.161      107.841       23.202        0.046      344.525       21.405      859.622
07/21/2013  06:38:00      -92.325      -98.327        3.829       45.928       33.718       24.800     2109.403     1136.921      615.035        1.103        0.193      134.878       25.163        0.035      344.561       21.467      859.633
07/21/2013  06:39:00     -112.093      -81.750        0.926       42.371       36.600       28.552     1795.265     1339.555      815.223        1.160        0.198      138.737       24.202        0.030      344.600       21.533      859.630
07/21/2013  06:40:00      -86.882      -83.423        5.883       46.150       41.833       27.243     2129.786     1750.025      742.160        0.958        0.231      120.449       26.576        0.049      344.631       21.587      859.642
07/21/2013  06:41:00      -80.194      -54.595        3.126       58.805       42.940       25.120     3458.028     1843.852      631.036        0.768        0.297       97.014       28.525        0.086      344.656       21.630      859.655
07/21/2013  06:42:00      -85.403      -67.674       -3.744       39.011       34.883       22.002     1521.895     1216.844      484.101        0.755        0.161      108.966       24.053        0.049      344.653       21.624      859.666
07/21/2013  06:43:00      -72.972      -63.862        3.873       33.754       35.695       18.463     1139.324     1274.102      340.878        0.609        0.138       96.971       14.383        0.022      344.660       21.636      859.679
07/21/2013  06:44:00      -77.890      -61.680        3.558       43.285       29.758       18.014     1873.587      885.550      324.508        0.648        0.154       99.354       14.896        0.022      344.683       21.676      859.692
07/21/2013  06:45:00      -53.324      -44.985        7.203       46.274       43.023       24.477     2141.241     1851.011      599.112        0.475        0.230       69.765       27.389        0.154      344.728       21.754      859.711
07/21/2013  06:46:00     -129.515      -72.533      -10.094       34.333       30.822       18.674     1178.739      949.982      348.731        1.231        0.124      148.443       10.436        0.005      344.681       21.673      859.724
07/21/2013  06:47:00     -114.699      -47.104       -1.415       37.110       45.354       19.997     1377.176     2057.015      399.868        0.960        0.192      123.994       15.792        0.016      344.674       21.660      859.728
07/21/2013  06:48:00      -36.695      -27.161       11.774       29.900       27.028       15.935      894.023      730.490      253.928        0.205        0.094       45.654       15.898        0.121      344.779       21.841      859.742
07/21/2013  06:49:00      -56.229       -5.819        3.547       31.215       22.861       18.674      974.351      522.608      348.728        0.253        0.092       56.530       17.903        0.100      344.740       21.773      859.735
07/21/2013  06:50:00      -83.743      -26.028       -1.638       30.727       27.057       18.877      944.149      732.108      356.338        0.486        0.102       87.694       18.719        0.046      344.654       21.627      859.734
07/21/2013  06:51:00     -116.669      -23.298       -6.005       22.591       18.749       13.122      510.354      351.516      172.180        0.761        0.052      118.972        8.243        0.005      344.635       21.594      859.743
07/21/2013  06:52:00      -88.024      -39.612        3.201       32.766       25.946       15.584     1073.602      673.202      242.861        0.566        0.099       96.526       12.378        0.016      344.625       21.577      859.737
07/21/2013  06:53:00      -73.895      -41.537       -2.316       26.965       29.601       16.429      727.131      876.225      269.902        0.453        0.094       84.769       13.905        0.027      344.698       21.700      859.743
07/21/2013  06:54:00      -86.901      -42.859       -4.659       17.309       17.197       13.791      299.604      295.753      190.194        0.510        0.039       96.896        6.705        0.005      344.726       21.750      859.747
07/21/2013  06:55:00      -67.410      -74.829       -5.462       21.976       21.797       15.691      482.963      475.124      246.192        0.569        0.060      100.715       14.471        0.021      344.766       21.817      859.743
07/21/2013  06:56:00      -54.042      -61.563        1.885       46.071       46.860       22.078     2122.532     2195.832      487.447        0.576        0.240       81.918       17.950        0.048      344.821       21.912      859.749
07/21/2013  06:57:00      -54.086      -60.253        6.337       43.264       32.948       20.732     1871.801     1085.578      429.803        0.499        0.169       80.967       20.352        0.063      344.804       21.883      859.750
07/21/2013  06:58:00      -35.535      -37.296       -1.386       24.007       21.696       17.865      576.314      470.720      319.171        0.201        0.068       51.514       16.716        0.105      344.890       22.030      859.742
07/21/2013  06:59:00      -28.774      -19.461        8.307       24.262       18.669       11.981      588.647      348.543      143.544        0.118        0.054       34.737       13.907        0.160      344.993       22.207      859.747
07/21/2013  07:00:00      -34.949      -22.486        7.029       17.361       17.026       13.896      301.406      289.891      193.104        0.128        0.039       41.558       10.114        0.059      344.901       22.049      859.743
07/21/2013  07:01:00      -51.453      -26.947       -5.205       12.650       13.060        8.891      160.012      170.565       79.053        0.191        0.020       58.083        4.943        0.007      344.990       22.203      859.748
07/21/2013  07:02:00      -29.887      -21.705       -2.989       13.727       14.530        9.165      188.436      211.118       83.992        0.093        0.024       36.937        3.816        0.011      344.990       22.202      859.749
07/21/2013  07:03:00       -9.930       -5.910        7.928        8.190        8.613       12.447       67.078       74.188      154.939        0.025        0.015       11.556        8.256        0.510      345.350       22.817      859.754
07/21/2013  07:04:00      -18.403       -6.817       -2.561        8.561       11.820        6.159       73.291      139.724       37.937        0.032        0.013       19.625        5.956        0.092      345.047       22.300      859.751
07/21/2013  07:05:00      -44.376      -34.107       -8.304       11.636       14.754        9.865      135.403      217.682       97.308        0.183        0.023       55.969        7.669        0.019      345.076       22.348      859.758
07/21/2013  07:06:00      -38.132      -26.369       -2.562       13.517       16.923        7.656      182.717      286.389       58.617        0.134        0.026       46.362        7.457        0.026      345.097       22.386      859.763
07/21/2013  07:07:00      -20.593      -24.547        2.092       14.909       17.196       12.126      222.291      295.714      147.043        0.085        0.033       32.041       11.614        0.131      345.149       22.475      859.764
07/21/2013  07:08:00      -25.638      -19.582       -0.648       19.729       14.369       12.331      389.229      206.472      152.044        0.089        0.037       32.261       13.022        0.163      345.196       22.554      859.762
07/21/2013  07:09:00      -22.184       -4.244        0.893       14.116       10.910       10.185      199.274      119.030      103.735        0.047        0.021       22.586        8.247        0.133      345.211       22.580      859.764
07/21/2013  07:10:00      -47.559      -25.203       -4.323        9.439       11.906        6.732       89.086      141.765       45.315        0.160        0.014       53.824        4.515        0.007      345.128       22.437      859.774
07/21/2013  07:11:00      -44.214       -7.766        0.755       11.534       10.875        8.609      133.024      118.262       74.122        0.117        0.016       44.891        7.487        0.028      345.139       22.458      859.779
07/21/2013  07:12:00      -20.930       -2.107        8.313       13.568       15.230       11.791      184.101      231.955      139.031        0.053        0.028       21.036        9.422        0.201      345.533       23.132      859.775
07/21/2013  07:13:00      -16.589        0.173        6.464       14.519       10.673       12.032      210.806      113.904      144.775        0.039        0.023       16.590        8.370        0.255      345.569       23.193      859.780
07/21/2013  07:14:00      -13.483       -4.483        4.383       11.697        9.562       14.562      136.808       91.440      212.059        0.033        0.022       14.209        7.991        0.316      345.592       23.233      859.783
07/21/2013  07:15:00      -12.025       10.581        5.955       10.938       16.625       15.788      119.634      276.390      249.249        0.047        0.032       16.017        8.936        0.311      345.480       23.041      859.782
07/21/2013  07:16:00       -4.344      -11.436        6.796       17.258       11.749       14.298      297.830      138.031      204.440        0.042        0.032       12.233        7.524        0.378      345.605       23.255      859.785
07/21/2013  07:17:00       -4.444       -4.858       18.370       12.416       12.155       17.825      154.165      147.750      317.726        0.050        0.031        6.584        9.950        2.284      346.138       24.170      859.792
07/21/2013  07:18:00        1.135       -2.884       15.669       15.306       12.457       10.044      234.265      155.166      100.884        0.037        0.025        3.099        5.784        3.483      345.843       23.663      859.797
07/21/2013  07:19:00       14.131       -6.976       11.098       15.994       20.142       12.693      255.807      405.680      161.116        0.060        0.041       15.759        7.653        0.236      345.664       23.357      859.803
07/21/2013  07:20:00       -2.855       -3.338       14.095       14.398       18.591       11.236      207.307      345.623      126.244        0.045        0.034        4.392        9.806        4.984      345.703       23.423      859.811
07/21/2013  07:21:00       41.725       34.609       17.496       23.832       24.193       16.143      567.980      585.279      260.608        0.233        0.071       54.210       10.569        0.038      345.549       23.158      859.812
07/21/2013  07:22:00       44.925       28.198        6.475       17.054       20.995       16.740      290.830      440.779      280.224        0.193        0.051       53.042       11.917        0.050      345.376       22.862      859.814
07/21/2013  07:23:00       64.215       50.373        6.229       19.881       23.297       20.735      395.268      542.766      429.961        0.403        0.068       81.615       12.053        0.022      345.614       23.270      859.806
07/21/2013  07:24:00       50.242       35.306       36.989       23.832       19.272       12.909      567.956      371.425      166.642        0.312        0.055       61.406        8.330        0.018      345.735       23.479      859.802
07/21/2013  07:25:00       13.701       18.493       30.556       30.585       29.940       23.283      935.431      896.407      542.119        0.192        0.119       23.016       19.973        0.753      345.985       23.907      859.799
07/21/2013  07:26:00       18.149       26.699       38.749       27.000       25.464       14.426      729.025      648.411      208.111        0.206        0.079       32.284        9.088        0.079      345.918       23.792      859.803
07/21/2013  07:27:00       19.559       29.518       36.939       25.290       19.080       18.857      639.577      364.054      355.577        0.199        0.068       35.410       17.664        0.249      345.773       23.542      859.819
07/21/2013  07:28:00       19.175       21.678       34.217       23.438       17.630       18.671      549.324      310.828      348.609        0.161        0.060       28.941       14.768        0.260      345.889       23.741      859.836
07/21/2013  07:29:00       74.380       32.466       23.027       44.347       28.632       27.879     1966.687      819.785      777.235        0.534        0.178       81.157       18.443        0.052      345.725       23.460      859.854
07/21/2013  07:30:00       99.333       54.904       11.979       33.380       40.041       24.575     1114.192     1603.270      603.928        0.817        0.166      113.497       15.803        0.019      345.613       23.269      859.864
07/21/2013  07:31:00      120.538       78.576       12.363       31.139       28.017       23.880      969.642      784.958      570.238        1.159        0.116      143.887       16.714        0.013      345.523       23.114      859.874
07/21/2013  07:32:00      111.241       70.427        1.596       26.265       27.537       20.705      689.833      758.295      428.709        0.961        0.094      131.660       14.395        0.012      345.563       23.182      859.886
07/21/2013  07:33:00       93.654       51.999       11.720       43.224       31.363       29.661     1868.350      983.655      879.772        0.767        0.187      107.122        6.299        0.003      345.670       23.367      859.897
07/21/2013  07:34:00       88.213       59.142       18.282       26.857       27.385       23.568      721.302      749.929      555.429        0.682        0.101      106.204       15.524        0.021      345.608       23.260      859.901
07/21/2013  07:35:00       96.653       71.245       13.287       29.587       23.225       24.485      875.413      539.394      599.527        0.830        0.101      120.073       14.026        0.014      345.667       23.362      859.912
07/21/2013  07:36:00       87.825       68.385       20.239       42.912       29.644       30.883     1841.425      878.755      953.784        0.824        0.184      111.309       28.603        0.066      345.711       23.436      859.928
07/21/2013  07:37:00      106.525       60.276       -0.769       31.156       27.558       26.680      970.671      759.420      711.842        0.871        0.122      122.396       22.202        0.033      345.659       23.348      859.934
07/21/2013  07:38:00       67.557       42.063       15.567       41.509       31.731       28.535     1722.997     1006.856      814.219        0.506        0.177       79.581       13.199        0.028      345.899       23.761      859.932
07/21/2013  07:39:00       85.612       61.479       12.539       37.389       20.856       19.640     1397.916      434.957      385.729        0.674        0.111      105.399       15.002        0.020      345.831       23.642      859.941
07/21/2013  07:40:00       76.423       66.845       41.741       31.719       29.271       25.184     1006.105      856.813      634.246        0.727        0.125      101.532       11.959        0.014      345.746       23.497      859.944
07/21/2013  07:41:00       39.509       36.295       19.024       26.865       19.783       17.319      721.732      391.361      299.942        0.233        0.071       53.650       11.449        0.046      345.766       23.532      859.942
07/21/2013  07:42:00       34.886       27.692       34.286       24.199       26.009       16.047      585.574      676.480      257.510        0.234        0.076       44.541       11.148        0.063      346.078       24.067      859.936
07/21/2013  07:43:00       58.785       41.160       35.168       27.523       25.160       18.146      757.500      633.008      329.281        0.405        0.086       71.762        7.210        0.010      345.942       23.831      859.937
07/21/2013  07:44:00       69.640       56.920       38.638       28.855       22.003       22.600      832.628      484.136      510.767        0.570        0.091       89.942       19.890        0.049      345.763       23.527      859.930
07/21/2013  07:45:00       55.346       43.034       31.944       23.110       22.922       23.213      534.061      525.423      538.854        0.377        0.080       70.108       15.075        0.046      345.837       23.654      859.936
07/21/2013  07:46:00       13.802       22.972       35.789       24.554       18.252       17.043      602.902      333.146      290.458        0.161        0.061       26.800       14.098        0.277      346.370       24.567      859.952
07/21/2013  07:47:00       11.469        0.388       30.244       18.064       31.306       15.627      326.297      980.095      244.218        0.130        0.078       11.476       16.108        1.970      346.430       24.672      859.970
07/21/2013  07:48:00       12.897       13.314       30.224       22.084       25.031       21.280      487.702      626.571      452.845        0.141        0.078       18.537       15.308        0.682      346.371       24.570      859.988
07/21/2013  07:49:00       27.757       14.536       39.323       40.016       27.010       18.580     1601.319      729.540      345.221        0.260        0.134       31.333       11.818        0.142      346.352       24.538      860.003
07/21/2013  07:50:00       24.756       16.920       23.106       25.872       32.912       19.625      669.376     1083.199      385.153        0.178        0.107       29.986        9.310        0.096      346.460       24.725      860.011
07/21/2013  07:51:00       -7.747      -11.461       14.420       16.513       31.474       16.452      272.666      990.643      270.655        0.097        0.077       13.834        6.579        0.226      346.373       24.575      860.015
07/21/2013  07:52:00       34.489       16.749       32.898       30.903       27.420       23.083      954.971      751.831      532.823        0.240        0.112       38.341       11.718        0.093      346.393       24.607      860.028
07/21/2013  07:53:00       16.167       14.431       23.958       23.071       26.602       13.940      532.249      707.643      194.334        0.124        0.072       21.671        7.667        0.125      346.509       24.808      860.035
07/21/2013  07:54:00        6.493       -4.084       38.154       14.503       16.261       12.571      210.341      264.416      158.023        0.107        0.032        7.671        4.201        0.300      346.939       25.547      860.038
07/21/2013  07:55:00       14.630        5.720       24.397       18.616       24.709       15.620      346.566      610.557      244.000        0.102        0.060       15.708       11.173        0.506      346.569       24.911      860.049
07/21/2013  07:56:00       25.710      -24.356       14.077       26.360       28.908       28.523      694.850      835.686      813.566        0.190        0.117       35.415       21.363        0.364      346.414       24.646      860.052
07/21/2013  07:57:00       11.362      -24.638       21.150       22.657       33.773       19.579      513.342     1140.639      383.356        0.161        0.102       27.132       16.834        0.385      346.285       24.423      860.059
07/21/2013  07:58:00       21.734        7.447       23.597       15.857       25.179       17.084      251.439      633.963      291.864        0.113        0.059       22.974        6.415        0.078      346.253       24.368      860.066
07/21/2013  07:59:00       54.130       30.745        9.780       32.873       22.873       24.589     1080.619      523.172      604.606        0.309        0.110       62.252       15.831        0.065      346.323       24.489      860.068
07/21/2013  08:00:00       33.369       26.518        1.056       27.448       26.592       22.006      753.387      707.150      484.254        0.188        0.097       42.623       12.962        0.092      346.408       24.635      860.071
07/21/2013  08:01:00       80.550       44.498        6.740       24.976       18.760       19.695      623.800      351.951      387.888        0.494        0.068       92.024       13.131        0.020      346.252       24.366      860.074
07/21/2013  08:02:00       48.975       36.533        3.655       23.196       20.686       18.933      538.047      427.892      358.446        0.254        0.066       61.100       11.343        0.034      346.269       24.396      860.082
07/21/2013  08:03:00       46.830       45.195       28.183       18.614       14.816       19.578      346.469      219.500      383.288        0.299        0.047       65.082       15.339        0.056      346.238       24.341      860.093
07/21/2013  08:04:00        7.303        8.061       16.024       34.220       31.441       17.619     1171.016      988.562      310.437        0.142        0.124       10.877        7.702        0.501      346.332       24.504      860.106
07/21/2013  08:05:00       -1.816      -25.394       23.569       31.638       45.832       31.369     1000.959     2100.596      984.012        0.264        0.204       25.459       27.559        1.172      346.306       24.458      860.110
07/21/2013  08:06:00       26.270      -19.842       19.652       23.240       25.810       22.124      540.103      666.154      489.463        0.158        0.085       32.921       11.320        0.118      346.337       24.511      860.115
07/21/2013  08:07:00       11.390        6.911       26.864       17.912       20.223       16.238      320.830      408.954      263.678        0.095        0.050       13.323        9.849        0.546      346.679       25.101      860.111
07/21/2013  08:08:00       27.118       12.206       15.588       20.731       20.942       22.385      429.792      438.567      501.100        0.125        0.068       29.738        9.300        0.098      346.667       25.080      860.122
07/21/2013  08:09:00       22.591        5.204        4.923       12.163        9.883       11.247      147.934       97.683      126.484        0.047        0.019       23.183        5.913        0.065      346.678       25.097      860.119
07/21/2013  08:10:00       -6.964       -6.924       23.599       14.109       10.087       12.723      199.058      101.749      161.876        0.056        0.023        9.820        8.692        0.783      347.689       26.843      860.119
07/21/2013  08:11:00      -41.520        1.706       -6.138       12.905       14.178        9.618      166.532      201.025       92.507        0.111        0.023       41.555        7.816        0.035      346.369       24.566      860.117
07/21/2013  08:12:00      -64.425      -22.998       -4.320       20.791       18.888       11.530      432.280      356.770      132.937        0.281        0.046       68.407        2.859        0.002      346.340       24.517      860.114
07/21/2013  08:13:00      -63.531      -29.905        1.401       27.594       26.296       13.787      761.423      691.474      190.082        0.329        0.082       70.217       11.556        0.027      346.417       24.651      860.101
07/21/2013  08:14:00      -82.168      -41.179       -3.860       14.108       11.708       11.434      199.025      137.086      130.745        0.446        0.023       91.909        9.228        0.010      346.366       24.560      860.097
07/21/2013  08:15:00      -49.862      -31.325       -0.909       12.801       10.380        6.688      163.877      107.754       44.734        0.189        0.016       58.885        6.684        0.013      346.428       24.668      860.085
07/21/2013  08:16:00      -43.730      -29.509       -9.911       10.972       10.063        8.024      120.382      101.271       64.379        0.158        0.014       52.755        7.782        0.022      346.452       24.709      860.071
07/21/2013  08:17:00      -37.753       -7.680       -1.199        9.503       12.985       10.026       90.308      168.599      100.522        0.092        0.018       38.526        8.056        0.044      346.509       24.811      860.062
07/21/2013  08:18:00      -43.112        0.120       -6.600       26.815       16.935       22.708      719.033      286.788      515.636        0.171        0.076       43.112        9.459        0.048      346.413       24.644      860.059
07/21/2013  08:19:00      -20.384       -0.245       13.368       20.549       15.109       15.049      422.281      228.269      226.485        0.074        0.044       20.385       13.632        0.447      346.911       25.500      860.051
07/21/2013  08:20:00       36.561        1.370       17.825       21.699       26.428       25.272      470.844      698.452      638.693        0.173        0.090       36.587       19.785        0.292      346.941       25.552      860.048
07/21/2013  08:21:00       39.652      -33.051        9.242       27.160       23.530       22.103      737.669      553.667      488.522        0.226        0.089       51.620        9.791        0.036      346.557       24.890      860.055
07/21/2013  08:22:00       12.035      -17.316       24.102       20.910       18.904       17.018      437.226      357.379      289.620        0.105        0.054       21.088       14.984        0.505      347.380       26.308      860.060
07/21/2013  08:23:00       23.964      -18.888        5.918       19.700       25.652       26.265      388.087      658.020      689.831        0.135        0.087       30.513        8.416        0.076      346.918       25.512      860.065
07/21/2013  08:24:00       -6.044      -19.784        8.854       20.353       16.309       22.920      414.253      265.991      525.341        0.086        0.060       20.687       13.458        0.423      346.839       25.376      860.072
07/21/2013  08:25:00       -3.521       -3.139       30.707        9.544       12.657       10.759       91.090      160.208      115.766        0.067        0.018        4.717        6.287        1.777      347.918       27.237      860.077
07/21/2013  08:26:00       33.736        0.854       13.616       28.307       35.349       25.728      801.262     1249.563      661.950        0.202        0.136       33.747       14.815        0.193      346.959       25.583      860.080
07/21/2013  08:27:00       63.608       57.227       16.943       26.478       22.018       27.187      701.093      484.773      739.158        0.477        0.096       85.562       14.088        0.027      346.873       25.433      860.077
07/21/2013  08:28:00       16.333       20.286       11.440       15.248       17.010       17.188      232.507      289.342      295.427        0.081        0.041       26.044        9.828        0.142      347.261       26.103      860.077
07/21/2013  08:29:00       50.506       49.698       45.966       44.742       32.528       25.807     2001.809     1058.045      666.025        0.543        0.186       70.857       11.893        0.028      347.114       25.849      860.077
07/21/2013  08:30:00       46.621       54.213       42.075       29.338       24.629       24.410      860.724      606.593      595.845        0.447        0.103       71.502       16.912        0.056      346.972       25.604      860.085
07/21/2013  08:31:00       42.393       14.116       35.733       24.496       29.931       18.835      600.041      895.894      354.760        0.256        0.093       44.681       11.299        0.064      347.123       25.865      860.092
07/21/2013  08:32:00       30.995       17.511       25.292       29.585       40.937       24.285      875.290     1675.847      589.763        0.252        0.157       35.600       14.368        0.163      347.166       25.939      860.105
07/21/2013  08:33:00       42.715        9.094       27.989       42.433       50.004       20.366     1800.550     2500.366      414.764        0.370        0.236       43.673       15.524        0.126      347.145       25.903      860.125
07/21/2013  08:34:00       53.460       45.568       17.161       30.789       32.773       32.961      947.963     1074.082     1086.445        0.417        0.155       70.246       22.069        0.099      347.064       25.762      860.139
07/21/2013  08:35:00       81.112       79.908       31.975       25.877       24.144       24.056      669.638      582.930      578.671        0.791        0.092      113.861       13.723        0.015      346.831       25.360      860.136
07/21/2013  08:36:00        2.938       21.807       40.574       24.068       30.180       25.863      579.289      910.824      668.885        0.214        0.108       22.004       18.650        0.718      347.338       26.235      860.138
07/21/2013  08:37:00       41.773       18.540       43.777       44.903       67.013       32.385     2016.300     4490.789     1048.778        0.578        0.378       45.703       23.851        0.272      347.173       25.950      860.137
07/21/2013  08:38:00       43.691       47.289       38.135       37.969       32.774       31.032     1441.657     1074.150      963.012        0.454        0.174       64.383       17.544        0.074      347.229       26.047      860.145
07/21/2013  08:39:00       24.759       17.844       37.272       32.009       27.698       23.182     1024.544      767.196      537.401        0.232        0.116       30.519       12.076        0.157      347.371       26.292      860.163
07/21/2013  08:40:00      108.679       77.629       28.899       48.225       30.177       30.703     2325.671      910.654      942.662        1.142        0.209      133.557       20.351        0.023      346.966       25.595      860.172
07/21/2013  08:41:00       95.867       54.959       13.500       40.329       35.506       30.609     1626.399     1260.667      936.938        0.811        0.191      110.503       10.759        0.009      347.176       25.956      860.178
07/21/2013  08:42:00       86.798       68.736       50.590       42.963       34.093       32.042     1845.832     1162.313     1026.658        0.943        0.202      110.718       23.332        0.044      347.288       26.148      860.174
07/21/2013  08:43:00       11.424       44.970       50.729       21.436       35.637       17.536      459.484     1270.000      307.501        0.338        0.102       46.399       12.649        0.074      347.666       26.800      860.174
07/21/2013  08:44:00       13.371        1.260       37.521       36.850       45.779       24.175     1357.952     2095.706      584.407        0.281        0.202       13.430       17.106        1.622      347.419       26.375      860.174
07/21/2013  08:45:00       35.057       34.451       37.478       42.678       40.224       29.595     1821.433     1617.966      875.866        0.407        0.216       49.151       20.287        0.170      347.704       26.867      860.173
07/21/2013  08:46:00       31.047        7.356       21.764       34.671       34.349       23.299     1202.056     1179.853      542.850        0.221        0.146       31.906       18.501        0.336      347.669       26.807      860.177
07/21/2013  08:47:00       20.574       17.456       36.059       28.236       40.890       23.642      797.277     1672.026      558.949        0.253        0.151       26.981       18.196        0.455      347.722       26.897      860.171
07/21/2013  08:48:00       41.002       24.406       18.276       33.685       42.177       34.912     1134.660     1778.888     1218.874        0.337        0.207       47.716       23.124        0.235      347.586       26.664      860.171
07/21/2013  08:49:00       95.109       69.180       27.276       65.682       37.306       42.298     4314.169     1391.771     1789.132        1.103        0.375      117.607       34.628        0.087      347.485       26.488      860.166
07/21/2013  08:50:00      105.052       87.175       24.636       29.086       31.496       29.563      845.982      991.986      873.961        1.098        0.136      136.512       19.761        0.021      347.400       26.341      860.164
07/21/2013  08:51:00       86.584       64.100       16.266       39.640       21.375       34.239     1571.329      456.890     1172.327        0.753        0.160      107.729       16.374        0.023      347.518       26.546      860.170
07/21/2013  08:52:00       69.583       63.841       30.292       25.787       18.423       30.380      664.986      339.418      922.968        0.588        0.096       94.432       13.481        0.020      347.453       26.434      860.166
07/21/2013  08:53:00       26.090        6.289       45.313       30.351       21.050       18.604      921.194      443.120      346.113        0.224        0.086       26.838       15.309        0.325      347.694       26.849      860.165
07/21/2013  08:54:00       48.966       41.749       28.307       34.293       22.454       20.911     1176.009      504.172      437.254        0.353        0.106       64.348       18.740        0.085      347.418       26.373      860.165
07/21/2013  08:55:00       39.535       57.537       15.360       48.504       38.714       32.848     2352.614     1498.812     1078.981        0.502        0.247       69.811       23.265        0.111      347.903       27.211      860.150
07/21/2013  08:56:00       32.594       24.411       19.568       35.180       35.424       25.768     1237.667     1254.864      664.013        0.260        0.158       40.721       20.391        0.251      348.204       27.730      860.149
07/21/2013  08:57:00       31.189       15.721       27.782       38.911       24.720       23.325     1514.037      611.079      544.067        0.233        0.133       34.928       22.284        0.407      348.389       28.051      860.145
07/21/2013  08:58:00       75.784       58.339        5.282       36.896       37.479       24.500     1361.299     1404.684      600.262        0.627        0.168       95.638       19.565        0.042      347.972       27.328      860.143
07/21/2013  08:59:00       85.015       48.238       17.840       53.541       45.246       25.292     2866.598     2047.242      639.666        0.771        0.278       97.747       16.781        0.029      347.939       27.271      860.141
07/21/2013  09:00:00       67.901       71.202        3.318       21.915       32.570       27.605      480.288     1060.776      762.025        0.600        0.115       98.388       18.365        0.035      347.716       26.887      860.135
07/21/2013  09:01:00       13.363       50.303      -19.618       39.496       25.377       21.122     1559.950      643.976      446.143        0.287        0.133       52.047       12.655        0.059      347.702       26.862      860.137
07/21/2013  09:02:00       29.662       25.574       26.889       43.439       22.010       22.668     1886.905      484.430      513.842        0.257        0.144       39.164       12.020        0.094      348.062       27.484      860.130
07/21/2013  09:03:00       17.205       19.005       11.365       32.955       25.119       17.849     1086.053      630.958      318.589        0.141        0.102       25.636       10.605        0.171      348.323       27.934      860.124
07/21/2013  09:04:00        9.591      -23.152       -1.943       31.450       27.955       25.327      989.111      781.485      641.477        0.152        0.121       25.060       14.045        0.314      347.913       27.228      860.119
07/21/2013  09:05:00       26.713      -12.028       17.595       15.485       19.406       22.802      239.781      376.596      519.910        0.115        0.057       29.296       16.167        0.305      347.820       27.068      860.115
07/21/2013  09:06:00        9.768       19.196       39.739       18.014       19.283       17.469      324.511      371.853      305.156        0.152        0.050       21.538        9.811        0.208      348.494       28.232      860.110
07/21/2013  09:07:00       18.880       27.330       46.106       39.848       25.444       20.510     1587.834      647.414      420.678        0.294        0.133       33.217       12.178        0.134      348.444       28.147      860.099
07/21/2013  09:08:00       36.392        3.534       18.098       41.738       19.903       19.935     1742.026      396.144      397.398        0.210        0.127       36.563        9.409        0.066      348.451       28.158      860.092
07/21/2013  09:09:00       56.301       34.822       19.710       36.669       25.730       30.229     1344.616      662.043      913.775        0.385        0.146       66.200       25.463        0.148      348.211       27.741      860.082
07/21/2013  09:10:00       19.278       15.831       24.480       34.338       32.177       24.748     1179.131     1035.378      612.459        0.202        0.141       24.946       16.675        0.447      348.546       28.322      860.070
07/21/2013  09:11:00       16.720       -5.221       34.816       40.338       34.406       36.877     1627.126     1183.775     1359.935        0.284        0.209       17.516       26.963        2.369      347.979       27.342      860.060
07/21/2013  09:12:00       62.228       28.507       19.793       20.471       22.068       26.604      419.052      487.006      707.788        0.334        0.081       68.447       16.912        0.061      348.094       27.542      860.062
07/21/2013  09:13:00       -4.452       -2.121       24.754       23.988       17.896       16.378      575.441      320.277      268.252        0.090        0.058        4.932        9.211        3.488      348.920       28.970      860.060
07/21/2013  09:14:00        9.312      -28.536       18.976       26.039       23.874       19.424      678.045      569.977      377.288        0.144        0.081       30.017       11.626        0.150      348.377       28.031      860.059
07/21/2013  09:15:00       16.019       -5.438       27.174       27.822       15.664       19.131      774.055      245.352      366.002        0.120        0.069       16.917       17.653        1.089      349.095       29.273      860.063
07/21/2013  09:16:00       -1.944       -8.270       26.198       22.593       19.782       17.276      510.425      391.309      298.472        0.098        0.060        8.496       13.952        2.697      348.977       29.067      860.067
07/21/2013  09:17:00       18.696      -30.134       22.877       30.417       48.405       34.282      925.168     2343.037     1175.283        0.311        0.222       35.463       27.760        0.613      348.162       27.657      860.065
07/21/2013  09:18:00       40.078        3.375       24.338       37.610       41.266       33.431     1414.517     1702.902     1117.599        0.322        0.212       40.219       26.622        0.438      348.329       27.947      860.069
07/21/2013  09:19:00       24.293      -44.732       22.015       36.583       37.948       33.345     1338.302     1440.081     1111.873        0.348        0.195       50.903       31.089        0.373      348.581       28.383      860.062
07/21/2013  09:20:00       38.628      -18.897       26.544       44.324       62.599       39.393     1964.615     3918.684     1551.817        0.499        0.372       43.002       43.078        1.004      348.310       27.915      860.050
07/21/2013  09:21:00       24.146      -11.133       32.026       26.867       33.155       30.028      721.857     1099.223      901.702        0.223        0.136       26.589       20.995        0.623      348.312       27.916      860.039
07/21/2013  09:22:00       31.010       13.932       27.239       22.071       30.975       22.649      487.111      959.471      512.955        0.193        0.098       33.996       14.329        0.178      348.235       27.784      860.032
07/21/2013  09:23:00        6.446       13.670       27.894       24.969       35.620       25.947      623.472     1268.754      673.263        0.179        0.128       15.114       19.056        1.590      348.884       28.907      860.028
07/21/2013  09:24:00        1.170       35.318        2.939       22.233       30.069       31.020      494.291      904.146      962.270        0.181        0.118       35.338       23.911        0.458      348.619       28.448      860.009
07/21/2013  09:25:00      -12.206       14.428       17.459       25.480       17.238       18.815      649.252      297.156      354.008        0.098        0.065       18.898       11.209        0.352      349.065       29.221      860.001
07/21/2013  09:26:00      -34.381        3.902       22.058       24.149       17.808       22.174      583.171      317.128      491.677        0.154        0.070       34.602       12.482        0.130      348.856       28.859      859.989
07/21/2013  09:27:00      -15.507       10.752       33.759       13.410       31.731       20.621      179.831     1006.830      425.212        0.155        0.081       18.870       13.416        0.506      349.150       29.368      859.985
07/21/2013  09:28:00       34.887       -0.715       28.033       45.388       31.865       38.861     2060.046     1015.403     1510.166        0.329        0.229       34.895       28.420        0.663      348.655       28.510      859.969
07/21/2013  09:29:00       31.392      -25.861       24.215       48.886       56.294       38.142     2389.872     3169.034     1454.836        0.463        0.351       40.672       34.603        0.724      348.702       28.593      859.961
07/21/2013  09:30:00       34.000      -44.006        5.438       45.974       44.189       41.037     2113.610     1952.633     1684.062        0.444        0.288       55.611       30.126        0.293      348.541       28.313      859.951
07/21/2013  09:31:00       27.757      -10.301       27.536       29.845       49.413       35.995      890.744     2441.678     1295.672        0.313        0.231       29.607       27.853        0.885      348.645       28.494      859.941
07/21/2013  09:32:00       34.117        4.206       37.070       44.597       48.224       29.885     1988.892     2325.538      893.117        0.388        0.260       34.375       32.138        0.874      348.784       28.734      859.950
07/21/2013  09:33:00       29.913       -3.443       42.279       47.180       38.808       31.177     2225.926     1506.029      972.004        0.370        0.235       30.110       27.280        0.821      348.662       28.523      859.940
07/21/2013  09:34:00      -40.482       -4.791       11.211       41.179       31.609       24.298     1695.696      999.102      590.411        0.254        0.164       40.765       21.904        0.289      348.756       28.685      859.936
07/21/2013  09:35:00      -35.870      -71.677        6.298       48.436       38.328       24.548     2346.058     1469.039      602.586        0.544        0.221       80.151       19.417        0.059      348.501       28.243      859.926
07/21/2013  09:36:00        1.653      -27.922       10.750       21.170       23.840       21.245      448.161      568.364      451.333        0.118        0.073       27.970       14.446        0.267      349.224       29.497      859.930
07/21/2013  09:37:00       22.848      -51.198       26.696       45.323       63.973       45.826     2054.199     4092.493     2099.978        0.605        0.412       56.065       47.699        0.724      349.182       29.422      859.920
07/21/2013  09:38:00        4.573       -9.448       49.565       30.106       49.709       22.656      906.341     2470.967      513.300        0.323        0.195       10.497       14.719        1.966      349.154       29.372      859.928
07/21/2013  09:39:00        3.736      -15.296       26.578       33.502       46.150       27.759     1122.390     2129.793      770.537        0.249        0.201       15.746       25.889        2.703      348.723       28.628      859.928
07/21/2013  09:40:00       16.777      -54.867       -0.500       32.164       26.459       25.838     1034.509      700.070      667.590        0.285        0.120       57.375       12.254        0.046      348.096       27.541      859.932
07/21/2013  09:41:00       58.446      -36.122        2.178       33.236       34.815       30.059     1104.631     1212.074      903.527        0.397        0.161       68.707       15.849        0.053      348.282       27.864      859.930
07/21/2013  09:42:00       19.837       -0.244       23.504       22.359       26.342       30.797      499.943      693.878      948.477        0.154        0.107       19.838       23.893        1.451      349.074       29.235      859.917
07/21/2013  09:43:00      -27.906       -5.932       -6.317       13.536       14.711       12.114      183.228      216.414      146.758        0.070        0.027       28.529        8.789        0.095      348.608       28.427      859.912
07/21/2013  09:44:00      -25.465      -20.804        2.900       17.048       23.123       11.438      290.629      534.655      130.835        0.102        0.048       32.882       11.328        0.119      348.875       28.893      859.894
07/21/2013  09:45:00      -24.886        3.325       19.475       21.314       15.550       21.285      454.284      241.797      453.039        0.108        0.057       25.108       16.088        0.411      349.419       29.835      859.888
07/21/2013  09:46:00      -14.156      -13.987       14.483       30.187       35.674       28.100      911.269     1272.653      789.586        0.179        0.149       19.900       28.790        2.093      348.886       28.910      859.880
07/21/2013  09:47:00      -64.197      -21.422       -7.810       16.707       24.282       19.311      279.139      589.595      372.915        0.294        0.062       67.677        7.245        0.011      348.636       28.476      859.871
07/21/2013  09:48:00      -24.084       -5.185        9.550       17.825        8.426       15.313      317.735       71.000      234.483        0.066        0.031       24.636       13.702        0.309      349.194       29.446      859.866
07/21/2013  09:49:00        1.361       -9.232       17.150       19.132       16.935       28.150      366.047      286.810      792.433        0.091        0.072        9.332       19.507        4.370      349.673       30.276      859.863
07/21/2013  09:50:00       -6.401        7.248       31.410       22.119       21.102       17.179      489.262      445.275      295.123        0.115        0.061        9.670       11.969        1.532      349.678       30.283      859.846
07/21/2013  09:51:00       -4.711       -7.534       22.676       35.295       33.402       21.571     1245.715     1115.721      465.315        0.171        0.141        8.885        6.364        0.513      349.225       29.498      859.841
07/21/2013  09:52:00        7.501      -23.486        5.188       16.840       30.412       24.262      283.585      924.911      588.621        0.122        0.090       24.654       14.310        0.337      348.842       28.836      859.840
07/21/2013  09:53:00        3.905        4.005       22.548       23.318       41.882       36.473      543.734     1754.083     1330.253        0.208        0.181        5.594       32.690       34.150      349.003       29.113      859.840
07/21/2013  09:54:00      -18.704       -2.165       10.205       25.800       25.369       19.938      665.623      643.571      397.540        0.108        0.085       18.829       15.900        0.713      349.145       29.358      859.840
07/21/2013  09:55:00      -40.029      -25.790       -4.005       32.844       17.265       16.098     1078.721      298.072      259.136        0.196        0.082       47.617       11.622        0.060      349.044       29.183      859.837
07/21/2013  09:56:00       -7.926       -8.585        4.026       24.707       21.891       23.396      610.419      479.198      547.393        0.089        0.082       11.684       13.699        1.375      349.627       30.194      859.841
07/21/2013  09:57:00      -26.651      -14.031       -7.107       36.046       21.943       19.212     1299.281      481.512      369.084        0.155        0.107       30.119       15.685        0.271      349.176       29.411      859.839
07/21/2013  09:58:00      -22.646       -9.809        8.013       37.064       21.939       26.879     1373.763      481.332      722.458        0.162        0.129       24.679       19.294        0.611      349.388       29.780      859.840
07/21/2013  09:59:00      -13.899       10.158       21.420       26.056       19.019       16.318      678.899      361.724      266.276        0.103        0.065       17.216       10.800        0.394      349.869       30.615      859.844
07/21/2013  10:00:00      -17.533       19.708       24.421       18.500       21.848       31.217      342.242      477.320      974.505        0.154        0.090       26.378       14.062        0.284      350.012       30.863      859.851
07/21/2013  10:01:00        3.830        1.367       16.556       44.387       30.630       29.555     1970.198      938.189      873.497        0.204        0.189        4.067       15.609       14.731      349.340       29.697      859.843
07/21/2013  10:02:00       45.146      -44.235        0.787       42.106       36.419       36.893     1772.902     1326.340     1361.124        0.423        0.223       63.205       26.715        0.179      348.832       28.816      859.841
07/21/2013  10:03:00       21.620      -45.603       29.040       32.199       59.254       39.417     1036.779     3511.072     1553.665        0.474        0.305       50.468       37.406        0.549      349.917       30.697      859.836
07/21/2013  10:04:00       43.454        8.275       46.145       48.975       37.876       33.010     2398.568     1434.612     1089.669        0.450        0.246       44.235       33.213        0.564      349.356       29.725      859.837
07/21/2013  10:05:00       23.024      -40.301       21.819       30.868       49.804       25.413      952.856     2480.395      645.810        0.335        0.204       46.414       19.760        0.181      349.592       30.133      859.839
07/21/2013  10:06:00       34.936       26.933       53.864       43.130       45.686       27.720     1860.226     2087.251      768.408        0.478        0.236       44.113       30.397        0.475      349.547       30.056      859.838
07/21/2013  10:07:00       24.685      -47.240        3.449       29.648       59.262       32.082      878.998     3511.929     1029.254        0.414        0.271       53.301       19.421        0.133      349.054       29.202      859.822
07/21/2013  10:08:00      -12.760       20.948       16.828       19.884       23.447       21.724      395.393      549.756      471.923        0.115        0.071       24.528       18.477        0.567      349.913       30.691      859.811
07/21/2013  10:09:00      -41.798       20.221       18.443       23.116       14.115       19.716      534.332      199.234      388.711        0.181        0.056       46.433       15.458        0.111      349.625       30.191      859.803
07/21/2013  10:10:00      -36.340       24.220        6.581       24.762       22.849       23.323      613.149      522.061      543.975        0.181        0.084       43.672       15.278        0.122      349.741       30.392      859.793
07/21/2013  10:11:00      -47.979       24.676       -1.899       38.863       23.013       21.191     1510.297      529.585      449.068        0.270        0.124       53.953       17.979        0.111      349.710       30.339      859.784
07/21/2013  10:12:00      -67.277      -82.478       -0.089       33.833       44.688       20.862     1144.661     1997.041      435.210        0.745        0.179      106.437       11.521        0.012      349.213       29.474      859.782
07/21/2013  10:13:00      -18.295      -28.624       -6.583       23.498       21.856       14.416      552.136      477.674      207.831        0.122        0.062       33.971       12.646        0.139      349.395       29.793      859.778
07/21/2013  10:14:00       21.901      -26.981       12.463       23.435       25.659       16.885      549.218      658.371      285.097        0.143        0.075       34.751       12.519        0.130      349.558       30.074      859.771
07/21/2013  10:15:00      -30.161      -25.924        8.544       36.530       38.132       23.412     1334.445     1454.066      548.114        0.250        0.167       39.771       27.873        0.491      349.508       29.988      859.768
07/21/2013  10:16:00      -41.928       22.370       -1.282       25.725       17.695       25.868      661.785      313.106      669.167        0.195        0.082       47.523       21.528        0.205      349.599       30.146      859.766
07/21/2013  10:17:00      -19.996       10.092       24.635       11.639       17.688       21.331      135.456      312.881      455.023        0.101        0.045       22.399       14.986        0.448      350.304       31.370      859.764
07/21/2013  10:18:00       21.964      -17.610       10.258       37.297       23.397       29.081     1391.052      547.429      845.704        0.184        0.139       28.152       21.613        0.589      349.584       30.121      859.770
07/21/2013  10:19:00       58.553       -5.175        6.422       27.661       35.057       21.498      765.109     1229.013      462.164        0.298        0.123       58.782       11.355        0.037      349.249       29.539      859.761
07/21/2013  10:20:00       47.889      -30.530       14.151       30.433       35.451       29.564      926.174     1256.741      874.023        0.324        0.153       56.793       25.414        0.200      349.527       30.020      859.758
07/21/2013  10:21:00      -10.492      -34.414      -23.929       17.426       23.563       11.663      303.663      555.230      136.024        0.143        0.050       35.978       10.821        0.090      349.563       30.081      859.743
07/21/2013  10:22:00        7.078        2.694       25.487       53.147       45.478       41.334     2824.555     2068.230     1708.529        0.365        0.330        7.573       35.799       22.344      350.182       31.161      859.725
07/21/2013  10:23:00      -13.884      -54.290       -5.316       35.012       40.997       26.179     1225.840     1680.724      685.352        0.338        0.180       56.037       24.339        0.189      349.540       30.043      859.721
07/21/2013  10:24:00        0.356      -26.620        9.357       25.686       23.502       16.626      659.790      552.323      276.422        0.114        0.074       26.623        9.754        0.134      349.934       30.727      859.713
07/21/2013  10:25:00        7.811       -8.223       21.578       20.421       17.364       23.213      417.029      301.514      538.855        0.093        0.063       11.341       11.476        1.024      350.659       31.989      859.699
07/21/2013  10:26:00      -11.446        3.995       17.627       15.164       20.956       16.125      229.943      439.156      260.018        0.069        0.046       12.123        9.113        0.565      350.523       31.751      859.702
07/21/2013  10:27:00       13.054      -12.935       26.509       25.406       39.319       29.296      645.458     1545.971      858.283        0.204        0.152       18.377       19.833        1.165      350.611       31.903      859.699
07/21/2013  10:28:00       29.043       33.241       34.759       37.601       30.232       33.016     1413.846      914.000     1090.068        0.329        0.171       44.141       21.993        0.248      350.292       31.349      859.694
07/21/2013  10:29:00      141.405      105.324       22.579       60.312       49.976       37.661     3637.547     2497.650     1418.388        1.957        0.378      176.319       26.607        0.023      349.920       30.700      859.692
07/21/2013  10:30:00      109.065       95.373       19.731       54.556       36.993       40.658     2976.313     1368.514     1653.058        1.369        0.300      144.883       33.959        0.055      349.876       30.625      859.698
07/21/2013  10:31:00       92.686       60.178        1.283       26.694       31.841       28.818      712.548     1013.875      830.496        0.738        0.128      110.508       14.135        0.016      349.889       30.649      859.701
07/21/2013  10:32:00       53.721       23.315        7.042       32.823       26.004       23.524     1077.330      676.221      553.393        0.289        0.115       58.562       13.306        0.052      349.742       30.392      859.697
07/21/2013  10:33:00       31.620       15.015       10.745       25.061       16.084       27.185      628.052      258.704      739.051        0.148        0.081       35.004       21.141        0.365      349.998       30.840      859.702
07/21/2013  10:34:00       23.073       24.408       12.990       28.493       27.352       17.048      811.862      748.108      290.627        0.157        0.093       33.587       16.176        0.232      350.298       31.360      859.695
07/21/2013  10:35:00       -6.250        4.368       37.960       14.172       13.763        9.011      200.835      189.416       81.196        0.099        0.024        7.625        2.811        0.136      351.408       33.293      859.693
07/21/2013  10:36:00       -2.975        6.902       28.822       17.637       14.022       12.281      311.051      196.617      150.830        0.077        0.033        7.516        7.600        1.023      350.956       32.506      859.693
07/21/2013  10:37:00       -0.425        5.881       36.645       22.132       30.541       16.505      489.836      932.769      272.415        0.154        0.085        5.896        7.575        1.651      350.946       32.488      859.696
07/21/2013  10:38:00       30.659      -62.147       30.223       50.445       42.803       38.674     2544.653     1832.103     1495.646        0.579        0.294       69.298       30.423        0.193      349.886       30.643      859.683
07/21/2013  10:39:00       96.978       17.159        0.442       57.130       67.801       32.612     3263.878     4597.010     1063.554        0.931        0.446       98.485       24.652        0.063      349.970       30.789      859.685
07/21/2013  10:40:00       78.135       57.157       13.761       37.852       29.552       26.453     1432.761      873.295      699.784        0.628        0.150       96.809       17.771        0.034      350.483       31.682      859.689
07/21/2013  10:41:00       22.836       30.621       45.643       38.287       22.732       25.796     1465.929      516.751      665.416        0.309        0.132       38.198       24.775        0.421      350.775       32.189      859.685
07/21/2013  10:42:00       -1.794       -1.795       22.895       37.236       32.585       25.286     1386.527     1061.806      639.380        0.181        0.154        2.538        9.063       12.751      350.366       31.478      859.690
07/21/2013  10:43:00      -48.607      -12.972        3.137       26.574       20.844       16.544      706.202      434.453      273.717        0.198        0.071       50.308       13.436        0.071      350.414       31.562      859.688
07/21/2013  10:44:00      -38.680       -3.483       -2.014       24.799       18.829       19.608      614.992      354.547      384.461        0.143        0.068       38.836       11.514        0.088      350.454       31.631      859.670
07/21/2013  10:45:00      -18.281      -26.649       23.356       30.738       25.715       18.421      944.854      661.274      339.315        0.177        0.097       32.317       19.050        0.347      351.032       32.637      859.667
07/21/2013  10:46:00       -5.526      -16.034       21.744       43.105       33.205       26.721     1858.006     1102.595      713.988        0.222        0.184       16.960       22.713        1.794      350.781       32.201      859.655
07/21/2013  10:47:00      -22.083      -23.336       18.105       29.385       34.200       29.336      863.476     1169.632      860.578        0.213        0.145       32.128       21.788        0.460      350.531       31.766      859.649
07/21/2013  10:48:00       -4.145        4.734       41.136       20.206       34.921       23.373      408.277     1219.471      546.277        0.195        0.109        6.292       16.422        6.812      351.017       32.611      859.635
07/21/2013  10:49:00        6.396        5.536       26.720       33.303       31.185       33.457     1109.109      972.525     1119.393        0.199        0.160        8.459       27.865       10.851      350.695       32.051      859.634
07/21/2013  10:50:00       38.946      -30.052       22.418       70.342       76.434       45.886     4947.982     5842.198     2105.541        0.791        0.645       49.193       47.673        0.939      350.095       31.006      859.614
07/21/2013  10:51:00       30.422      -26.362       31.188       35.936       68.528       39.098     1291.369     4696.068     1528.689        0.505        0.376       40.255       39.615        0.968      350.317       31.392      859.607
07/21/2013  10:52:00       67.069       82.856       36.755       46.978       34.222       36.194     2206.913     1171.146     1310.027        0.870        0.234      106.599       22.614        0.045      350.128       31.064      859.593
07/21/2013  10:53:00       -7.960       26.918        2.734       38.655       33.946       29.162     1494.226     1152.343      850.442        0.215        0.175       28.070       18.857        0.451      350.502       31.715      859.576
07/21/2013  10:54:00       35.710       11.948       21.175       32.866       39.741       27.723     1080.201     1579.359      768.573        0.265        0.171       37.655       17.362        0.213      350.691       32.044      859.566
07/21/2013  10:55:00       19.920       -7.503       20.318       30.440       24.995       32.642      926.619      624.773     1065.529        0.174        0.131       21.286       21.183        0.990      350.749       32.145      859.544
07/21/2013  10:56:00       -0.913      -22.236       25.377       47.319       43.745       42.280     2239.134     1913.628     1787.574        0.354        0.297       22.255       27.531        1.530      350.691       32.042      859.527
07/21/2013  10:57:00       46.291      -93.511       -0.527       38.672       53.936       37.089     1495.517     2909.092     1375.597        0.833        0.289      104.341       33.800        0.105      350.600       31.883      859.521
07/21/2013  10:58:00       -2.958      -14.825       23.178       26.956       29.435       19.999      726.618      866.440      399.954        0.138        0.100       15.118       18.914        1.565      351.242       33.004      859.512
07/21/2013  10:59:00      -32.130        9.840       29.317       31.503       30.898       21.044      992.444      954.671      442.850        0.219        0.119       33.603       17.063        0.258      351.153       32.850      859.502
07/21/2013  11:00:00       24.853      -50.446       18.066       36.899       47.409       32.149     1361.525     2247.593     1033.527        0.406        0.232       56.236       32.374        0.331      351.005       32.590      859.491
07/21/2013  11:01:00       -3.291      -24.599       21.901       26.116       51.468       27.713      682.065     2648.997      768.006        0.260        0.205       24.818       20.349        0.672      351.070       32.703      859.483
07/21/2013  11:02:00       70.263       73.571       62.128       46.425       33.985       25.852     2155.240     1154.987      668.319        0.909        0.199      101.733       12.462        0.015      350.622       31.923      859.469
07/21/2013  11:03:00      101.007       60.139       19.556       26.991       24.841       32.985      728.520      617.055     1088.000        0.832        0.122      117.555       16.180        0.019      350.366       31.479      859.463
07/21/2013  11:04:00       47.244       30.011       15.189       58.202       51.870       19.839     3387.476     2690.474      393.579        0.492        0.324       55.970       22.560        0.162      350.839       32.300      859.456
07/21/2013  11:05:00      -37.129       -2.442       22.747       37.550       17.005       22.587     1409.977      289.168      510.167        0.206        0.110       37.209       25.762        0.479      351.108       32.770      859.440
07/21/2013  11:06:00       63.469       61.489       34.314       53.743       25.289       23.651     2888.291      639.509      559.350        0.654        0.204       88.370       18.400        0.043      350.654       31.978      859.426
07/21/2013  11:07:00        8.577       68.197       10.511       43.172       50.446       41.047     1863.826     2544.788     1684.832        0.546        0.305       68.734       35.883        0.273      351.441       33.350      859.412
07/21/2013  11:08:00       26.815       72.574        6.347       55.075       35.308       28.304     3033.245     1246.631      801.143        0.555        0.254       77.370        4.860        0.004      351.281       33.071      859.411
07/21/2013  11:09:00       27.406       -3.922       -7.992       46.008       72.189       33.490     2116.746     5211.318     1121.565        0.464        0.422       27.685       21.952        0.629      350.912       32.428      859.404
07/21/2013  11:10:00       72.874       53.195       -8.111       51.274       44.291       33.116     2629.064     1961.676     1096.674        0.695        0.284       90.224       21.226        0.055      351.029       32.631      859.383
07/21/2013  11:11:00        4.721       15.259       33.368       34.829       21.045       22.300     1213.082      442.909      497.302        0.176        0.108       15.973       13.748        0.741      351.869       34.098      859.379
07/21/2013  11:12:00       15.452       62.645        4.700       30.350       42.746       28.310      921.119     1827.203      801.466        0.387        0.177       64.523       29.177        0.204      351.622       33.667      859.369
07/21/2013  11:13:00       14.366        0.425       23.709       25.629       16.458       21.535      656.840      270.876      463.764        0.108        0.070       14.372       14.269        0.986      352.189       34.657      859.359
07/21/2013  11:14:00       38.261       18.727       27.811       33.744       21.101       23.731     1138.687      445.238      563.166        0.237        0.107       42.598       18.831        0.195      351.650       33.716      859.353
07/21/2013  11:15:00       16.303       23.947       48.430       26.204       29.850       17.086      686.641      890.996      291.931        0.253        0.093       28.970       14.947        0.266      351.799       33.975      859.343
07/21/2013  11:16:00       21.921       13.433       32.571       44.804       39.128       23.735     2007.358     1530.985      563.331        0.291        0.205       25.710       15.116        0.346      351.554       33.549      859.341
07/21/2013  11:17:00      127.903       67.909       15.046       39.667       27.913       36.894     1573.476      779.138     1361.157        1.245        0.186      144.813       10.995        0.006      350.660       31.990      859.318
07/21/2013  11:18:00       22.632       20.222       10.166       21.197       36.194       26.270      449.320     1310.031      690.133        0.174        0.122       30.351       13.173        0.188      351.335       33.165      859.315
07/21/2013  11:19:00       43.828      -37.052       28.215       30.873       37.789       29.154      953.137     1427.984      849.955        0.366        0.162       57.391       25.415        0.196      350.915       32.434      859.310
07/21/2013  11:20:00       26.353       22.183       22.376       36.681       42.565       27.506     1345.512     1811.810      756.596        0.280        0.196       34.446        9.655        0.079      350.783       32.204      859.301
07/21/2013  11:21:00       -7.399       88.925        7.225       32.830       62.219       32.932     1077.802     3871.151     1084.536        0.702        0.302       89.232       32.639        0.134      351.491       33.438      859.300
07/21/2013  11:22:00      -20.389       79.730       15.684       35.865       52.185       35.748     1286.317     2723.279     1277.943        0.615        0.264       82.295       33.931        0.170      351.636       33.691      859.305
07/21/2013  11:23:00       -8.836       28.784       24.120       25.724       35.139       27.125      661.708     1234.766      735.771        0.206        0.132       30.110       22.588        0.563      352.028       34.376      859.302
07/21/2013  11:24:00      -20.789        8.549       21.585       29.937       11.783       24.847      896.205      138.843      617.358        0.131        0.083       22.478       22.798        1.029      351.789       33.957      859.309
07/21/2013  11:25:00        6.202       -5.894       27.835       21.244       18.280       19.744      451.310      334.171      389.838        0.101        0.059        8.556       13.547        2.507      352.007       34.339      859.302
07/21/2013  11:26:00       15.308        1.801       29.655       27.533       19.558       27.749      758.068      382.527      769.993        0.151        0.096       15.414       21.835        2.007      351.280       33.071      859.303
07/21/2013  11:27:00       41.472      -10.171       -9.038       43.485       52.603       27.045     1890.983     2767.098      731.407        0.365        0.269       42.701       19.471        0.208      350.676       32.017      859.287
07/21/2013  11:28:00       46.804      -38.080       35.209       57.694       75.187       46.856     3328.635     5653.089     2195.440        0.803        0.559       60.338       38.356        0.404      351.312       33.125      859.269
07/21/2013  11:29:00       39.377      -45.322       24.583       53.828       93.634       46.021     2897.421     8767.345     2117.961        0.899        0.689       60.038       62.190        1.073      351.538       33.520      859.274
07/21/2013  11:30:00       51.494      -90.730        0.028       37.004       34.256       28.057     1369.317     1173.482      787.177        0.711        0.166      104.324       20.145        0.037      351.071       32.702      859.277
07/21/2013  11:31:00       26.075     -125.873       -0.289       36.599       49.003       35.912     1339.502     2401.320     1289.659        1.078        0.252      128.546       26.292        0.042      351.425       33.321      859.259
07/21/2013  11:32:00       77.767     -116.373        7.584       55.348       60.254       40.254     3063.370     3630.579     1620.351        1.398        0.416      139.966       26.430        0.036      351.206       32.941      859.264
07/21/2013  11:33:00       -5.894      -84.369       17.005       41.388       60.819       39.971     1712.926     3698.908     1597.711        0.722        0.350       84.575       35.162        0.173      351.546       33.534      859.266
07/21/2013  11:34:00       16.398       17.599       58.389       31.528       35.657       22.604      993.983     1271.444      510.937        0.338        0.139       24.055       15.817        0.432      351.735       33.865      859.261
07/21/2013  11:35:00      116.775       42.848       43.475       62.161       47.401       40.963     3863.968     2246.898     1677.949        1.257        0.389      124.388       28.072        0.051      351.371       33.228      859.267
07/21/2013  11:36:00       73.136       77.332       42.826       44.830       28.008       35.689     2009.762      784.446     1273.718        0.861        0.203      106.438       28.669        0.073      351.082       32.724      859.266
07/21/2013  11:37:00       41.879       18.491       23.713       28.286       33.083       30.412      800.084     1094.512      924.885        0.274        0.141       45.780       21.919        0.229      350.812       32.255      859.262
07/21/2013  11:38:00       25.654        7.391       24.480       26.813       44.618       27.059      718.922     1990.778      732.182        0.238        0.172       26.698       21.650        0.658      350.995       32.572      859.241
07/21/2013  11:39:00       26.638        9.448       36.696       33.782       36.187       24.206     1141.233     1309.464      585.941        0.259        0.152       28.264       23.038        0.664      351.034       32.640      859.231
07/21/2013  11:40:00       14.255       -1.720       28.486       27.258       26.442       32.644      742.973      699.172     1065.601        0.176        0.125       14.359       10.873        0.573      351.390       33.262      859.218
07/21/2013  11:41:00       10.236       -3.957       32.865       24.098       22.980       16.707      580.715      528.076      279.129        0.129        0.069       10.974       12.764        1.353      352.062       34.435      859.204
07/21/2013  11:42:00       25.860       11.739       35.019       41.157       32.635       30.363     1693.904     1065.015      921.928        0.286        0.184       28.400       29.200        1.057      351.858       34.080      859.194
07/21/2013  11:43:00       33.748      -33.179       31.256       39.486       53.271       27.850     1559.157     2837.788      775.615        0.419        0.259       47.327       24.976        0.278      351.548       33.538      859.191
07/21/2013  11:44:00       38.652       10.315       20.183       33.910       56.971       32.109     1149.857     3245.658     1031.004        0.372        0.271       40.004        9.046        0.051      351.476       33.411      859.181
07/21/2013  11:45:00        2.710      -86.326       -8.501       58.860       59.924       24.824     3464.457     3590.876      616.228        0.760        0.384       86.368       22.270        0.066      351.666       33.741      859.173
07/21/2013  11:46:00       60.237     -150.739      -14.519       67.665       64.477       44.280     4578.618     4157.338     1960.760        1.863        0.535      162.329       36.225        0.050      351.860       34.079      859.149
07/21/2013  11:47:00       88.218      -81.887       16.296       83.418       72.904       62.058     6958.544     5314.923     3851.161        1.544        0.806      120.366       52.223        0.188      351.966       34.266      859.135
07/21/2013  11:48:00       76.421      -65.997       47.168       66.000      114.571       60.949     4355.945    13126.501     3714.814        1.680        1.060      100.974       66.325        0.431      351.598       33.623      859.122
07/21/2013  11:49:00       78.727      -78.972       21.548       63.788      120.074       48.358     4068.919    14417.663     2338.535        1.686        1.041      111.510       54.741        0.241      351.825       34.020      859.103
07/21/2013  11:50:00       76.961        6.460       31.224       81.979       62.412       48.522     6720.555     3895.291     2354.401        0.995        0.649       77.232       39.793        0.265      351.691       33.786      859.091
07/21/2013  11:51:00       74.165      -34.446       43.576       81.031      116.048       59.502     6566.082    13467.033     3540.497        1.607        1.179       81.774       61.641        0.568      351.455       33.373      859.073
07/21/2013  11:52:00       78.972      -10.040       34.050       69.864       89.975       72.690     4880.945     8095.520     5283.800        1.287        0.913       79.608       67.369        0.716      351.681       33.767      859.070
07/21/2013  11:53:00       84.281      -25.268       32.414       61.818      106.409       61.942     3821.470    11322.785     3836.766        1.388        0.949       87.987       56.257        0.409      351.406       33.288      859.053
07/21/2013  11:54:00       52.506       16.761       62.035       54.606       74.680       40.182     2981.801     5577.077     1614.573        0.853        0.509       55.117       34.267        0.387      352.095       34.490      859.047
07/21/2013  11:55:00       -4.039        2.436       15.922       46.931       29.463       27.376     2202.512      868.087      749.459        0.205        0.191        4.717       21.112       20.033      351.908       34.166      859.049
07/21/2013  11:56:00       18.326      -86.181        5.007       42.526       39.297       27.759     1808.439     1544.280      770.584        0.595        0.206       88.108       20.550        0.054      351.696       33.795      859.037
07/21/2013  11:57:00      -39.764       -4.800       33.459       45.608       52.521       36.067     2080.085     2758.449     1300.837        0.443        0.307       40.053       35.792        0.799      352.096       34.491      859.028
07/21/2013  11:58:00        7.556      -55.204       19.948       45.646       74.884       38.231     2083.564     5607.671     1461.620        0.633        0.458       55.719       35.296        0.401      352.255       34.772      859.018
07/21/2013  11:59:00       66.522     -105.622       19.614       81.648      103.936       58.906     6666.398    10802.783     3469.864        1.845        1.047      124.824       68.796        0.304      352.236       34.736      858.995
07/21/2013  12:00:00       37.203       -5.941       47.251       84.135       50.922       48.425     7078.721     2593.038     2344.945        0.783        0.601       37.675       37.211        0.976      352.078       34.461      858.998
07/21/2013  12:01:00       11.056        0.733       70.441       63.956       65.989       48.644     4090.319     4354.542     2366.278        0.795        0.541       11.081       29.071        6.883      352.501       35.201      858.984
07/21/2013  12:02:00       47.428      -23.505       60.643       59.932      101.713       61.176     3591.786    10345.487     3742.501        1.208        0.884       52.933       65.767        1.544      352.122       34.538      858.978
07/21/2013  12:03:00       24.708     -101.805       -0.736       52.598       68.785       27.642     2766.565     4731.312      764.054        0.962        0.413      104.760       36.934        0.124      352.028       34.375      858.984
07/21/2013  12:04:00       -3.992      -61.077      -11.577       45.604       52.559       36.094     2079.685     2762.439     1302.794        0.501        0.307       61.207       22.295        0.133      352.034       34.385      858.957
07/21/2013  12:05:00      -17.759       17.149        5.920       33.010       31.455       33.471     1089.688      989.418     1120.316        0.192        0.160       24.687       20.189        0.669      352.120       34.537      858.962
07/21/2013  12:06:00       52.055        9.484       58.070       67.677      101.160       52.278     4580.181    10233.293     2733.011        1.186        0.877       52.912       65.431        1.529      351.905       34.159      858.953
07/21/2013  12:07:00      110.083       78.012       25.797       53.180       68.203       51.394     2828.143     4651.683     2641.391        1.449        0.506      134.923       34.255        0.064      352.174       34.629      858.928
07/21/2013  12:08:00      148.151       67.047       34.075       98.989       67.212       50.650     9798.885     4517.473     2565.440        2.224        0.844      162.616       42.769        0.069      352.644       35.450      858.918
07/21/2013  12:09:00      122.020       76.834       19.375       59.444       49.019       53.475     3533.634     2402.833     2859.618        1.498        0.440      144.196       43.880        0.093      352.156       34.598      858.929
07/21/2013  12:10:00      154.198      132.518       33.493       92.395       63.574       46.017     8536.857     4041.710     2117.532        2.857        0.735      203.317       35.057        0.030      352.291       34.832      858.900
07/21/2013  12:11:00      134.403       97.084        7.927       81.012       66.136       38.919     6562.936     4373.918     1514.708        2.000        0.623      165.799       24.680        0.022      352.120       34.533      858.901
07/21/2013  12:12:00       62.040      -50.216       20.351       52.665       68.002       57.733     2773.568     4624.233     3333.097        0.876        0.537       79.816       47.456        0.354      351.928       34.200      858.894
07/21/2013  12:13:00       30.558      -45.071       57.073       53.487       71.554       44.075     2860.837     5119.909     1942.566        0.807        0.496       54.453       33.260        0.373      352.197       34.670      858.865
07/21/2013  12:14:00       25.034     -154.646        5.316       41.387       83.843       41.021     1712.921     7029.567     1682.745        1.750        0.521      156.660       35.112        0.050      352.095       34.491      858.866
07/21/2013  12:15:00       37.463      -80.628       25.981       54.773       87.336       48.770     3000.067     7627.572     2378.515        1.079        0.650       88.906       50.791        0.326      352.032       34.382      858.850
07/21/2013  12:16:00       85.359        1.540       40.213       78.466       53.896       45.224     6156.848     2904.757     2045.170        1.000        0.555       85.373       50.202        0.346      351.942       34.223      858.827
07/21/2013  12:17:00       79.330        8.795       58.109       59.718       67.023       59.479     3566.214     4492.032     3537.766        1.067        0.580       79.816       52.142        0.427      351.576       33.586      858.823
07/21/2013  12:18:00        6.741      -46.204       12.027       51.010       63.165       40.251     2601.981     3989.839     1620.129        0.527        0.411       46.693       37.209        0.635      351.964       34.263      858.826
07/21/2013  12:19:00       37.149      -61.622        2.091       37.533       41.318       40.454     1408.711     1707.186     1636.527        0.497        0.238       71.953       20.740        0.083      351.844       34.054      858.810
07/21/2013  12:20:00      -56.565      -56.497       -6.641       33.970       43.901       22.218     1153.975     1927.284      493.655        0.500        0.179       79.947       12.726        0.025      352.220       34.708      858.805
07/21/2013  12:21:00       18.964        7.734       11.652       24.212       41.202       27.895      586.207     1697.632      778.133        0.181        0.153       20.481       23.145        1.277      352.204       34.684      858.803
07/21/2013  12:22:00       62.672      -13.137       10.506       52.606       54.003       34.410     2767.428     2916.337     1184.033        0.554        0.343       64.034       19.041        0.088      352.018       34.356      858.787
07/21/2013  12:23:00       33.229       39.204       47.624       46.549       53.344       46.787     2166.770     2845.591     2189.036        0.605        0.360       51.391       33.032        0.413      352.346       34.931      858.785
07/21/2013  12:24:00      104.228       51.514        0.773       36.570       30.942       35.362     1337.331      957.428     1250.489        0.853        0.177      116.264       15.463        0.018      352.065       34.437      858.782
07/21/2013  12:25:00       14.945       74.115       -0.087       43.954       48.988       25.522     1931.938     2399.859      651.362        0.535        0.249       75.607       25.489        0.114      352.184       34.648      858.785
07/21/2013  12:26:00       -8.388       63.902        3.496       23.659       63.930       25.641      559.727     4086.984      657.458        0.473        0.265       64.450       28.001        0.189      352.879       35.865      858.783
07/21/2013  12:27:00       27.394       29.659       14.066       29.879       27.678       34.344      892.744      766.082     1179.499        0.233        0.142       40.374       23.276        0.332      352.809       35.742      858.801
07/21/2013  12:28:00       62.285       30.107       22.695       34.643       31.250       26.331     1200.106      976.533      693.323        0.408        0.143       69.180       17.236        0.062      352.070       34.450      858.793
07/21/2013  12:29:00       35.264       55.787       17.272       61.418       42.209       31.492     3772.212     1781.637      991.719        0.560        0.327       65.998       22.924        0.121      352.213       34.699      858.788
07/21/2013  12:30:00       13.270       53.029       18.564       54.134       45.737       28.312     2930.534     2091.908      801.553        0.458        0.291       54.664       17.188        0.099      352.382       34.992      858.769
07/21/2013  12:31:00       68.601       63.391       32.693       75.733       46.862       45.082     5735.541     2196.053     2032.347        0.988        0.498       93.406       21.070        0.051      352.706       35.561      858.758
07/21/2013  12:32:00      150.111       83.550       14.388       72.467       51.238       46.364     5251.466     2625.382     2149.586        1.987        0.501      171.796       37.475        0.048      352.365       34.963      858.748
07/21/2013  12:33:00        0.026      103.518       -4.233       83.609       66.570       38.053     6990.466     4431.579     1448.066        1.180        0.644      103.518       39.890        0.148      352.716       35.576      858.746
07/21/2013  12:34:00     -132.300      265.950      -27.188       58.187       66.243       44.063     3385.669     4388.156     1941.504        4.934        0.486      297.040       35.975        0.015      352.453       35.110      858.744
07/21/2013  12:35:00      -14.177      114.967        6.845       50.416       91.601       44.386     2541.814     8390.799     1970.112        1.318        0.645      115.838       53.051        0.210      353.094       36.240      858.745
07/21/2013  12:36:00     -116.133      201.384      -41.220      105.490       89.762       38.965    11128.141     8057.174     1518.243        3.822        1.035      232.470       40.291        0.030      352.379       34.986      858.735
07/21/2013  12:37:00      -52.872       93.332       -5.717       53.991       64.696       43.925     2915.010     4185.532     1929.436        1.028        0.451      107.267       47.089        0.193      352.869       35.846      858.747
07/21/2013  12:38:00       59.593       -5.804        6.089       44.191       73.085       47.258     1952.860     5341.360     2233.334        0.657        0.476       59.875       31.497        0.277      352.573       35.327      858.755
07/21/2013  12:39:00       40.845       19.430       57.241       40.988       41.422       31.549     1680.035     1715.808      995.316        0.486        0.220       45.231       25.595        0.320      352.137       34.565      858.743
07/21/2013  12:40:00       -2.212      -29.147       30.838       33.110       45.280       32.783     1096.285     2050.281     1074.714        0.301        0.211       29.231       29.251        1.001      352.088       34.479      858.713
07/21/2013  12:41:00       -2.425      -20.824      -14.346       41.168       48.860       32.850     1694.793     2387.335     1079.105        0.290        0.258       20.965       29.850        2.027      351.559       33.554      858.691
07/21/2013  12:42:00       41.975       -3.274       10.620       56.071       64.053       44.367     3143.967     4102.783     1968.424        0.555        0.461       42.103       33.536        0.634      352.048       34.410      858.685
07/21/2013  12:43:00       61.229      -10.181       17.133       32.840       49.647       31.785     1078.481     2464.805     1010.269        0.435        0.228       62.070       29.147        0.221      351.525       33.497      858.701
07/21/2013  12:44:00       37.200       22.399       70.024       44.393       48.586       36.063     1970.765     2360.552     1300.540        0.621        0.282       43.423       26.854        0.382      351.878       34.112      858.701
07/21/2013  12:45:00      168.621      145.933       36.634       93.031       83.705       85.772     8654.754     7006.471     7356.819        3.704        1.151      223.001       30.859        0.019      352.534       35.254      858.673
07/21/2013  12:46:00      141.013      135.316       18.889       89.946       75.205       70.054     8090.195     5655.800     4907.531        2.860        0.933      195.435       60.133        0.095      352.761       35.653      858.680
07/21/2013  12:47:00      189.535      118.115        8.033       67.227       40.965       47.680     4519.404     1678.093     2273.375        2.920        0.424      223.327       29.632        0.018      352.502       35.199      858.680
07/21/2013  12:48:00      139.567      107.030       28.757       44.413       29.709       41.061     1972.491      882.616     1685.995        1.815        0.227      175.882       23.071        0.017      352.309       34.863      858.664
07/21/2013  12:49:00       67.819      154.575      -11.842       60.599       87.839       56.897     3672.252     7715.640     3237.269        2.163        0.731      168.798       48.597        0.083      352.656       35.471      858.669
07/21/2013  12:50:00      133.220      106.259        9.925       39.975       37.884       41.652     1597.989     1435.180     1734.878        1.695        0.238      170.407       27.335        0.026      352.357       34.950      858.656
07/21/2013  12:51:00       97.451       95.632       10.202       48.368       50.652       44.698     2339.465     2565.648     1997.943        1.282        0.345      136.537       30.071        0.049      352.449       35.112      858.650
07/21/2013  12:52:00      -91.326      138.366      -19.128       91.040       91.520       39.853     8288.370     8375.829     1588.269        2.305        0.913      165.788       54.493        0.108      352.595       35.365      858.663
07/21/2013  12:53:00      -78.826      189.567       -8.449       60.525       83.940       47.803     3663.328     7045.907     2285.122        2.760        0.650      205.302       48.482        0.056      352.725       35.589      858.668
07/21/2013  12:54:00      -47.479      103.952        6.665       68.947       98.178       47.898     4753.704     9638.859     2294.199        1.489        0.834      114.282       60.273        0.278      352.920       35.933      858.665
07/21/2013  12:55:00       70.059       90.243       11.150       54.364       47.696       36.890     2955.497     2274.878     1360.883        0.988        0.330      114.246       28.422        0.062      352.675       35.507      858.639
07/21/2013  12:56:00       24.498       19.062       14.712       33.431       53.774       30.044     1117.615     2891.627      902.624        0.304        0.246       31.041       25.236        0.661      352.947       35.983      858.626
07/21/2013  12:57:00       43.096       17.568       -2.179       25.211       58.973       38.814      635.599     3477.800     1506.559        0.389        0.281       46.540       38.349        0.679      352.560       35.305      858.606
07/21/2013  12:58:00       14.141       19.878       38.396       29.839       36.412       21.964      890.355     1325.804      482.428        0.238        0.135       24.394       19.499        0.639      352.401       35.026      858.592
07/21/2013  12:59:00       44.394      144.833        4.963       52.487      102.998       48.921     2754.928    10608.595     2393.312        1.936        0.788      151.485       53.788        0.126      352.506       35.210      858.597
07/21/2013  13:00:00       15.618      250.048      -27.529       36.293       63.201       43.723     1317.179     3994.323     1911.716        3.537        0.361      250.536       37.151        0.022      352.608       35.384      858.583
07/21/2013  13:01:00      -11.327      171.785      -10.610       33.598       50.592       32.492     1128.859     2559.598     1055.742        1.725        0.237      172.158       28.408        0.027      352.677       35.508      858.580
07/21/2013  13:02:00       26.486      157.021       -9.724       50.803       48.580       33.676     2580.983     2359.980     1134.045        1.576        0.304      159.239       23.312        0.021      352.713       35.572      858.557
07/21/2013  13:03:00       45.525       75.514        4.589      101.084       53.663       39.865    10217.906     2879.675     1589.221        1.124        0.734       88.175       29.549        0.112      352.833       35.783      858.537
07/21/2013  13:04:00     -150.694      -35.313      -16.673       65.845       73.525       29.771     4335.569     5405.865      886.332        1.743        0.531      154.776       18.065        0.014      352.612       35.395      858.515
07/21/2013  13:05:00      -65.890      -13.175       22.512       62.015       69.268       41.269     3845.831     4798.096     1703.137        0.768        0.517       67.194       36.675        0.298      352.909       35.917      858.488
07/21/2013  13:06:00       -8.092      -27.933       25.968       41.630       40.209       32.574     1733.094     1616.727     1061.088        0.296        0.221       29.082       29.990        1.063      352.549       35.284      858.507
07/21/2013  13:07:00       22.440       23.431       55.509       36.345       28.369       21.405     1320.982      804.798      458.190        0.336        0.129       32.443       14.997        0.214      352.378       34.987      858.494
07/21/2013  13:08:00       29.500       27.915       21.462       33.733       27.717       22.875     1137.927      768.229      523.280        0.227        0.121       40.614       23.612        0.338      352.648       35.459      858.498
07/21/2013  13:09:00       21.219       21.958       11.003       41.308       27.561       22.908     1706.370      759.604      524.799        0.202        0.150       30.536       13.122        0.185      352.845       35.804      858.499
07/21/2013  13:10:00       95.582       37.270        4.696       52.916       39.667       43.569     2800.081     1573.463     1898.216        0.841        0.314      102.592       19.086        0.035      352.378       34.987      858.485
07/21/2013  13:11:00       16.429       64.573        1.514       48.430       47.781       39.531     2345.498     2282.999     1562.664        0.532        0.310       66.630       28.609        0.184      352.918       35.933      858.480
07/21/2013  13:12:00      -49.614        3.955      -11.168       27.786       30.984       24.046      772.069      959.995      578.234        0.246        0.116       49.772       21.185        0.181      352.632       35.431      858.473
07/21/2013  13:13:00      -71.565       23.303        0.437       18.267       26.478       14.989      333.685      701.087      224.676        0.346        0.063       75.263        6.762        0.008      352.532       35.254      858.474
07/21/2013  13:14:00      -59.221       -7.654       -0.044       28.719       20.430       16.800      824.757      417.368      282.239        0.254        0.076       59.714       10.378        0.030      352.748       35.634      858.474
07/21/2013  13:15:00      -40.687      -20.479       15.051       48.745       43.576       29.249     2376.045     1898.886      855.485        0.371        0.257       45.550       29.871        0.430      353.018       36.105      858.463
07/21/2013  13:16:00      -21.725      -28.040       30.141       81.769       46.895       38.667     6686.204     2199.133     1495.161        0.627        0.519       35.471       36.405        1.053      353.219       36.459      858.446
07/21/2013  13:17:00      -84.832       -0.120        7.439       65.797       68.814       39.309     4329.254     4735.393     1545.159        0.893        0.530       84.832       31.175        0.135      353.122       36.287      858.452
07/21/2013  13:18:00     -133.348       29.361       -1.294       75.477       50.434       41.117     5696.705     2543.578     1690.622        1.429        0.497      136.543       39.233        0.083      352.988       36.053      858.456
07/21/2013  13:19:00      -92.416      103.698        1.866       73.542       77.333       41.820     5408.370     5980.331     1748.879        1.621        0.657      138.903       49.682        0.128      352.999       36.073      858.472
07/21/2013  13:20:00      -85.756       63.621       -5.962       69.150       56.354       41.361     4781.759     3175.810     1710.759        1.055        0.483      106.779       45.092        0.178      353.128       36.299      858.503
07/21/2013  13:21:00      -46.003       68.392        0.224       52.356       61.222       34.041     2741.116     3748.109     1158.795        0.722        0.382       82.425       33.882        0.169      353.115       36.276      858.541
07/21/2013  13:22:00     -160.072      239.258      -45.320      175.996      181.783       66.768    30974.507    33044.883     4457.914        7.669        3.424      287.867       73.297        0.065      352.918       35.927      858.514
07/21/2013  13:23:00      127.164      148.479        3.804       83.947       79.242       67.177     7047.027     6279.265     4512.700        2.803        0.892      195.491       59.824        0.094      353.169       36.368      858.499
07/21/2013  13:24:00       -4.544      275.186      -20.009      139.117      158.279       64.101    19353.522    25052.246     4108.952        6.232        2.426      275.223       76.007        0.076      353.119       36.281      858.495
07/21/2013  13:25:00      -41.195      137.321       -2.004       76.140       64.984       44.309     5797.262     4222.941     1963.265        1.627        0.599      143.367       36.971        0.067      353.249       36.511      858.498
07/21/2013  13:26:00      -91.768      102.605       -6.504       68.480       47.874       47.527     4689.461     2291.960     2258.769        1.411        0.462      137.656       35.714        0.067      353.173       36.377      858.478
07/21/2013  13:27:00     -108.452      155.534      -26.709       60.072       63.840       38.969     3608.639     4075.556     1518.612        2.293        0.460      189.612       39.430        0.043      352.893       35.886      858.480
07/21/2013  13:28:00      -98.186       60.341        5.203      114.200       75.333       52.485    13041.744     5675.102     2754.689        1.739        1.074      115.245       66.976        0.338      353.258       36.527      858.443
07/21/2013  13:29:00     -148.614      219.080      -29.994       63.605      142.242       37.581     4045.637    20232.774     1412.355        4.833        1.285      264.731       36.459        0.019      352.688       35.525      858.464
07/21/2013  13:30:00      -40.623      268.750      -27.404       88.689       96.605       41.757     7865.653     9332.431     1743.643        4.678        0.947      271.802       42.118        0.024      352.827       35.769      858.470
07/21/2013  13:31:00       11.070      328.608      -42.845       63.995       95.020       62.572     4095.386     9028.830     3915.248        6.349        0.852      328.795       54.237        0.027      352.766       35.660      858.451
07/21/2013  13:32:00      -40.839      197.205      -19.241       42.683       89.555       32.928     1821.805     8020.054     1084.251        2.592        0.546      201.389       34.997        0.030      352.882       35.863      858.439
07/21/2013  13:33:00      -54.425      181.199        7.450      111.184      137.827       75.018    12361.803    18996.358     5627.730        3.641        1.849      189.196       66.835        0.125      353.034       36.132      858.387
07/21/2013  13:34:00     -262.785       34.139      -33.666      150.936      127.534       74.585    22781.538    16264.879     5562.945        5.797        2.230      264.993       75.158        0.080      352.982       36.041      858.362
07/21/2013  13:35:00     -180.879      286.305      -51.794       79.282      135.955       69.488     6285.623    18483.637     4828.587        7.348        1.480      338.656       62.988        0.035      353.000       36.070      858.388
07/21/2013  13:36:00     -205.970      315.101      -41.969      121.788      116.541       66.377    14832.277    13581.891     4405.888        8.814        1.641      376.447       68.612        0.033      353.295       36.587      858.382
07/21/2013  13:37:00        3.730      199.319      -12.382      110.176      142.766       82.142    12138.852    20382.182     6747.251        3.957        1.963      199.354       72.890        0.134      353.278       36.560      858.390
07/21/2013  13:38:00      -38.442      171.973      -16.041       97.454       91.280       46.227     9497.249     8331.980     2136.977        2.563        0.998      176.217       49.149        0.078      353.264       36.534      858.386
07/21/2013  13:39:00     -124.482      101.394      -11.460       95.160       61.409       46.595     9055.459     3771.048     2171.082        2.045        0.750      160.550       42.583        0.070      353.392       36.760      858.404
07/21/2013  13:40:00     -178.058       99.572      -22.936      102.564       98.112       63.777    10519.288     9626.002     4067.479        3.317        1.211      204.008       62.139        0.093      353.303       36.602      858.399
07/21/2013  13:41:00     -142.481      128.924       -7.185       96.386      106.592       62.540     9290.195    11361.757     3911.209        3.076        1.228      192.151       39.903        0.043      353.266       36.538      858.413
07/21/2013  13:42:00     -190.669      204.068      -28.824       96.345      132.469       58.518     9282.307    17548.130     3424.385        5.454        1.513      279.282       35.965        0.017      353.130       36.299      858.412
07/21/2013  13:43:00      -84.328      122.998        3.678       74.772       72.717       47.461     5590.809     5287.727     2252.562        1.769        0.657      149.130       46.427        0.097      353.383       36.745      858.419
07/21/2013  13:44:00      -29.919      190.222      -12.903       51.703       86.766       50.978     2673.212     7528.258     2598.802        2.502        0.640      192.561       51.689        0.072      353.031       36.128      858.394
07/21/2013  13:45:00      -79.646      114.739      -13.173       57.607       90.528       41.856     3318.527     8195.292     1751.893        1.647        0.663      139.673       50.849        0.133      353.218       36.456      858.396
07/21/2013  13:46:00      -14.042      113.790        9.268       50.526       86.239       51.961     2552.865     7437.115     2699.980        1.296        0.634      114.653       44.268        0.149      353.287       36.577      858.375
07/21/2013  13:47:00      -92.599      130.734        3.437       73.558       96.265       48.312     5410.835     9266.865     2334.090        2.134        0.851      160.206       41.410        0.067      353.262       36.533      858.357
07/21/2013  13:48:00     -145.913      217.558      -25.478       75.589       76.329       53.698     5713.772     5826.152     2883.486        4.184        0.721      261.958       51.555        0.039      353.047       36.153      858.351
07/21/2013  13:49:00      -97.625      224.533      -25.456       46.978       92.467       41.955     2206.928     8550.086     1760.243        3.655        0.626      244.838       42.605        0.030      352.811       35.741      858.347
07/21/2013  13:50:00      -76.214       90.548      -23.633       32.467       78.677       21.678     1054.099     6190.113      469.955        1.114        0.386      118.353       18.580        0.025      352.825       35.769      858.338
07/21/2013  13:51:00      -13.423       56.882        0.476       61.687       76.865       33.818     3805.273     5908.285     1143.625        0.713        0.543       58.444       21.078        0.130      352.990       36.056      858.307
07/21/2013  13:52:00       57.089       43.700       48.382       71.073       64.053       55.339     5051.319     4102.771     3062.364        0.986        0.611       71.895       47.101        0.429      352.706       35.560      858.282
07/21/2013  13:53:00       94.060       21.328       30.015       69.909       48.032       46.656     4887.234     2307.051     2176.803        0.979        0.469       96.448       38.461        0.159      352.715       35.575      858.271
07/21/2013  13:54:00      118.246       85.393       23.217       54.201       63.972       55.338     2937.780     4092.422     3062.314        1.595        0.505      145.856       41.864        0.082      352.368       34.967      858.257
07/21/2013  13:55:00      110.445       98.075       39.945       86.485       68.750       55.873     7479.656     4726.586     3121.808        1.937        0.766      147.705       46.532        0.099      352.517       35.228      858.236
07/21/2013  13:56:00       29.902      116.965       14.889       50.884       89.276       51.223     2589.214     7970.134     2623.840        1.399        0.659      120.727       53.836        0.199      352.894       35.888      858.229
07/21/2013  13:57:00       39.606      187.234      -23.922       59.517       89.193       51.716     3542.325     7955.340     2674.534        2.568        0.709      191.377       49.522        0.067      353.141       36.321      858.233
07/21/2013  13:58:00       -0.693      143.515       -7.547       39.152       80.674       34.423     1532.895     6508.371     1184.960        1.494        0.461      143.517       28.115        0.038      353.003       36.079      858.237
07/21/2013  13:59:00        3.271       86.618       -1.116       90.434       57.794       42.043     8178.367     3340.150     1767.633        1.040        0.664       86.679       36.186        0.174      353.289       36.582      858.220
07/21/2013  14:00:00      125.190       92.837       15.921       73.633       48.270       47.358     5421.840     2330.001     2242.827        1.727        0.500      155.856       24.296        0.024      353.067       36.189      858.205
07/21/2013  14:01:00       -4.190      134.484       -5.764       49.782       65.242       42.812     2478.211     4256.513     1832.872        1.335        0.428      134.549       35.607        0.070      352.944       35.977      858.196
07/21/2013  14:02:00       -8.669       30.613       18.892       28.623       44.631       24.996      819.287     1991.931      624.804        0.240        0.172       31.817       24.554        0.596      353.536       37.016      858.180
07/21/2013  14:03:00       -1.030       -6.129       28.457       16.078       17.965       11.945      258.490      322.756      142.676        0.079        0.036        6.215        8.555        1.895      353.802       37.482      858.152
07/21/2013  14:04:00        2.982      -26.073        4.693       12.804       35.472       25.239      163.942     1258.250      636.990        0.138        0.103       26.243       11.528        0.193      353.092       36.236      858.127
07/21/2013  14:05:00       27.787       -3.819       29.540       45.641       29.813       23.518     2083.141      888.841      553.103        0.259        0.176       28.048       19.637        0.490      352.480       35.165      858.097
07/21/2013  14:06:00        9.236       12.519       32.646       45.629       37.453       28.952     2081.972     1402.707      838.206        0.281        0.216       15.557       25.489        2.684      352.540       35.271      858.061
07/21/2013  14:07:00       -3.935       -2.529       21.126       35.097       56.204       23.271     1231.766     3158.879      541.520        0.270        0.247        4.678       10.074        4.638      352.622       35.414      858.048
07/21/2013  14:08:00       18.623       12.563       28.183       46.415       30.157       27.209     2154.307      909.472      740.356        0.255        0.190       22.464       14.118        0.395      352.469       35.147      858.038
07/21/2013  14:09:00       34.890       35.530       32.324       44.373       38.047       31.632     1968.978     1447.595     1000.598        0.397        0.221       49.797       13.590        0.074      352.534       35.259      858.029
07/21/2013  14:10:00       65.361       36.611       28.943       57.447       57.126       38.388     3300.124     3263.339     1473.615        0.724        0.402       74.916       36.870        0.242      352.620       35.410      858.017
07/21/2013  14:11:00       30.020       24.236       18.016       23.995       31.099       22.795      575.749      967.124      519.602        0.194        0.103       38.582       13.109        0.115      352.661       35.482      858.013
07/21/2013  14:12:00       90.069       55.041       32.549       73.182       67.929       40.235     5355.553     4614.346     1618.840        1.189        0.579      105.556       35.232        0.111      352.441       35.095      858.007
07/21/2013  14:13:00       93.088       34.138        5.183       76.152       79.655       28.429     5799.158     6344.900      808.194        1.140        0.648       99.150       24.118        0.059      352.752       35.638      857.999
07/21/2013  14:14:00      139.056       91.453       24.039       78.102       65.229       58.449     6099.849     4254.762     3416.342        2.102        0.689      166.434       37.569        0.051      353.108       36.264      857.995
07/21/2013  14:15:00       94.886       99.319       14.751       73.076       49.574       33.787     5340.136     2457.607     1141.548        1.401        0.447      137.360       29.563        0.046      352.981       36.040      858.014
07/21/2013  14:16:00      -10.158      132.193       -6.329      115.467       78.398       56.263    13332.525     6146.248     3165.513        2.013        1.132      132.582       54.008        0.166      353.331       36.654      857.995
07/21/2013  14:17:00      -81.148       69.761       17.653       94.304      102.017       51.494     8893.202    10407.442     2651.670        1.685        1.098      107.012       44.474        0.173      353.768       37.420      857.996
07/21/2013  14:18:00     -118.394       17.489       -2.441      111.126      113.643       63.533    12348.925    12914.839     4036.459        2.181        1.465      119.678       50.570        0.179      353.402       36.778      857.977
07/21/2013  14:19:00      -80.069      126.244       -7.631      118.799      121.288       59.483    14113.310    14710.674     3538.260        2.738        1.618      149.495       56.777        0.144      353.487       36.926      857.982
07/21/2013  14:20:00     -112.177      138.777       -3.477       88.710      109.691       44.337     7869.419    12032.044     1965.739        2.686        1.093      178.445       39.319        0.049      353.349       36.684      857.970
07/21/2013  14:21:00      -67.596      205.337      -20.657       92.824       85.983       47.590     8616.246     7393.044     2264.779        3.271        0.914      216.177       44.157        0.042      353.111       36.265      857.971
07/21/2013  14:22:00       68.421       81.150       -1.046       50.524       65.099       46.455     2552.701     4237.910     2158.085        1.011        0.447      106.145       43.198        0.166      353.171       36.374      857.952
07/21/2013  14:23:00     -129.919       22.146       -5.683       82.999       62.973       41.819     6888.855     3965.565     1748.809        1.500        0.630      131.793       35.352        0.072      353.485       36.924      857.946
07/21/2013  14:24:00      -76.601      -34.923       14.737       92.167       71.120       48.824     8494.721     5058.099     2383.783        1.162        0.797       84.186       46.320        0.303      353.420       36.810      857.929
07/21/2013  14:25:00      -62.700       62.815       15.097       66.550       46.430       34.443     4428.921     2155.710     1186.337        0.794        0.389       88.753       23.622        0.071      353.448       36.860      857.932
07/21/2013  14:26:00     -141.483      140.924      -30.313       73.528      115.664       52.502     5406.415    13378.178     2756.499        3.116        1.077      199.693       62.404        0.098      353.666       37.240      857.945
07/21/2013  14:27:00     -222.699      126.696      -31.795       84.097       92.389       47.562     7072.278     8535.807     2262.103        4.226        0.894      256.216       44.919        0.031      353.415       36.798      857.952
07/21/2013  14:28:00     -108.905      -14.854       16.877      102.849       96.942       62.828    10577.999     9397.769     3947.297        1.814        1.196      109.913       66.088        0.362      353.605       37.134      857.919
07/21/2013  14:29:00       42.204      292.185      -32.472      100.533      130.508       65.453    10106.962    17032.322     4284.126        5.981        1.571      295.217       62.527        0.045      353.248       36.503      857.941
07/21/2013  14:30:00      -89.488      271.376      -26.135      118.140      100.838       66.225    13956.972    10168.400     4385.816        5.542        1.426      285.750       62.394        0.048      353.388       36.749      857.949
07/21/2013  14:31:00       35.457      167.532      -21.111       89.423      128.100       68.020     7996.474    16409.527     4626.746        2.940        1.452      171.243       58.835        0.118      353.618       37.156      857.939
07/21/2013  14:32:00      -48.652      296.072      -38.346      108.473       98.318       50.012    11766.352     9666.341     2501.236        5.771        1.197      300.043       51.175        0.029      353.101       36.247      857.977
07/21/2013  14:33:00      -55.469      206.288      -18.873       54.248       85.995       39.593     2942.849     7395.138     1567.644        2.894        0.595      213.615       42.120        0.039      353.156       36.344      857.965
07/21/2013  14:34:00      -83.409       90.515      -10.784       44.898       39.991       33.078     2015.832     1599.247     1094.137        0.999        0.235      123.085       31.483        0.065      353.358       36.703      857.926
07/21/2013  14:35:00       -4.579       92.963       12.285       65.481       61.482       38.751     4287.807     3780.027     1501.672        0.919        0.478       93.076       38.284        0.169      353.321       36.637      857.921
07/21/2013  14:36:00       83.970      114.580       20.494       82.504       90.326       69.525     6806.952     8158.859     4833.732        2.020        0.990      142.055       53.111        0.140      353.362       36.707      857.903
07/21/2013  14:37:00       70.915       85.047       12.785       94.942       70.000       59.793     9013.938     4899.969     3575.150        1.495        0.874      110.733       39.512        0.127      353.264       36.537      857.879
07/21/2013  14:38:00      131.700       83.051       11.306       84.674       59.704       44.956     7169.639     3564.608     2021.037        1.856        0.638      155.700       11.849        0.006      353.312       36.621      857.829
07/21/2013  14:39:00      187.995      118.286       41.105      103.077       70.762       50.538    10624.920     5007.265     2554.116        3.460        0.909      222.112       43.360        0.038      353.324       36.638      857.819
07/21/2013  14:40:00      188.734      131.329       19.089       97.796       68.339       61.300     9564.071     4670.163     3757.684        3.561        0.900      229.930       38.109        0.027      353.253       36.514      857.827
07/21/2013  14:41:00      110.829       58.811       62.399       98.207       80.009       56.822     9644.668     6401.386     3228.730        1.945        0.964      125.466       59.671        0.226      352.897       35.894      857.840
07/21/2013  14:42:00      171.745       89.458       21.972       65.773       51.028       37.687     4326.030     2603.892     1420.276        2.316        0.418      193.647       20.284        0.011      352.982       36.043      857.845
07/21/2013  14:43:00       10.330       45.636        6.319       47.794       50.440       36.793     2284.269     2544.199     1353.689        0.420        0.309       46.791       32.405        0.480      353.463       36.887      857.831
07/21/2013  14:44:00       -4.523      238.686      -33.363       54.075       82.641       34.506     2924.129     6829.534     1190.683        3.452        0.547      238.729       27.119        0.013      353.389       36.753      857.827
07/21/2013  14:45:00      -32.815       47.756        3.832      133.609       56.334       43.831    17851.311     3173.522     1921.179        1.315        1.147       57.943       39.973        0.476      353.420       36.811      857.804
07/21/2013  14:46:00      148.481      158.429       44.252      147.457       89.715       67.470    21743.445     8048.745     4552.171        4.172        1.717      217.132       51.434        0.056      353.412       36.796      857.724
07/21/2013  14:47:00       54.996      272.740      -16.979      195.454      144.596       83.574    38202.458    20907.864     6984.681        7.188        3.305      278.229       88.974        0.102      353.575       37.081      857.759
07/21/2013  14:48:00      -20.169      336.858      -35.692      119.072      131.218       68.994    14178.250    17218.242     4760.173        7.565        1.808      337.462       62.006        0.034      353.601       37.125      857.792
07/21/2013  14:49:00       65.939      335.461      -27.531      127.011      173.474       83.942    16131.852    30093.212     7046.205        8.545        2.664      341.881       97.328        0.081      353.608       37.138      857.759
07/21/2013  14:50:00       15.772      351.438      -28.184      103.476      179.313       86.984    10707.332    32153.129     7566.267        8.748        2.521      351.791      101.290        0.083      353.595       37.115      857.766
07/21/2013  14:51:00        4.226      235.625       -5.301       85.637      145.234       69.331     7333.699    21093.053     4806.795        4.439        1.662      235.663       82.415        0.122      353.514       36.971      857.774
07/21/2013  14:52:00       50.234      252.634       -7.928       93.456      186.150       80.853     8734.046    34651.688     6537.161        5.816        2.496      257.579       97.140        0.142      353.448       36.857      857.763
07/21/2013  14:53:00       66.115      235.889       -3.964       81.642      147.741       91.590     6665.372    21827.335     8388.724        4.845        1.844      244.980       96.369        0.155      353.382       36.741      857.755
07/21/2013  14:54:00      -38.503      218.643       -8.724       48.838      123.787       48.124     2385.122    15323.099     2315.966        3.469        1.001      222.007       61.313        0.076      353.494       36.940      857.768
07/21/2013  14:55:00       71.645       70.799        2.974       62.735       48.443       39.778     3935.629     2346.706     1582.287        0.901        0.393      100.725       29.728        0.087      353.628       37.175      857.758
07/21/2013  14:56:00       30.261      152.152        6.103       64.132      106.509       40.082     4112.973    11344.204     1606.541        2.058        0.853      155.132       54.896        0.125      353.367       36.717      857.743
07/21/2013  14:57:00      -72.369      188.955      -18.617       50.365       99.332       35.573     2536.617     9866.829     1265.461        2.748        0.683      202.339       40.320        0.040      353.299       36.597      857.739
07/21/2013  14:58:00     -186.587      114.099      -36.175       77.784       84.598       44.473     6050.285     7156.775     1977.829        3.216        0.759      218.708       42.710        0.038      353.177       36.381      857.708
07/21/2013  14:59:00      -70.825      125.758      -13.683       66.353       76.040       45.700     4402.751     5782.014     2088.536        1.664        0.614      144.330       41.629        0.083      353.244       36.501      857.687
07/21/2013  15:00:00     -180.062       54.204      -22.364       73.619       85.914       45.867     5419.754     7381.157     2103.768        2.538        0.745      188.044       40.407        0.046      353.296       36.591      857.665
07/21/2013  15:01:00     -151.429       63.394      -20.952       80.577       86.510       61.303     6492.619     7484.011     3758.116        2.256        0.887      164.163       53.258        0.105      353.570       37.071      857.643
07/21/2013  15:02:00      -90.008       30.848       -2.266       81.806       84.996       50.251     6692.267     7224.238     2525.152        1.275        0.822       95.148       43.840        0.212      353.521       36.988      857.632
07/21/2013  15:03:00       34.841      316.524      -29.003      137.124      246.050       99.916    18802.878    60540.496     9983.164        9.577        4.466      318.436      124.634        0.153      353.466       36.888      857.662
07/21/2013  15:04:00      171.475      311.978      -25.826      132.667      229.023       90.841    17600.551    52451.341     8252.118       10.284        3.915      355.997      102.386        0.083      353.154       36.339      857.695
07/21/2013  15:05:00      225.959      119.182       32.814      140.850      108.829       76.739    19838.600    11843.848     5888.919        5.195        1.879      255.464       26.679        0.011      353.308       36.611      857.553
07/21/2013  15:06:00       -4.780      144.784        3.780       51.634      107.440       52.283     2666.082    11543.395     2733.471        1.897        0.847      144.863       59.061        0.166      353.507       36.962      857.544
07/21/2013  15:07:00      -82.124       41.604       -1.806      112.377       93.206       44.454    12628.581     8687.318     1976.190        1.588        1.165       92.061       42.430        0.212      353.724       37.344      857.516
07/21/2013  15:08:00     -237.160      -61.427       -1.454       84.304       68.804       39.593     7107.091     4733.929     1567.611        3.671        0.670      244.986       40.931        0.028      353.581       37.090      857.498
07/21/2013  15:09:00      -95.255      -18.942        2.261       98.077       65.278       60.692     9619.034     4261.266     3683.502        1.350        0.878       97.120       71.834        0.547      353.894       37.643      857.484
07/21/2013  15:10:00        0.107      -37.486        9.889       40.987       33.556       35.941     1679.957     1125.989     1291.722        0.280        0.205       37.486       24.221        0.417      353.427       36.823      857.451
07/21/2013  15:11:00       62.195       30.867       28.986       51.688       40.138       32.634     2671.630     1611.068     1064.949        0.550        0.267       69.433       23.019        0.110      352.777       35.686      857.466
07/21/2013  15:12:00       73.970      130.006        0.307       50.201      102.274       49.252     2520.120    10459.927     2425.739        1.889        0.770      149.576       55.746        0.139      353.663       37.235      857.448
07/21/2013  15:13:00      183.553      147.196       13.326      119.117       99.602       59.709    14188.881     9920.624     3565.183        4.160        1.384      235.283       55.974        0.057      353.682       37.266      857.459
07/21/2013  15:14:00       35.455      191.158      -15.259       93.088      104.365       52.660     8665.455    10891.999     2773.068        3.018        1.117      194.418       47.734        0.060      353.628       37.173      857.496
07/21/2013  15:15:00      -12.448       94.253       -3.291       38.579       91.743       39.334     1488.347     8416.859     1547.192        1.025        0.573       95.071       52.595        0.306      353.955       37.751      857.497
07/21/2013  15:16:00       40.282      210.589        6.247       95.695      112.011       63.684     9157.520    12546.497     4055.708        3.588        1.288      214.407       65.580        0.094      353.860       37.579      857.464
07/21/2013  15:17:00      -96.184      151.050      -19.542       87.183      156.131       49.252     7600.829    24376.862     2425.768        3.342        1.720      179.074       45.934        0.066      353.783       37.445      857.452
07/21/2013  15:18:00      -15.516      139.271       -0.357       92.899       95.570       73.822     8630.147     9133.598     5449.754        2.142        1.161      140.133       68.169        0.237      353.737       37.367      857.394
07/21/2013  15:19:00     -103.068      351.074      -41.432       84.064      109.615       56.501     7066.771    12015.450     3192.362        7.893        1.114      365.891       56.953        0.024      353.572       37.075      857.422
07/21/2013  15:20:00     -167.624      298.138      -44.300       97.969      143.146       66.316     9597.889    20490.771     4397.767        7.671        1.724      342.029       64.791        0.036      353.500       36.946      857.351
07/21/2013  15:21:00       28.755      402.427      -15.157      190.685      236.403      110.908    36360.835    55886.194    12300.563       13.375        5.227      403.453      140.149        0.121      353.851       37.565      857.331
07/21/2013  15:22:00      112.056      260.963       -2.584      127.191      187.038      120.560    16177.602    34983.109    14534.599        7.317        3.285      284.004      118.794        0.175      353.677       37.260      857.352
07/21/2013  15:23:00       33.541      313.813      -39.346       94.542      135.672       74.914     8938.267    18406.793     5612.058        6.705        1.648      315.601       82.168        0.068      353.559       37.053      857.368
07/21/2013  15:24:00       -9.010      367.475      -38.258       76.623      170.049       74.495     5871.062    28916.757     5549.565        8.845        2.017      367.586       88.187        0.058      353.689       37.280      857.371
07/21/2013  15:25:00     -133.802      461.080      -62.593       84.195      139.007       50.310     7088.839    19323.031     2531.130       13.167        1.447      480.101       53.291        0.012      353.311       36.614      857.359
07/21/2013  15:26:00      -50.758      267.258      -30.468       64.499      111.614       41.713     4160.097    12457.640     1739.934        4.664        0.918      272.036       52.996        0.038      353.526       36.993      857.334
07/21/2013  15:27:00       -5.093      379.926      -48.834       83.485      125.135       53.687     6969.664    15658.819     2882.270        8.613        1.276      379.960       54.627        0.021      353.561       37.055      857.318
07/21/2013  15:28:00      -65.264      295.819      -35.909       87.932      108.775       39.141     7732.069    11831.999     1532.016        5.707        1.055      302.932       44.725        0.022      353.618       37.156      857.327
07/21/2013  15:29:00     -123.905      213.951      -30.221       98.076      106.604       54.991     9618.895    11364.335     3023.983        4.302        1.200      247.240       58.386        0.056      353.697       37.295      857.319
07/21/2013  15:30:00      -38.456      369.012      -43.038       90.826       87.055       60.273     8249.393     7578.651     3632.801        7.948        0.973      371.011       53.058        0.020      353.418       36.803      857.287
07/21/2013  15:31:00       42.251      226.175      -16.326       57.051       90.012       52.281     3254.816     8102.172     2733.343        3.365        0.705      230.087       50.996        0.049      353.530       37.001      857.250
07/21/2013  15:32:00      -16.255      132.068       10.560      102.180       97.136       52.320    10440.698     9435.385     2737.385        2.021        1.131      133.064       69.913        0.276      353.747       37.383      857.236
07/21/2013  15:33:00     -168.375       56.683      -26.131       61.291       94.659       35.625     3756.622     8960.417     1269.117        2.311        0.699      177.660       32.637        0.034      353.800       37.477      857.225
07/21/2013  15:34:00     -223.625      -33.890       -4.506      126.535       59.664       53.478    16011.125     3559.737     2859.921        3.680        1.122      226.178       50.294        0.049      353.687       37.279      857.208
07/21/2013  15:35:00     -334.127      -57.243      -13.955      172.150      129.809       73.105    29635.497    16850.329     5344.344        8.346        2.592      338.995       87.116        0.066      354.069       37.947      857.202
07/21/2013  15:36:00     -291.501      -58.750      -10.845      183.145      115.783       74.675    33542.116    13405.803     5576.399        7.052        2.626      297.362       93.409        0.099      354.003       37.831      857.240
07/21/2013  15:37:00     -113.420      -95.877       29.051      148.621      128.710       80.146    22088.146    16566.391     6423.369        3.398        2.254      148.514       81.069        0.298      353.902       37.655      857.261
07/21/2013  15:38:00     -113.124      -83.238        0.824      132.815       75.108       45.173    17639.861     5641.142     2040.616        2.252        1.266      140.448       42.707        0.092      353.742       37.374      857.263
07/21/2013  15:39:00     -195.704      -11.244       -6.704      148.902      150.551       63.581    22171.778    22665.649     4042.482        4.367        2.444      196.027       75.109        0.147      353.779       37.437      857.255
07/21/2013  15:40:00     -174.109      -24.911       -7.840       84.391      127.081       44.259     7121.808    16149.644     1958.840        2.811        1.262      175.882       35.110        0.040      353.907       37.665      857.266
07/21/2013  15:41:00     -146.040      -85.756        3.996       96.665      113.299       38.315     9344.115    12836.643     1468.015        2.617        1.182      169.357       37.531        0.049      353.868       37.596      857.249
07/21/2013  15:42:00      -81.679       73.302       -1.954       53.521       61.694       31.980     2864.466     3806.181     1022.693        0.987        0.385      109.748       31.986        0.085      353.733       37.360      857.248
07/21/2013  15:43:00     -140.204      260.127      -36.959       99.922      120.960       59.296     9984.418    14631.204     3515.995        5.840        1.407      295.505       51.238        0.030      353.459       36.875      857.243
07/21/2013  15:44:00      -77.836      170.835      -21.395       62.159       59.908       33.629     3863.681     3589.001     1130.877        2.214        0.429      187.731       30.970        0.027      353.583       37.094      857.236
07/21/2013  15:45:00      -89.389      135.368      -37.144       52.317       51.087       23.462     2737.048     2609.885      550.463        1.679        0.295      162.219        9.777        0.004      353.617       37.157      857.225
07/21/2013  15:46:00     -176.631       84.956      -21.575       73.640       52.713       43.884     5422.813     2778.636     1925.796        2.450        0.506      196.000       34.479        0.031      353.943       37.728      857.252
07/21/2013  15:47:00     -156.165      139.301      -35.465       85.056       71.442       48.621     7234.521     5103.912     2363.988        2.987        0.735      209.266       55.006        0.069      353.569       37.069      857.266
07/21/2013  15:48:00     -178.616       91.323      -34.084       86.162       68.110       37.797     7423.963     4638.951     1428.633        2.745        0.675      200.608       42.102        0.044      353.667       37.242      857.270
07/21/2013  15:49:00     -250.426      274.486      -40.132      151.107      208.614       81.063    22833.438    43519.616     6571.178       10.628        3.646      371.558       88.015        0.056      353.360       36.701      857.289
07/21/2013  15:50:00     -147.698      238.610      -23.149      120.355      110.827       70.329    14485.432    12282.634     4946.099        5.549        1.586      280.623       50.544        0.032      353.447       36.854      857.278
07/21/2013  15:51:00     -166.305      206.459      -19.580       80.494      100.836       63.609     6479.324    10167.806     4046.104        4.568        1.035      265.109       45.841        0.030      353.431       36.825      857.276
07/21/2013  15:52:00     -139.996      155.136      -22.125       92.618       69.517       43.436     8578.062     4832.603     1886.675        2.972        0.765      208.964       30.890        0.022      353.451       36.862      857.305
07/21/2013  15:53:00      -72.413      161.178      -14.344       45.297       67.848       40.558     2051.805     4603.351     1644.964        1.986        0.415      176.698       31.905        0.033      353.476       36.907      857.281
07/21/2013  15:54:00     -199.686      176.857      -47.761      107.694       87.818       49.752    11598.077     7712.014     2475.240        4.761        1.089      266.745       59.534        0.050      353.624       37.167      857.281
07/21/2013  15:55:00       12.122       15.946       19.842       53.209       39.514       27.013     2831.175     1561.390      729.728        0.296        0.256       20.031       14.145        0.499      353.976       37.787      857.265
07/21/2013  15:56:00       47.994       29.094       30.330       87.020       46.807       43.311     7572.514     2190.870     1875.856        0.785        0.582       56.124       39.105        0.485      353.224       36.470      857.231
07/21/2013  15:57:00      -67.569     -142.811        6.652      115.615      112.583       54.347    13366.943    12674.851     2953.619        2.699        1.450      157.989       58.599        0.138      353.210       36.442      857.157
07/21/2013  15:58:00     -237.363     -194.753        7.062       87.855       89.742       60.312     7718.570     8053.697     3637.513        5.686        0.970      307.034       58.539        0.036      353.490       36.930      857.130
07/21/2013  15:59:00     -243.676     -125.496       -9.524      149.509       57.959       41.235    22353.042     3359.250     1700.343        5.131        1.371      274.093       39.269        0.021      353.549       37.036      857.180
07/21/2013  16:00:00     -167.417      -48.817       16.338      134.032       94.854       52.840    17964.533     8997.243     2792.080        3.021        1.488      174.389       55.527        0.101      353.903       37.657      857.195
07/21/2013  16:01:00     -285.064      -37.963        3.294      131.630      106.690       68.641    17326.326    11382.853     4711.570        5.806        1.671      287.580       75.779        0.069      353.802       37.479      857.190
07/21/2013  16:02:00     -211.150      -44.303       -0.139      129.340       53.886       40.367    16728.890     2903.752     1629.517        3.390        1.063      215.748       49.257        0.052      353.799       37.474      857.194
07/21/2013  16:03:00     -161.698      -93.861        0.025      102.958       95.760       52.332    10600.414     9169.949     2738.610        2.873        1.125      186.965       52.956        0.080      353.770       37.424      857.202
07/21/2013  16:04:00     -270.656      -19.256      -13.379      152.205      103.231       55.459    23166.447    10656.612     3075.672        5.534        1.845      271.340       69.082        0.065      353.865       37.590      857.205
07/21/2013  16:05:00     -422.684     -162.737      -17.169      115.903      103.878       55.290    13433.502    10790.723     3056.938       11.636        1.364      452.930       51.573        0.013      353.547       37.030      857.192
07/21/2013  16:06:00     -324.736      -44.374      -21.475      150.248      122.390       66.791    22574.519    14979.237     4461.027        7.494        2.101      327.754       82.234        0.063      353.695       37.292      857.191
07/21/2013  16:07:00     -404.350       21.713      -35.559      156.717      100.846       50.719    24560.329    10169.943     2572.402       10.126        1.865      404.932       57.563        0.020      353.687       37.278      857.200
07/21/2013  16:08:00     -349.398      -87.237      -18.823       93.224       92.659       56.713     8690.773     8585.620     3216.381        7.526        1.025      360.124       45.790        0.016      353.822       37.513      857.185
07/21/2013  16:09:00     -489.272     -175.014      -36.797      176.655      119.510       61.752    31207.137    14282.680     3813.349       16.033        2.465      519.632       52.703        0.010      353.607       37.135      857.176
07/21/2013  16:10:00     -216.739      -69.852        6.613      169.999       88.219       56.906    28899.646     7782.571     3238.284        4.590        1.996      227.717       69.587        0.093      353.613       37.145      857.181
07/21/2013  16:11:00     -300.280     -100.697      -16.280       88.488       84.368       46.889     7830.169     7117.933     2198.594        5.886        0.857      316.714       43.497        0.019      353.665       37.237      857.192
07/21/2013  16:12:00     -275.010        1.466      -37.036      127.163      101.063       51.313    16170.489    10213.649     2632.980        5.300        1.451      275.014       18.229        0.004      353.680       37.264      857.215
07/21/2013  16:13:00     -194.515       25.506       -5.351      233.013      141.850       70.664    54295.253    20121.390     4993.429        5.895        3.971      196.181      102.382        0.272      353.683       37.270      857.172
07/21/2013  16:14:00     -149.271       88.593      -12.061      153.548      108.636       70.208    23576.930    11801.866     4929.149        3.528        2.015      173.582       75.484        0.189      353.708       37.314      857.191
07/21/2013  16:15:00     -240.468      -61.526      -14.223      146.236       96.700       61.977    21384.835     9350.893     3841.134        4.819        1.729      248.214       67.338        0.074      353.912       37.672      857.164
07/21/2013  16:16:00     -288.543       27.063      -45.551      127.670      159.970       70.738    16299.748    25590.510     5003.841        6.647        2.345      289.809       51.933        0.032      353.726       37.346      857.170
07/21/2013  16:17:00     -210.399      -27.003      -22.438      196.244      168.827       77.958    38511.567    28502.594     6077.392        5.928        3.655      212.125       83.166        0.154      353.711       37.319      857.126
07/21/2013  16:18:00     -277.456       81.868      -36.375      115.034      114.671       47.358    13232.894    13149.469     2242.823        5.681        1.431      289.282       34.104        0.014      353.551       37.038      857.139
07/21/2013  16:19:00     -162.108      119.006      -24.240       92.025       78.087       56.411     8468.529     6097.593     3182.197        2.939        0.887      201.100       55.430        0.076      353.666       37.241      857.120
07/21/2013  16:20:00      -97.907      210.923      -25.397      119.346      190.798       77.745    14243.496    36403.935     6044.274        5.569        2.835      232.539       72.233        0.096      353.593       37.112      857.076
07/21/2013  16:21:00     -266.096       92.999      -25.397      205.601      296.164       91.744    42271.630    87712.939     8416.967       10.922        6.920      281.880       67.090        0.057      353.809       37.491      857.021
07/21/2013  16:22:00     -319.172      -81.680       -7.196      196.506      143.273       81.184    38614.598    20527.216     6590.779        8.715        3.287      329.458       96.736        0.086      353.871       37.601      857.108
07/21/2013  16:23:00     -221.123      -25.088      -36.309       84.047      114.190       52.208     7063.960    13039.253     2725.691        3.683        1.141      222.542       43.362        0.038      353.887       37.628      857.137
07/21/2013  16:24:00     -175.303      -23.213       -8.948      175.464      138.635       60.497    30787.694    19219.585     3659.916        4.250        2.683      176.833       71.167        0.162      353.895       37.642      857.135
07/21/2013  16:25:00     -228.326      231.102      -46.882      126.131      138.474       62.704    15908.965    19175.066     3931.812        7.337        1.951      324.871       65.814        0.041      353.555       37.046      857.167
07/21/2013  16:26:00     -181.295      177.602      -30.196      113.599      118.004       65.344    12904.770    13925.016     4269.802        4.820        1.555      253.792       70.970        0.078      353.600       37.124      857.190
07/21/2013  16:27:00     -214.831       87.760       -9.471      151.281      150.059       80.080    22885.801    22517.754     6412.834        5.287        2.591      232.065       82.812        0.127      353.643       37.198      857.168
07/21/2013  16:28:00     -161.689      261.880      -24.280      110.204      192.002       71.947    12144.839    36864.718     5176.309        7.474        2.709      307.773       89.644        0.085      353.538       37.015      857.179
07/21/2013  16:29:00     -103.623      126.784       -2.753      135.696      119.169       77.333    18413.432    14201.249     5980.365        3.270        1.930      163.744       70.961        0.188      353.568       37.068      857.144
07/21/2013  16:30:00     -127.885      302.623      -34.445      104.248      141.467       71.548    10867.643    20012.848     5119.180        7.255        1.800      328.535       81.633        0.062      353.643       37.200      857.118
07/21/2013  16:31:00     -103.228      447.226      -51.024      140.792      180.960       84.851    19822.275    32746.343     7199.772       13.651        2.988      458.985       83.343        0.033      353.660       37.229      857.045
07/21/2013  16:32:00     -252.078      100.985      -25.688      132.657       93.926       49.422    17597.798     8822.158     2442.500        5.163        1.443      271.553       35.597        0.017      353.967       37.768      857.062
07/21/2013  16:33:00     -232.125       90.596      -34.469       88.587      100.630       56.151     7847.655    10126.357     3152.880        4.220        1.056      249.178       42.628        0.029      353.805       37.482      857.084
07/21/2013  16:34:00      -49.585       45.817       15.925      112.381      108.168       57.096    12629.526    11700.383     3259.897        1.620        1.379       67.511       57.748        0.732      353.950       37.740      857.065
07/21/2013  16:35:00     -140.413      115.585      -23.204      118.775      136.849       46.952    14107.595    18727.610     2204.449        3.432        1.752      181.868       57.016        0.098      353.741       37.372      857.089
07/21/2013  16:36:00     -242.005      363.948      -39.726      165.569      152.366       85.043    27413.098    23215.464     7232.311       12.522        2.893      437.063       89.361        0.042      353.557       37.047      857.102
07/21/2013  16:37:00     -217.245      153.386      -48.388       84.681       96.541       60.739     7170.863     9320.187     3689.170        4.662        1.009      265.937       31.375        0.014      353.597       37.118      857.096
07/21/2013  16:38:00     -108.513      281.453      -21.460       92.984      158.670       68.688     8646.078    25176.307     4718.067        6.499        1.927      301.647       71.124        0.056      353.618       37.156      857.090
07/21/2013  16:39:00     -236.699      173.345      -32.468      162.955      142.657       65.501    26554.288    20350.949     4290.394        6.915        2.560      293.385       70.660        0.058      353.694       37.290      857.043
07/21/2013  16:40:00     -302.539       25.538      -31.390      124.685      105.384       64.546    15546.297    11105.683     4166.165        6.199        1.541      303.615       66.260        0.048      353.741       37.372      857.063
07/21/2013  16:41:00     -156.787       17.819        9.378      125.511       70.227       51.508    15752.986     4931.767     2653.070        2.416        1.167      157.796       51.039        0.105      353.861       37.583      857.083
07/21/2013  16:42:00     -347.236      -36.361      -33.535      157.392      120.697       59.086    24772.297    14567.853     3491.213        8.292        2.142      349.135       58.488        0.028      353.848       37.560      857.086
07/21/2013  16:43:00     -265.033        5.356       -9.745      223.312      139.378       90.886    49868.178    19426.234     8260.287        7.394        3.878      265.087       94.411        0.127      353.771       37.425      857.058
07/21/2013  16:44:00     -224.797      -12.514      -33.983       93.966      124.573       60.216     8829.545    15518.528     3625.978        3.990        1.399      225.145       34.452        0.023      353.637       37.189      857.103
07/21/2013  16:45:00     -242.990       57.872      -53.878      121.259      104.186       71.637    14703.685    10854.646     5131.865        4.799        1.535      249.787       40.129        0.026      353.489       36.928      857.097
07/21/2013  16:46:00     -164.098      201.904      -40.701       95.698      127.139       60.684     9158.107    16164.398     3682.582        4.917        1.450      260.179       64.403        0.061      353.575       37.083      857.100
07/21/2013  16:47:00     -178.365      -54.835      -19.245      113.568       83.546       44.325    12897.758     6979.928     1964.716        2.851        1.092      186.604       34.340        0.034      353.824       37.519      857.103
07/21/2013  16:48:00     -265.915       26.398      -17.072      152.257      104.827       60.692    23182.053    10988.764     3683.476        5.477        1.893      267.222       66.592        0.062      353.737       37.365      857.100
07/21/2013  16:49:00     -272.258      -87.658      -21.826      162.806      153.990       57.130    26505.948    23712.913     3263.872        6.787        2.674      286.021       51.504        0.032      353.824       37.517      857.091
07/21/2013  16:50:00     -469.161      -24.973      -49.770      141.538      112.954       64.517    20033.072    12758.542     4162.437       13.008        1.848      469.825       69.092        0.022      353.685       37.274      857.084
07/21/2013  16:51:00     -390.685      -39.973      -30.783      145.579      100.189       68.309    21193.232    10037.875     4666.112        9.553        1.795      392.725       69.379        0.031      353.702       37.303      857.086
07/21/2013  16:52:00     -206.728      142.495      -44.691      163.132       86.394       73.229    26611.935     7463.948     5362.540        5.223        1.972      251.080       94.357        0.141      353.526       36.994      857.066
07/21/2013  16:53:00     -206.060      169.774      -28.610      157.329       94.252       63.216    24752.359     8883.487     3996.285        5.486        1.882      266.990       70.209        0.069      353.584       37.095      857.080
07/21/2013  16:54:00     -307.320       -7.502       -9.812      192.723      177.762       85.035    37142.281    31599.305     7230.943        8.527        3.799      307.411       80.381        0.068      353.762       37.407      857.071
07/21/2013  16:55:00     -498.488     -162.494      -28.325      217.680      146.688       79.642    47384.668    21517.421     6342.917       17.546        3.762      524.304       40.839        0.006      353.626       37.172      857.063
07/21/2013  16:56:00     -317.230       60.362      -42.944      140.925      107.424       71.938    19859.803    11539.872     5175.071        7.134        1.829      322.922       60.364        0.035      353.650       37.211      857.093
07/21/2013  16:57:00     -290.811        5.831      -25.577      126.596      137.831       75.466    16026.582    18997.481     5695.109        6.298        2.036      290.869       65.798        0.051      353.474       36.904      857.090
07/21/2013  16:58:00     -287.124       93.669      -36.196      215.554      100.228       80.262    46463.679    10045.586     6441.953        7.773        3.148      302.017       91.206        0.091      353.429       36.824      857.082
07/21/2013  16:59:00     -266.499       47.232      -50.503      123.196      147.379       71.475    15177.288    21720.547     5108.675        5.890        2.100      270.652       58.391        0.047      353.577       37.083      857.044
07/21/2013  17:00:00     -296.918       49.334      -22.660      197.891      117.710       76.072    39161.035    13855.738     5786.904        7.494        2.940      300.989       90.600        0.091      353.687       37.277      857.058
07/21/2013  17:01:00     -400.158      -95.673      -32.908      154.561      170.408       63.066    23889.150    29038.797     3977.334       11.362        2.845      411.437       58.931        0.021      353.733       37.357      857.066
07/21/2013  17:02:00     -431.858      -41.812      -19.157      137.566      133.628       85.329    18924.496    17856.343     7280.987       11.633        2.203      433.877       74.526        0.030      353.600       37.124      857.079
07/21/2013  17:03:00     -283.200      -66.274      -35.354      147.403      168.947       78.474    21727.706    28542.959     6158.210        7.113        2.821      290.851       48.039        0.027      353.646       37.203      857.082
07/21/2013  17:04:00     -305.324     -141.400      -12.738      241.605      168.346       82.692    58373.181    28340.278     6837.937       10.345        4.678      336.477       96.931        0.083      353.618       37.155      857.107
07/21/2013  17:05:00     -391.972       33.134      -53.297      164.108      199.841       73.473    26931.499    39936.467     5398.338       11.491        3.613      393.370       59.237        0.023      353.430       36.824      857.124
07/21/2013  17:06:00     -166.629       79.338      -41.871      150.975      107.184       46.310    22793.462    11488.352     2144.637        3.611        1.821      184.553       54.492        0.087      353.403       36.778      857.104
07/21/2013  17:07:00     -230.681       61.627      -25.177      131.761      136.609       66.316    17360.894    18662.009     4397.807        4.903        2.021      238.771       63.464        0.071      353.505       36.958      857.054
07/21/2013  17:08:00     -293.646      -32.216      -14.068      142.447      136.386       81.114    20291.243    18601.050     6579.427        6.646        2.274      295.408       75.282        0.065      353.579       37.089      857.032
07/21/2013  17:09:00     -149.503       73.259        6.739      132.996      106.515       65.193    17688.010    11345.477     4250.118        3.052        1.664      166.488       53.224        0.102      353.601       37.125      857.077
07/21/2013  17:10:00     -189.952       -6.041        6.579      152.812      130.718       70.762    23351.504    17087.089     5007.241        4.079        2.272      190.048       72.043        0.144      353.685       37.274      857.063
07/21/2013  17:11:00     -228.449      -32.582      -28.638      126.194      101.170       53.817    15924.951    10235.373     2896.246        4.156        1.453      230.760       62.103        0.072      353.570       37.072      857.078
07/21/2013  17:12:00     -166.241      -48.734       -7.325       79.435       63.071       47.365     6309.942     3977.958     2243.414        2.130        0.627      173.237       47.252        0.074      353.790       37.459      857.077
07/21/2013  17:13:00     -121.978       50.922       -5.316       95.435       45.191       36.498     9107.793     2042.260     1332.097        1.499        0.624      132.181       47.511        0.129      353.647       37.208      857.050
07/21/2013  17:14:00     -151.358      -10.009       -3.660       76.415       94.915       40.079     5839.302     9008.767     1606.323        1.974        0.823      151.689       32.136        0.045      353.736       37.365      857.041
07/21/2013  17:15:00     -249.460      -52.907      -21.076       96.689       83.976       53.151     9348.768     7052.026     2825.059        4.235        0.961      255.009       44.644        0.031      353.857       37.575      857.050
07/21/2013  17:16:00     -339.795     -112.851      -24.104      227.618      123.195       73.823    51809.813    15177.050     5449.786       10.059        3.622      358.045       88.991        0.062      353.730       37.353      857.042
07/21/2013  17:17:00     -375.973     -106.742      -33.049      185.772      152.678       88.360    34511.195    23310.550     7807.476       10.972        3.281      390.832       87.998        0.051      353.499       36.946      857.057
07/21/2013  17:18:00     -296.052      -89.518      -19.254      127.340      118.839       62.823    16215.482    14122.629     3946.783        6.515        1.714      309.290       58.908        0.036      353.492       36.934      857.056
07/21/2013  17:19:00     -456.932     -137.074      -39.615      119.212      116.262       53.874    14211.513    13516.905     2902.432       12.988        1.532      477.049       35.457        0.006      353.459       36.874      857.071
07/21/2013  17:20:00     -365.811      -70.753      -33.523       98.539      104.542       52.721     9709.886    10929.040     2779.531        8.168        1.171      372.591       48.072        0.017      353.525       36.992      857.065
07/21/2013  17:21:00     -305.202      -60.603       -2.407      136.597      125.040       65.260    18658.840    15635.047     4258.869        6.768        1.928      311.161       68.700        0.049      353.502       36.951      857.054
07/21/2013  17:22:00     -198.280      -44.735       -3.207      139.899       97.948       65.032    19571.699     9593.863     4229.123        3.735        1.670      203.264       70.981        0.122      353.575       37.079      857.049
07/21/2013  17:23:00     -133.113       71.153      -21.175      135.428      126.103       55.867    18340.701    15901.955     3121.088        3.029        1.868      150.936       58.019        0.148      353.431       36.828      857.036
07/21/2013  17:24:00      -84.101       -5.425       -6.941       84.492       78.559       35.201     7138.821     6171.508     1239.114        1.085        0.727       84.275       29.156        0.120      353.626       37.172      856.984
07/21/2013  17:25:00     -380.529      -98.759      -33.546      149.698      108.312       71.498    22409.529    11731.383     5111.916        9.746        1.963      393.135       50.597        0.017      353.633       37.182      857.002
07/21/2013  17:26:00     -278.202      -39.763      -14.274      174.748      157.275       57.635    30536.743    24735.421     3321.750        6.888        2.930      281.029       68.868        0.060      353.645       37.203      857.024
07/21/2013  17:27:00     -239.525       25.117      -19.255       96.460      110.536       50.056     9304.609    12218.124     2505.621        4.120        1.201      240.838       46.446        0.037      353.498       36.944      857.030
07/21/2013  17:28:00     -211.143       50.169      -31.326       97.265       82.694       53.225     9460.387     6838.224     2832.938        3.360        0.957      217.022       35.126        0.026      353.502       36.952      857.009
07/21/2013  17:29:00      -86.787       68.075      -15.877      106.936      123.082       49.502    11435.278    15149.183     2450.457        2.072        1.452      110.300       43.721        0.157      353.696       37.293      856.988
07/21/2013  17:30:00     -106.448      236.051      -36.727       91.536      102.041       53.612     8378.810    10412.463     2874.289        4.503        1.083      258.943       55.421        0.046      353.459       36.876      856.990
07/21/2013  17:31:00     -158.381      182.457      -31.317       92.383       90.943       49.240     8534.566     8270.541     2424.615        3.929        0.961      241.609       46.861        0.038      353.333       36.655      856.982
07/21/2013  17:32:00     -178.794      253.694      -29.133       97.423      141.069       62.495     9491.320    19900.480     3905.677        6.523        1.665      310.367       63.698        0.042      353.322       36.634      856.970
07/21/2013  17:33:00     -140.551      198.200      -30.265      110.076      100.585       49.042    12116.639    10117.319     2405.128        4.229        1.232      242.977       49.152        0.041      353.350       36.683      856.972
07/21/2013  17:34:00     -174.046      194.203      -31.833      112.830      131.541       61.637    12730.659    17302.979     3799.127        5.142        1.692      260.781       56.456        0.047      353.355       36.692      856.962
07/21/2013  17:35:00     -205.404       45.879      -39.533       76.433       92.571       51.152     5841.991     8569.322     2616.569        3.144        0.851      210.466       33.062        0.025      353.460       36.878      856.980
07/21/2013  17:36:00     -201.675      -10.183      -30.865      125.062       93.071       53.793    15640.543     8662.130     2893.701        3.446        1.360      201.932       56.436        0.078      353.411       36.792      856.964
07/21/2013  17:37:00     -164.740        1.190      -16.776      113.433       85.387       41.416    12867.043     7290.938     1715.245        2.464        1.094      164.744       43.922        0.071      353.444       36.850      856.934
07/21/2013  17:38:00     -231.176      -88.529      -18.898      144.276      144.114       72.130    20815.476    20768.861     5202.687        5.420        2.339      247.547       58.693        0.056      353.593       37.110      856.881
07/21/2013  17:39:00     -321.174      -39.934      -18.043      163.321      110.493       64.852    26673.624    12208.812     4205.729        7.407        2.154      323.647       71.514        0.049      353.517       36.978      856.883
07/21/2013  17:40:00     -150.275        2.737       -0.124       48.994       46.873       39.455     2400.371     2197.083     1556.689        1.437        0.308      150.300       28.859        0.037      353.567       37.069      856.869
07/21/2013  17:41:00      -95.726      -23.706       -7.280       69.086       64.929       32.514     4772.815     4215.803     1057.179        0.991        0.502       98.618       27.968        0.080      353.640       37.196      856.846
07/21/2013  17:42:00     -225.712       -5.848      -10.865      150.818       93.495       52.099    22745.993     8741.263     2714.314        4.264        1.710      225.787       51.488        0.052      353.588       37.104      856.849
07/21/2013  17:43:00     -400.610     -151.231       -7.201      185.381      130.178       77.645    34366.004    16946.364     6028.717       12.036        2.867      428.205       85.715        0.040      353.418       36.802      856.834
07/21/2013  17:44:00     -305.583      -26.820      -20.202      141.945      127.639       57.697    20148.298    16291.810     3328.952        6.713        1.988      306.758       58.628        0.037      353.407       36.785      856.844
07/21/2013  17:45:00     -334.675      -87.732      -14.197      117.391      101.797       58.466    13780.544    10362.638     3418.215        7.373        1.378      345.983       58.144        0.028      353.485       36.922      856.854
07/21/2013  17:46:00     -343.815      -92.241      -34.079      121.476      113.570       61.941    14756.417    12898.231     3836.686        7.968        1.575      355.974       64.548        0.033      353.506       36.958      856.847
07/21/2013  17:47:00     -247.699      -56.349      -17.686      101.736       81.922       45.575    10350.198     6711.260     2077.063        4.199        0.957      254.028       39.268        0.024      353.610       37.141      856.859
07/21/2013  17:48:00     -338.999       25.199      -27.756       95.592      107.105       51.581     9137.860    11471.471     2660.577        6.979        1.163      339.934       45.635        0.018      353.397       36.764      856.858
07/21/2013  17:49:00     -314.825      -23.071      -25.770       80.856       84.454       38.929     6537.695     7132.481     1515.470        5.775        0.759      315.669       34.468        0.012      353.419       36.805      856.840
07/21/2013  17:50:00     -329.602        9.630      -30.160      141.776      105.311       56.948    20100.309    11090.353     3243.102        7.203        1.722      329.743       54.185        0.027      353.476       36.906      856.829
07/21/2013  17:51:00     -305.173      -78.190      -16.090       88.150      115.343       52.289     7770.349    13303.957     2734.116        6.165        1.190      315.031       29.725        0.009      353.533       37.006      856.823
07/21/2013  17:52:00     -370.010      -88.331      -12.415      155.303      146.045       67.390    24119.033    21329.118     4541.349        9.742        2.499      380.407       66.795        0.031      353.534       37.009      856.822
07/21/2013  17:53:00     -397.338      -50.660       -3.078      208.182      173.807       76.578    43339.563    30208.947     5864.221       11.992        3.971      400.554       73.849        0.034      353.516       36.976      856.801
07/21/2013  17:54:00     -302.510      -66.086      -11.123      129.654      141.124       56.099    16810.246    19915.926     3147.082        6.793        1.994      309.644       61.171        0.039      353.446       36.853      856.804
07/21/2013  17:55:00     -245.472       -6.763      -12.955      138.243       90.285       52.351    19111.044     8151.315     2740.662        4.523        1.500      245.565       63.005        0.066      353.667       37.242      856.842
07/21/2013  17:56:00     -410.546      -42.281      -38.169      150.545      123.158       58.282    22663.810    15167.806     3396.846       10.650        2.061      412.718       58.883        0.020      353.455       36.867      856.832
07/21/2013  17:57:00     -178.253      -19.283       -1.443      124.434      102.370       49.985    15483.879    10479.637     2498.539        3.030        1.423      179.293       35.768        0.040      353.445       36.853      856.798
07/21/2013  17:58:00     -191.208      -26.343      -10.734      126.213      108.098       63.435    15929.648    11685.106     4024.001        3.450        1.582      193.014       65.803        0.116      353.611       37.142      856.801
07/21/2013  17:59:00     -208.664      -30.727        6.882      136.527      128.059       67.063    18639.736    16399.218     4497.440        4.203        1.977      210.914       73.185        0.120      353.599       37.122      856.828
07/21/2013  18:00:00     -312.764       16.666      -15.927      158.166      144.187       70.940    25016.604    20789.936     5032.480        7.459        2.542      313.208       78.525        0.063      353.496       36.942      856.843
07/21/2013  18:01:00     -324.658      -97.639       -8.504      150.514      126.817       78.484    22654.472    16082.533     6159.802        7.994        2.245      339.023       83.953        0.061      353.397       36.765      856.846
07/21/2013  18:02:00     -364.313       83.952      -43.613      152.181      124.150       58.176    23159.104    15413.207     3384.467        9.181        2.098      373.861       51.248        0.019      353.427       36.818      856.856
07/21/2013  18:03:00     -280.322      -17.921      -23.849      106.874      102.796       56.663    11421.969    10567.078     3210.696        5.233        1.260      280.894       39.337        0.020      353.543       37.023      856.829
07/21/2013  18:04:00     -376.307      -40.556      -12.640      131.056      122.532       73.635    17175.582    15014.021     5422.160        9.050        1.881      378.486       71.085        0.035      353.440       36.842      856.853
07/21/2013  18:05:00     -134.298      -97.204       10.329       79.869       80.006       52.279     6379.018     6400.888     2733.075        2.155        0.776      165.785       33.835        0.042      353.517       36.980      856.840
07/21/2013  18:06:00     -340.327       -3.919      -24.502      147.033       88.392       52.688    21618.820     7813.226     2776.037        7.432        1.610      340.350       61.551        0.033      353.362       36.705      856.852
07/21/2013  18:07:00     -262.704     -125.714        2.143      214.271      169.847       81.841    45912.176    28847.921     6697.970        8.312        4.073      291.234      105.427        0.131      353.368       36.714      856.856
07/21/2013  18:08:00     -390.451      -60.695      -35.127      188.040      121.915       69.829    35359.109    14863.174     4876.113       10.622        2.755      395.140       70.413        0.032      353.273       36.548      856.890
07/21/2013  18:09:00     -217.788       95.247      -22.824      142.617      110.746       84.990    20339.622    12264.784     7223.274        4.842        1.991      237.705       78.373        0.109      353.206       36.432      856.880
07/21/2013  18:10:00     -276.581      112.436      -23.934      128.339      123.489       76.145    16470.806    15249.500     5798.055        6.361        1.876      298.562       75.406        0.064      353.176       36.380      856.873
07/21/2013  18:11:00     -230.408      -35.309       -1.732      112.637      130.151       63.936    12687.095    16939.164     4087.805        4.402        1.686      233.098       54.007        0.054      353.244       36.499      856.904
07/21/2013  18:12:00     -249.379       52.527      -48.341      115.054      133.347       76.753    13237.485    17781.423     5891.014        5.209        1.845      254.851       73.064        0.082      353.166       36.362      856.918
07/21/2013  18:13:00     -164.805      -39.963      -20.448      113.685       88.748       55.150    12924.357     7876.210     3041.570        2.650        1.192      169.581       49.978        0.087      353.268       36.541      856.916
07/21/2013  18:14:00     -128.787      -18.915       -0.156       85.992       98.097       45.927     7394.695     9623.018     2109.327        1.803        0.956      130.169       40.842        0.098      353.257       36.523      856.946
07/21/2013  18:15:00     -208.958       43.765       -2.390      160.220      121.254       76.676    25670.512    14702.476     5879.177        4.591        2.313      213.492       80.508        0.142      353.272       36.547      856.956
07/21/2013  18:16:00     -298.916      -22.613      -33.916      105.910      124.282       61.816    11216.838    15445.937     3821.180        6.074        1.524      299.770       54.653        0.033      353.163       36.356      856.949
07/21/2013  18:17:00     -455.550       38.479      -31.985      170.392      150.794       65.314    29033.323    22738.692     4265.874       13.302        2.802      457.172       58.589        0.016      353.091       36.229      856.954
07/21/2013  18:18:00     -322.824      179.765      -54.633      147.119      114.007       68.977    21643.900    12997.563     4757.872        8.945        1.970      369.501       70.283        0.036      353.030       36.122      856.959
07/21/2013  18:19:00     -231.568       87.525      -15.863      140.202      138.953       81.746    19656.575    19307.811     6682.419        5.358        2.282      247.557       82.926        0.112      353.161       36.354      856.953
07/21/2013  18:20:00     -195.102      174.191      -20.414      167.536      104.184       68.043    28068.186    10854.221     4629.862        5.618        2.178      261.547       68.040        0.068      353.118       36.277      856.964
07/21/2013  18:21:00     -154.802       44.514       -6.214       93.779      139.434       73.236     8794.514    19441.739     5363.470        2.979        1.680      161.075       66.125        0.169      353.246       36.503      856.952
07/21/2013  18:22:00     -256.825      -44.944      -17.533      178.797      145.970       64.871    31968.431    21307.129     4208.255        6.287        2.874      260.728       65.038        0.062      353.183       36.390      856.972
07/21/2013  18:23:00     -420.869      -39.697      -39.997      151.738      132.935       76.001    23024.496    17671.680     5776.113       11.338        2.324      422.737       77.942        0.034      353.052       36.161      856.975
07/21/2013  18:24:00     -169.052      -43.019        5.998      123.382      104.862       56.030    15223.193    10996.004     3139.392        2.991        1.468      174.439       47.734        0.075      353.188       36.402      856.970
07/21/2013  18:25:00     -137.765      -21.119      -14.515       89.043       81.024       37.236     7928.620     6564.823     1386.540        1.775        0.794      139.375       25.900        0.035      353.167       36.366      856.982
07/21/2013  18:26:00     -269.275      -26.339      -13.408      145.376      170.857       77.480    21134.218    29191.947     6003.214        6.484        2.816      270.560       74.062        0.075      353.089       36.225      856.973
07/21/2013  18:27:00     -301.124       91.203      -28.400      198.610      154.702       81.742    39446.025    23932.596     6681.817        8.492        3.503      314.632       90.120        0.082      352.999       36.068      856.984
07/21/2013  18:28:00     -274.878       36.914      -35.525      126.915      115.393       80.754    16107.500    13315.543     6521.276        5.706        1.797      277.345       75.278        0.074      353.045       36.150      856.995
07/21/2013  18:29:00     -265.268       29.182      -26.466      187.106      137.812       74.902    35008.626    18992.141     5610.302        6.575        2.981      266.869       96.615        0.131      353.104       36.254      856.996
07/21/2013  18:30:00     -211.030       94.356      -32.585      122.105      129.226       62.061    14909.597    16699.300     3851.582        4.497        1.773      231.164       57.165        0.061      353.058       36.172      856.993
07/21/2013  18:31:00     -228.729      115.169      -35.039      163.604       90.955       80.298    26766.368     8272.864     6447.749        5.414        2.074      256.088       79.008        0.095      353.058       36.172      857.000
07/21/2013  18:32:00     -176.920       19.963       -7.581      115.087      112.025       58.971    13245.020    12549.631     3477.544        3.051        1.464      178.043       50.158        0.079      353.075       36.205      856.993
07/21/2013  18:33:00     -174.415        9.332      -33.800       71.304       97.736       39.042     5084.268     9552.286     1524.247        2.390        0.808      174.664       34.925        0.040      353.133       36.305      857.001
07/21/2013  18:34:00     -206.592       56.748      -44.202      126.243      135.355       62.952    15937.292    18321.080     3962.926        4.303        1.911      214.244       64.877        0.092      353.044       36.148      857.006
07/21/2013  18:35:00     -225.937       65.962       -1.957      176.178      154.666       81.654    31038.691    23921.659     6667.347        5.850        3.081      235.369       88.666        0.142      353.031       36.126      856.994
07/21/2013  18:36:00     -487.761      -70.093      -51.909      226.997      163.410       84.443    51527.667    26702.665     7130.591       16.542        4.268      492.772       49.384        0.010      352.971       36.020      857.000
07/21/2013  18:37:00     -441.229      -74.571      -43.725      199.572      108.167       67.094    39828.921    11700.056     4501.650       12.908        2.802      447.486       72.947        0.027      352.974       36.024      857.011
07/21/2013  18:38:00     -309.720     -104.066      -15.932      135.184      118.403       59.829    18274.848    14019.300     3579.562        7.143        1.794      326.736       49.195        0.023      352.962       36.004      857.022
07/21/2013  18:39:00     -285.296     -107.639      -35.547      113.196      104.693       62.958    12813.442    10960.727     3963.757        6.099        1.387      304.926       45.780        0.023      352.985       36.044      857.021
07/21/2013  18:40:00     -375.923      -58.213      -24.968       94.530       99.116       51.245     8935.909     9823.940     2626.005        8.335        1.069      380.403       52.586        0.019      352.868       35.839      857.029
07/21/2013  18:41:00     -190.299      -12.635        0.972      150.281      115.176       69.218    22584.475    13265.602     4791.080        3.850        2.032      190.718       85.091        0.199      352.968       36.018      857.009
07/21/2013  18:42:00     -226.020      -33.708       -1.165      149.926      142.639       59.077    22477.796    20345.848     3490.066        4.926        2.316      228.520       64.335        0.079      353.014       36.095      857.016
07/21/2013  18:43:00     -296.361       -7.795      -14.410      167.865      109.238       66.434    28178.635    11932.932     4413.418        6.630        2.226      296.464       82.569        0.078      353.024       36.113      857.011
07/21/2013  18:44:00     -304.948      -79.102       -3.545      172.625      125.199       71.963    29799.460    15674.750     5178.675        7.495        2.533      315.040       85.547        0.074      353.009       36.087      857.017
07/21/2013  18:45:00     -268.826      -66.543        6.029      145.772      162.866       82.076    21249.422    26525.434     6736.487        6.561        2.726      276.939       68.559        0.061      352.983       36.041      857.009
07/21/2013  18:46:00     -226.964      -60.626       19.790      223.626      156.894       83.147    50008.562    24615.789     6913.379        6.854        4.077      234.922       99.963        0.181      352.946       35.978      856.989
07/21/2013  18:47:00     -591.209      -68.025      -32.484      222.598      160.835       99.167    49549.670    25868.013     9834.171       22.021        4.263      595.110       99.368        0.028      352.873       35.849      856.986
07/21/2013  18:48:00     -414.668      -81.568      -23.757      187.149      119.447       72.852    35024.622    14267.515     5307.485       11.687        2.730      422.615       80.515        0.036      352.891       35.879      856.990
07/21/2013  18:49:00     -152.251      -51.226       10.597      116.419      106.705       62.165    13553.366    11385.876     3864.458        2.735        1.440      160.637       58.107        0.131      353.000       36.071      857.000
07/21/2013  18:50:00     -292.682      -19.247       -8.089      167.642      118.266       75.148    28103.728    13986.866     5647.226        6.691        2.387      293.315       81.068        0.076      352.955       35.991      857.028
07/21/2013  18:51:00     -445.646     -126.692      -19.231      166.583      128.290       84.501    27750.025    16458.240     7140.390       13.317        2.567      463.305       93.315        0.041      352.880       35.860      857.033
07/21/2013  18:52:00     -215.088      -53.334      -11.031      126.999      106.923       58.347    16128.850    11432.540     3404.405        4.009        1.548      221.601       59.752        0.073      352.964       36.008      857.049
07/21/2013  18:53:00     -428.728     -111.768      -21.113      212.632      122.256       71.939    45212.326    14946.469     5175.250       13.103        3.267      443.057       66.136        0.022      352.831       35.774      857.050
07/21/2013  18:54:00     -305.961      -69.622       -1.315      146.213      159.871       82.077    21378.197    25558.865     6736.594        7.606        2.684      313.782       85.938        0.075      352.867       35.836      857.068
07/21/2013  18:55:00     -510.480      -21.718      -37.064      188.897      147.440       79.507    35681.935    21738.423     6321.378       16.308        3.187      510.942       90.423        0.031      352.809       35.737      857.079
07/21/2013  18:56:00     -435.107      -10.881      -31.121      116.939      145.756       63.285    13674.626    21244.826     4005.032       11.466        1.946      435.243       52.715        0.015      352.820       35.755      857.071
07/21/2013  18:57:00     -247.992       -8.139       -7.570      117.928       78.316       59.396    13907.076     6133.434     3527.870        4.259        1.178      248.125       49.812        0.040      352.893       35.884      857.073
07/21/2013  18:58:00     -277.423      -66.904      -15.102      129.898       94.590       49.995    16873.419     8947.342     2499.499        5.499        1.416      285.376       51.358        0.032      352.851       35.811      857.095
07/21/2013  18:59:00     -227.925      -19.681       -1.327      133.563      115.174       67.628    17839.016    13265.123     4573.567        4.400        1.784      228.773       74.091        0.105      352.851       35.810      857.093
07/21/2013  19:00:00     -316.792      -97.084       -0.800      179.554      102.258       65.384    32239.704    10456.770     4275.130        7.837        2.349      331.334       64.256        0.038      352.789       35.702      857.087
07/21/2013  19:01:00     -350.634      -85.169      -14.261      179.487       99.081       49.770    32215.674     9817.037     2477.060        8.745        2.225      360.830       68.727        0.036      352.794       35.712      857.093
07/21/2013  19:02:00     -173.293      -21.933       -2.082      165.543       83.233       51.933    27404.526     6927.680     2697.036        3.377        1.851      174.675       72.783        0.174      352.864       35.834      857.097
07/21/2013  19:03:00     -226.763       -3.238       -6.123      113.429       68.571       51.182    12866.177     4702.009     2619.560        3.582        1.009      226.786       63.347        0.078      352.889       35.878      857.103
07/21/2013  19:04:00     -293.627      -20.888      -15.086      139.854       90.509       56.531    19559.169     8191.843     3195.716        5.891        1.547      294.369       65.655        0.050      352.830       35.774      857.122
07/21/2013  19:05:00     -421.020       19.682      -38.094      190.446      104.799       69.423    36269.604    10982.863     4819.612       11.557        2.604      421.480       80.292        0.036      352.809       35.736      857.105
07/21/2013  19:06:00     -303.086      -70.622      -11.191      154.632       93.977       61.134    23911.141     8831.585     3737.413        6.672        1.824      311.205       74.013        0.057      352.811       35.740      857.104
07/21/2013  19:07:00     -383.277     -111.303      -17.694      150.467      122.574       68.956    22640.235    15024.379     4754.953       10.100        2.121      399.111       73.230        0.034      352.745       35.624      857.102
07/21/2013  19:08:00     -202.926      -89.279        3.916      107.780       99.214       49.934    11616.602     9843.431     2493.355        3.655        1.198      221.698       57.017        0.066      352.757       35.644      857.114
07/21/2013  19:09:00     -350.086      -82.628      -31.776      157.807      110.465       70.019    24903.124    12202.493     4902.643        8.619        2.100      359.705       77.795        0.047      352.731       35.599      857.103
07/21/2013  19:10:00     -317.824      -55.407      -28.816      136.727      111.857       52.534    18694.142    12512.075     2759.862        6.943        1.698      322.617       63.131        0.038      352.691       35.531      857.112
07/21/2013  19:11:00     -174.428      -47.660       -0.960       74.044       93.418       45.425     5482.585     8726.943     2063.427        2.448        0.814      180.822       35.028        0.038      352.785       35.695      857.110
07/21/2013  19:12:00     -181.728      -40.462       -3.175      109.202       87.554       51.011    11925.014     7665.727     2602.126        2.843        1.110      186.178       43.124        0.054      352.728       35.596      857.107
07/21/2013  19:13:00     -191.538     -119.344        8.802      140.540      111.019       61.788    19751.463    12325.164     3817.758        4.344        1.795      225.677       67.215        0.089      352.690       35.530      857.119
07/21/2013  19:14:00     -240.455       -1.925      -18.547      130.543       80.116       59.651    17041.557     6418.584     3558.213        4.259        1.351      240.463       62.204        0.067      352.704       35.555      857.134
07/21/2013  19:15:00     -252.038      -81.975       -2.585      130.072      134.518       59.379    16918.803    18094.994     3525.823        5.439        1.927      265.034       65.648        0.061      352.633       35.429      857.153
07/21/2013  19:16:00     -340.101      -46.728       -6.510      135.797      143.540       63.564    18440.698    20603.728     4040.341        8.048        2.154      343.296       66.978        0.038      352.600       35.370      857.155
07/21/2013  19:17:00     -213.572      -43.187       -6.605      103.371      124.682       57.927    10685.615    15545.489     3355.548        3.855        1.479      217.895       43.933        0.041      352.632       35.426      857.164
07/21/2013  19:18:00     -252.512       -9.108       -9.397      112.250       91.324       51.145    12600.037     8340.060     2615.832        4.374        1.178      252.676       56.077        0.049      352.627       35.418      857.177
07/21/2013  19:19:00     -255.819      -77.558       -5.439       98.012       92.959       46.607     9606.372     8641.453     2172.244        4.595        1.021      267.317       46.810        0.031      352.592       35.357      857.188
07/21/2013  19:20:00     -293.815      -55.694      -11.972      116.726      115.635       48.017    13624.871    13371.381     2305.600        5.943        1.465      299.047       43.200        0.021      352.605       35.380      857.205
07/21/2013  19:21:00     -338.727      -73.480       -8.428      134.538      104.955       49.754    18100.502    11015.622     2475.499        7.589        1.580      346.606       50.752        0.021      352.556       35.294      857.195
07/21/2013  19:22:00     -309.172      -64.434      -16.570      134.983      123.081       58.816    18220.514    15149.008     3459.284        6.841        1.841      315.814       64.828        0.042      352.574       35.325      857.205
07/21/2013  19:23:00     -211.169     -132.299       -8.629      116.968       93.538       54.028    13681.470     8749.434     2919.061        4.375        1.267      249.190       43.576        0.031      352.571       35.320      857.212
07/21/2013  19:24:00     -253.615      -64.500       -4.454      124.424       90.740       55.152    15481.228     8233.806     3041.716        4.762        1.338      261.689       50.592        0.037      352.532       35.252      857.220
07/21/2013  19:25:00     -314.095      -98.637      -17.197      129.906       92.232       53.718    16875.671     8506.824     2885.603        6.847        1.413      329.218       57.820        0.031      352.522       35.234      857.231
07/21/2013  19:26:00     -258.683      -32.832      -11.329      118.498       94.455       62.757    14041.690     8921.837     3938.397        4.751        1.345      260.758       61.891        0.056      352.521       35.233      857.233
07/21/2013  19:27:00     -280.948      -46.511       -6.266      151.761       73.081       52.022    23031.392     5340.773     2706.241        5.610        1.554      284.772       63.261        0.049      352.479       35.159      857.239
07/21/2013  19:28:00     -387.500     -110.185      -23.439      134.280      134.708       67.990    18031.078    18146.246     4622.589       10.181        2.040      402.861       72.223        0.032      352.482       35.163      857.230
07/21/2013  19:29:00     -294.096      -76.448       -8.346      112.081       89.652       54.873    12562.089     8037.531     3011.098        5.800        1.181      303.869       58.857        0.038      352.480       35.160      857.222
07/21/2013  19:30:00     -250.791      -51.041       -9.672      140.844       98.236       50.499    19836.949     9650.261     2550.123        4.881        1.602      255.932       53.812        0.044      352.441       35.094      857.233
07/21/2013  19:31:00     -356.180      -54.498      -18.175      183.728      178.407       75.995    33756.104    31828.931     5775.223       10.075        3.568      360.325       79.309        0.048      352.437       35.084      857.254
07/21/2013  19:32:00     -400.184      -81.371      -27.543      153.741      105.735       63.169    23636.180    11179.953     3990.306       10.316        1.940      408.373       64.273        0.025      352.426       35.067      857.251
07/21/2013  19:33:00     -384.142      -80.583      -33.569      183.206      108.371       72.559    33564.431    11744.173     5264.792       10.287        2.529      392.503       84.358        0.046      352.419       35.054      857.249
07/21/2013  19:34:00     -377.504      -86.830      -17.065      143.950      116.111       71.334    20721.638    13481.810     5088.582        9.481        1.965      387.361       72.825        0.035      352.395       35.011      857.255
07/21/2013  19:35:00     -357.886      -16.447      -23.390      121.750      110.423       67.747    14823.055    12193.219     4589.703        8.025        1.580      358.264       56.623        0.025      352.382       34.988      857.253
07/21/2013  19:36:00     -375.237       -9.176      -28.347      146.694      109.968       66.908    21519.202    12092.983     4476.710        8.988        1.904      375.349       69.763        0.035      352.369       34.966      857.262
07/21/2013  19:37:00     -318.039       -8.593       -5.686      159.649      113.506       61.997    25487.946    12883.608     3843.671        7.173        2.111      318.155       77.330        0.059      352.344       34.922      857.270
07/21/2013  19:38:00     -198.529      -11.390        5.440      113.739       90.521       63.146    12936.602     8194.063     3987.473        3.234        1.256      198.856       64.326        0.105      352.332       34.904      857.280
07/21/2013  19:39:00     -211.058      -72.205        1.631      139.640       98.916       61.618    19499.339     9784.320     3796.758        4.141        1.654      223.067       56.890        0.065      352.280       34.812      857.264
07/21/2013  19:40:00     -207.041     -113.633        2.989      110.756       78.067       59.491    12266.784     6094.534     3539.164        3.884        1.095      236.175       51.738        0.048      352.245       34.749      857.292
07/21/2013  19:41:00     -251.307      -64.505        7.576      154.009       77.513       54.070    23718.667     6008.313     2923.603        5.001        1.633      259.453       55.955        0.047      352.237       34.736      857.302
07/21/2013  19:42:00     -381.447      -30.558      -14.078      132.927       69.470       56.813    17669.529     4826.082     3227.732        8.617        1.286      382.669       61.764        0.026      352.260       34.775      857.306
07/21/2013  19:43:00     -300.750      -86.362      -10.468      120.769       79.199       47.909    14585.042     6272.432     2295.277        6.058        1.158      312.903       50.350        0.026      352.241       34.741      857.318
07/21/2013  19:44:00     -204.917       -0.215       -0.852      117.311       93.982       59.731    13761.962     8832.578     3567.801        3.407        1.308      204.917       68.529        0.112      352.201       34.674      857.322
07/21/2013  19:45:00     -294.401      -77.091       -6.736      158.837       94.048       68.809    25229.068     8845.029     4734.622        6.573        1.940      304.327       84.450        0.077      352.190       34.652      857.331
07/21/2013  19:46:00     -193.435      -64.306        2.223       92.534       78.478       39.444     8562.521     6158.793     1555.852        2.891        0.814      203.844       42.145        0.043      352.146       34.577      857.352
07/21/2013  19:47:00     -302.558      -48.474       -0.385      122.733      103.697       61.685    15063.486    10753.133     3805.096        6.175        1.481      306.416       62.931        0.042      352.195       34.662      857.360
07/21/2013  19:48:00     -321.658      -41.731      -10.573      108.147       81.042       49.066    11695.726     6567.737     2407.455        6.299        1.034      324.354       50.502        0.024      352.157       34.594      857.375
07/21/2013  19:49:00     -274.519      -62.943      -14.118      136.645       93.374       58.026    18671.832     8718.651     3367.042        5.513        1.538      281.643       40.534        0.021      352.148       34.580      857.386
07/21/2013  19:50:00     -242.280      -64.568       -9.651       91.251       77.925       38.879     8326.786     6072.332     1511.576        3.943        0.796      250.736       39.746        0.025      352.060       34.425      857.393
07/21/2013  19:51:00     -256.082      -47.901      -21.894      113.965       79.878       53.172    12987.957     6380.533     2827.269        4.527        1.110      260.523       52.366        0.040      352.105       34.504      857.398
07/21/2013  19:52:00     -192.407      -52.947       -0.183       88.191       81.628       44.140     7777.727     6663.095     1948.311        2.810        0.819      199.559       40.129        0.040      352.035       34.384      857.423
07/21/2013  19:53:00     -135.401      -47.241       13.947      130.896       86.397       47.734    17133.645     7464.391     2278.531        2.381        1.344      143.405       60.675        0.179      351.951       34.237      857.432
07/21/2013  19:54:00     -170.192      -33.579        1.865       91.885       71.088       36.738     8442.878     5053.525     1349.646        2.247        0.742      173.473       40.172        0.054      351.994       34.312      857.445
07/21/2013  19:55:00     -156.657      -39.560        5.997       84.380       58.144       38.077     7120.036     3380.768     1449.865        1.904        0.598      161.575       44.194        0.075      351.912       34.168      857.453
07/21/2013  19:56:00      -96.712      -52.608       -1.502       66.261       53.111       27.846     4390.583     2820.765      775.395        1.005        0.399      110.095       22.117        0.040      351.941       34.222      857.475
07/21/2013  19:57:00     -127.094      -44.968        4.438       86.104       73.621       39.541     7413.929     5420.014     1563.467        1.629        0.720      134.814       39.097        0.084      351.866       34.089      857.478
07/21/2013  19:58:00     -167.548      -84.718       -3.275       69.583       72.193       31.982     4841.728     5211.888     1022.828        2.317        0.554      187.749       27.375        0.021      351.909       34.163      857.493
07/21/2013  19:59:00     -159.639     -109.582       -6.374      105.227       78.246       39.027    11072.804     6122.510     1523.103        2.812        0.936      193.631       42.093        0.047      351.821       34.010      857.500
07/21/2013  20:00:00     -161.085      -98.548        2.528      103.511      108.100       52.332    10714.554    11685.600     2738.600        3.040        1.257      188.839       54.566        0.083      351.809       33.988      857.513
07/21/2013  20:01:00     -160.887      -49.801       -6.142       68.598       64.083       37.952     4705.655     4106.691     1440.360        1.933        0.513      168.418       42.035        0.062      351.806       33.985      857.530
07/21/2013  20:02:00     -173.359      -83.096        1.550      122.473       77.397       46.532    14999.674     5990.296     2165.198        3.005        1.158      192.246       53.264        0.077      351.656       33.723      857.538
07/21/2013  20:03:00     -262.505      -74.939      -16.587      126.838       79.380       56.986    16087.921     6301.117     3247.411        5.021        1.282      272.992       66.671        0.060      351.665       33.738      857.556
07/21/2013  20:04:00     -190.304     -102.571        8.947      107.442      104.643       58.434    11543.861    10950.142     3414.517        3.636        1.295      216.186       57.821        0.072      351.641       33.695      857.559
07/21/2013  20:05:00     -189.575      -44.277        7.014      105.770       74.352       49.955    11187.361     5528.260     2495.485        2.858        0.961      194.677       48.805        0.063      351.588       33.604      857.574
07/21/2013  20:06:00     -237.428      -61.027       -5.883       85.347       77.897       39.276     7284.179     6067.895     1542.594        3.751        0.745      245.145       38.591        0.025      351.584       33.596      857.583
07/21/2013  20:07:00     -237.817      -71.546        4.240       85.230       70.818       37.148     7264.090     5015.258     1379.961        3.767        0.683      248.347       36.707        0.022      351.537       33.515      857.606
07/21/2013  20:08:00     -228.587      -64.289       -1.392       84.687       79.315       41.571     7171.937     6290.826     1728.112        3.579        0.760      237.456       39.881        0.028      351.517       33.478      857.615
07/21/2013  20:09:00     -155.161      -40.231        1.650      100.464       89.113       51.895    10092.929     7941.155     2693.072        2.321        1.036      160.291       53.334        0.111      351.491       33.435      857.639
07/21/2013  20:10:00     -166.605      -76.698        5.249      111.938       94.184       48.290    12530.133     8870.665     2331.895        2.870        1.187      183.412       54.374        0.088      351.539       33.521      857.642
07/21/2013  20:11:00     -302.261      -88.621      -14.082      113.648       81.848       53.302    12915.914     6699.122     2841.131        6.093        1.123      314.984       53.307        0.029      351.527       33.497      857.654
07/21/2013  20:12:00     -244.487     -185.597        5.395      174.388      118.802       66.949    30411.302    14113.808     4482.213        7.162        2.450      306.953       81.231        0.070      351.547       33.533      857.659
07/21/2013  20:13:00     -303.229     -178.335      -16.922      157.067      145.663       75.802    24670.184    21217.601     5745.894        8.783        2.582      351.783       71.228        0.041      351.560       33.555      857.657
07/21/2013  20:14:00     -260.448     -156.069      -11.736      189.992      143.492       92.571    36096.958    20590.091     8569.396        7.878        3.263      303.629       85.634        0.080      351.524       33.492      857.682
07/21/2013  20:15:00     -344.256      -69.571      -19.932      184.234      116.341       71.680    33942.097    13535.290     5138.003        8.817        2.631      351.215       71.752        0.042      351.553       33.543      857.693
07/21/2013  20:16:00     -322.373     -111.719       -3.820      228.841      128.207       78.284    52368.261    16437.039     6128.357        9.566        3.747      341.183      103.682        0.092      351.557       33.551      857.707
07/21/2013  20:17:00     -253.732      -90.440        8.136      186.314      126.268       75.282    34712.877    15943.586     5667.436        6.446        2.816      269.369       92.309        0.117      351.502       33.454      857.719
07/21/2013  20:18:00     -235.628      -70.336       -9.498      106.315      106.046       54.372    11302.793    11245.804     2956.297        4.303        1.275      245.901       52.694        0.046      351.519       33.484      857.730
07/21/2013  20:19:00     -138.362      -30.596        1.978      109.566       62.562       47.807    12004.777     3913.952     2285.512        1.914        0.910      141.705       49.068        0.120      351.481       33.418      857.741
07/21/2013  20:20:00     -392.997     -145.139       -4.807      176.641      153.906       72.704    31202.031    23687.164     5285.870       11.784        3.009      418.942       74.884        0.032      351.505       33.458      857.750
07/21/2013  20:21:00     -256.888     -114.630       -8.437      167.289      124.119       72.666    27985.510    15405.447     5280.417        6.393        2.434      281.303       84.229        0.090      351.475       33.407      857.762
07/21/2013  20:22:00      -96.042      -19.247       12.881       98.698       97.791       54.204     9741.361     9563.011     2938.096        1.600        1.112       97.951       52.310        0.285      351.350       33.192      857.768
07/21/2013  20:23:00     -159.447      -74.803       -0.450      113.089       84.913       50.198    12789.204     7210.168     2519.814        2.676        1.126      176.122       53.960        0.094      351.410       33.292      857.777
07/21/2013  20:24:00     -312.679      -70.442       -0.673      178.606      116.705       69.103    31900.241    13620.032     4775.176        7.650        2.515      320.515       81.055        0.064      351.439       33.344      857.785
07/21/2013  20:25:00     -289.989      -73.897      -17.441      139.821      125.623       74.509    19550.023    15781.171     5551.625        6.536        2.044      299.257       80.384        0.072      351.406       33.285      857.779
07/21/2013  20:26:00     -204.278     -108.675       11.163      154.060      116.560       83.902    23734.636    13586.318     7039.627        4.900        2.218      231.387       86.740        0.141      351.393       33.264      857.799
07/21/2013  20:27:00     -299.042      -87.568        5.498      143.567      140.403       70.723    20611.471    19713.084     5001.696        7.122        2.266      311.599       80.898        0.067      351.389       33.257      857.811
07/21/2013  20:28:00     -219.317      -36.157        8.084      150.421       98.453       66.574    22626.373     9692.970     4432.159        4.310        1.838      222.278       74.833        0.113      351.321       33.137      857.814
07/21/2013  20:29:00     -316.006     -136.880       -2.341      188.011      129.197       73.537    35348.294    16691.917     5407.623        8.801        2.872      344.378       90.493        0.069      351.360       33.207      857.828
07/21/2013  20:30:00     -305.611     -160.823       -8.846      229.288      138.605       89.810    52572.777    19211.448     8065.911        9.958        3.993      345.344      107.136        0.096      351.383       33.245      857.817
07/21/2013  20:31:00     -282.855        1.484       18.693      163.713      144.062       82.702    26802.110    20753.763     6839.564        6.737        2.720      282.858       88.317        0.097      351.353       33.194      857.840
07/21/2013  20:32:00     -349.446     -161.546      -20.529      171.686      152.186       69.234    29475.924    23160.707     4793.412       10.302        2.872      384.980       79.874        0.043      351.375       33.233      857.856
07/21/2013  20:33:00     -348.677     -154.852       -1.999      131.732      140.450       70.775    17353.190    19726.257     5009.125        9.382        2.104      381.516       69.195        0.033      351.339       33.168      857.860
07/21/2013  20:34:00     -340.023     -188.164      -17.042      213.712      115.062       78.099    45672.626    13239.162     6099.423       10.815        3.251      388.615       94.748        0.059      351.341       33.172      857.880
07/21/2013  20:35:00     -154.133      -97.096       17.442      159.741      114.649       90.223    25517.228    13144.362     8140.191        4.014        2.340      182.166       76.659        0.177      351.300       33.101      857.875
07/21/2013  20:36:00     -254.574     -102.398        2.152      182.248      152.941       79.204    33214.279    23390.800     6273.220        6.908        3.144      274.396       99.085        0.130      351.276       33.060      857.875
07/21/2013  20:37:00     -300.480      -55.409      -14.802      167.195      117.382       56.689    27954.133    13778.640     3213.641        6.925        2.247      305.546       66.184        0.047      351.308       33.115      857.896
07/21/2013  20:38:00     -202.218      -75.542        2.154      151.406      127.058       66.914    22923.735    16143.713     4477.492        4.507        2.177      215.868       75.764        0.123      351.264       33.038      857.913
07/21/2013  20:39:00     -264.349      -85.031       12.851      225.812      173.428       79.137    50990.930    30077.237     6262.728        8.229        4.367      277.688       83.625        0.091      351.247       33.009      857.934
07/21/2013  20:40:00     -265.856      -65.835        1.272      185.729      113.892       73.543    34495.387    12971.378     5408.554        6.393        2.644      273.887       92.028        0.113      351.231       32.981      857.946
07/21/2013  20:41:00     -366.493     -101.738       -3.855      156.311      161.697       79.911    24433.133    26146.006     6385.760       10.081        2.848      380.352       82.843        0.047      351.254       33.021      857.970
07/21/2013  20:42:00     -440.340     -107.486      -24.696      149.863      143.741       72.734    22458.963    20661.426     5290.205       12.723        2.421      453.269       71.828        0.025      351.252       33.016      857.977
07/21/2013  20:43:00     -467.251     -157.678      -31.153      217.876      150.869       68.703    47470.083    22761.594     4720.163       15.954        3.748      493.139       86.493        0.031      351.320       33.135      858.000
07/21/2013  20:44:00     -245.272      -64.606        2.185      185.324       98.837       66.655    34345.169     9768.680     4442.950        5.644        2.428      253.638       84.265        0.110      351.238       32.992      858.022
07/21/2013  20:45:00     -352.447     -139.331      -22.414      175.792      155.150       84.629    30902.733    24071.475     7162.148       10.312        3.107      378.988       93.603        0.061      351.241       32.997      858.048
07/21/2013  20:46:00     -291.364      -79.453      -22.614      133.824      123.536       61.994    17908.743    15261.191     3843.248        6.436        1.851      302.003       56.856        0.035      351.234       32.985      858.072
07/21/2013  20:47:00     -285.148      -79.612      -16.975      166.865      158.037       74.836    27844.074    24975.730     5600.485        7.317        2.921      296.053       69.538        0.055      351.213       32.947      858.078
07/21/2013  20:48:00     -438.624      -93.551      -10.132      145.245      141.056       72.769    21096.142    19896.723     5295.343       12.376        2.314      448.490       72.942        0.026      351.219       32.958      858.084
07/21/2013  20:49:00     -251.069      -42.401        2.159      164.378      120.189       63.722    27020.150    14445.368     4060.521        5.517        2.276      254.625       76.610        0.091      351.146       32.834      858.102
07/21/2013  20:50:00     -332.752      -84.680      -19.031      153.410      116.326       70.440    23534.501    13531.775     4961.742        8.013        2.101      343.358       68.989        0.040      351.179       32.888      858.110
07/21/2013  20:51:00     -296.482      -68.081      -18.500      151.106      117.865       57.679    22833.003    13892.252     3326.855        6.646        2.003      304.198       64.480        0.045      351.138       32.817      858.129
07/21/2013  20:52:00     -319.715      -80.158       -6.477      166.701      170.395       64.155    27789.299    29034.581     4115.858        8.480        3.047      329.611       70.630        0.046      351.119       32.785      858.150
07/21/2013  20:53:00     -375.544     -125.818       -4.915      205.928      117.780       72.731    42406.176    13872.158     5289.759       10.922        3.078      396.060       89.614        0.051      351.104       32.757      858.179
07/21/2013  20:54:00     -199.789      -77.794        6.492      119.014      101.959       55.530    14164.222    10395.627     3083.595        3.682        1.382      214.400       56.384        0.069      351.054       32.671      858.187
07/21/2013  20:55:00     -246.866       -6.131      -20.447      156.859      113.724       60.779    24604.871    12933.245     3694.113        5.131        2.062      246.943       71.273        0.083      351.047       32.659      858.197
07/21/2013  20:56:00     -227.535     -134.432       -7.573      151.757      103.824       61.490    23030.086    10779.442     3781.014        5.374        1.880      264.280       70.097        0.070      351.048       32.662      858.205
07/21/2013  20:57:00     -279.238     -115.374       -8.137      152.817      112.566       72.803    23353.017    12671.139     5300.324        6.633        2.066      302.134       75.623        0.063      351.002       32.579      858.230
07/21/2013  20:58:00     -154.249      -29.048        9.968      113.432      117.947       60.526    12866.902    13911.429     3663.366        2.758        1.522      156.960       58.446        0.139      350.933       32.462      858.244
07/21/2013  20:59:00     -344.943      -46.418      -12.197      143.009       93.812       73.556    20451.679     8800.759     5410.416        7.797        1.733      348.053       71.208        0.042      351.004       32.584      858.273
07/21/2013  21:00:00     -235.462      -27.689       -4.042      168.208      105.906       56.691    28293.986    11216.003     3213.830        4.947        2.136      237.084       62.764        0.070      350.970       32.525      858.300
07/21/2013  21:01:00     -259.462      -62.267       -4.020      140.622      106.147       66.406    19774.465    11267.292     4409.699        5.333        1.773      266.829       69.846        0.069      350.960       32.507      858.325
07/21/2013  21:02:00     -268.463      -36.151        5.805      164.415      108.294       62.032    27032.222    11727.496     3847.971        5.800        2.130      270.886       78.698        0.084      350.945       32.482      858.363
07/21/2013  21:03:00     -389.239     -121.129      -35.101      148.274      110.927       69.150    21985.277    12304.822     4781.695       10.323        1.954      407.651       62.034        0.023      350.978       32.538      858.371
07/21/2013  21:04:00     -289.618      -76.736       -0.463      132.178       92.642       65.403    17470.901     8582.518     4277.494        6.004        1.517      299.611       69.941        0.054      350.898       32.401      858.400
07/21/2013  21:05:00     -272.654      -90.263       -5.618      143.861      105.933       58.262    20696.105    11221.720     3394.418        5.891        1.766      287.206       51.669        0.032      350.923       32.444      858.433
07/21/2013  21:06:00     -328.503     -126.602      -13.257       92.699       82.161       48.937     8593.085     6750.504     2394.845        7.092        0.887      352.054       50.813        0.021      350.891       32.388      858.442
07/21/2013  21:07:00     -250.095      -82.837      -14.015       88.679       77.002       46.801     7863.895     5929.338     2190.367        4.279        0.799      263.457       36.034        0.019      350.842       32.301      858.469
07/21/2013  21:08:00     -278.872      -59.195       -0.598      133.171       79.731       61.485    17734.460     6356.977     3780.406        5.457        1.394      285.086       63.391        0.049      350.823       32.271      858.480
07/21/2013  21:09:00     -310.237     -226.331      -17.116      134.842      121.977       64.951    18182.349    14878.346     4218.653        9.252        1.864      384.022       64.086        0.028      350.867       32.346      858.479
07/21/2013  21:10:00     -391.367     -236.334      -16.076      167.409      170.321       85.822    28025.645    29009.166     7365.481       13.683        3.220      457.189       91.172        0.040      350.853       32.323      858.476
07/21/2013  21:11:00     -259.530     -166.123        6.407      187.706      138.164       99.710    35233.401    19089.330     9942.041        7.962        3.213      308.144      117.446        0.145      350.864       32.341      858.455
07/21/2013  21:12:00     -517.852     -239.376      -29.855      194.658      175.365      105.734    37891.631    30752.832    11179.773       20.308        3.991      570.501      107.202        0.035      350.906       32.415      858.495
07/21/2013  21:13:00     -383.522      -95.600       -7.924      251.547      185.370       98.162    63275.712    34362.003     9635.800       13.176        5.364      395.257      117.029        0.088      350.882       32.373      858.512
07/21/2013  21:14:00     -361.243      -84.251      -18.753      203.285      141.496       68.376    41324.689    20021.139     4675.274       10.197        3.301      370.938       93.311        0.063      350.849       32.315      858.523
07/21/2013  21:15:00     -330.392      -17.168      -26.642      173.108       90.592       58.558    29966.334     8206.878     3429.077        7.587        2.080      330.838       61.105        0.034      350.801       32.232      858.549
07/21/2013  21:16:00     -423.023      -19.194      -35.094      102.717      115.747       57.936    10550.689    13397.382     3356.547       10.392        1.365      423.458       34.549        0.007      350.822       32.268      858.578
07/21/2013  21:17:00     -331.153     -110.365      -25.159      118.859      109.909       60.905    14127.430    12080.078     3709.442        7.619        1.496      349.060       64.169        0.034      350.771       32.179      858.598
07/21/2013  21:18:00     -340.695      -46.037       -3.121      171.841      100.675       67.822    29529.286    10135.434     4599.844        8.122        2.213      343.792       87.813        0.065      350.757       32.155      858.584
07/21/2013  21:19:00     -289.268      -22.474       -1.214      144.328       95.665       62.940    20830.430     9151.805     3961.439        5.906        1.697      290.140       74.353        0.066      350.732       32.112      858.601
07/21/2013  21:20:00     -393.184     -138.353      -38.166      159.995      136.762       74.064    25598.335    18703.838     5485.419       11.248        2.489      416.816       75.234        0.033      350.788       32.209      858.588
07/21/2013  21:21:00     -360.389     -180.198      -11.306      249.040      127.484       99.087    62021.001    16252.278     9818.185       12.527        4.405      402.928      108.554        0.073      350.810       32.248      858.567
07/21/2013  21:22:00     -281.282      -95.441       -4.181      166.475      120.557       81.147    27713.877    14534.002     6584.769        6.853        2.442      297.033       82.827        0.078      350.813       32.253      858.598
07/21/2013  21:23:00     -366.328     -152.322      -11.595      190.018      174.535       85.173    36106.993    30462.378     7254.502       11.566        3.691      396.735      100.255        0.064      350.801       32.231      858.597
07/21/2013  21:24:00     -276.913     -181.840        6.593      165.970      121.372       78.523    27546.196    14731.283     6165.785        7.911        2.422      331.280       81.994        0.061      350.742       32.128      858.607
07/21/2013  21:25:00     -281.418      -36.128       -9.506      186.554       88.119       63.361    34802.426     7764.915     4014.669        6.358        2.329      283.728       81.582        0.083      350.689       32.038      858.621
07/21/2013  21:26:00     -252.723      -45.101      -13.812      169.423       98.790       64.734    28704.244     9759.429     4190.428        5.437        2.133      256.715       77.355        0.091      350.670       32.005      858.630
07/21/2013  21:27:00     -331.916     -101.918       -7.796      135.954       98.682       71.179    18483.553     9738.067     5066.464        7.695        1.664      347.211       60.260        0.030      350.672       32.006      858.631
07/21/2013  21:28:00     -334.778     -129.126      -13.816      111.339      128.472       62.682    12396.399    16504.954     3928.993        8.088        1.642      358.817       60.769        0.029      350.638       31.948      858.613
07/21/2013  21:29:00     -243.308     -152.649       -7.990      152.742      127.660       61.638    23330.071    16297.200     3799.187        6.299        2.171      287.230       77.857        0.073      350.629       31.932      858.600
07/21/2013  21:30:00     -240.594      -41.231        5.846      175.586       99.415       67.825    30830.412     9883.413     4600.285        5.246        2.266      244.101       79.000        0.105      350.557       31.808      858.596
07/21/2013  21:31:00     -255.799      -82.815        0.353      119.407       82.221       54.457    14258.111     6760.347     2965.560        4.813        1.199      268.871       54.849        0.042      350.543       31.781      858.580
07/21/2013  21:32:00     -328.979     -118.711       -7.639      151.314      109.881       67.999    22895.811    12073.777     4623.876        8.098        1.980      349.742       67.400        0.037      350.567       31.824      858.568
07/21/2013  21:33:00     -187.874     -162.039        1.478      188.095      135.633       89.911    35379.914    18396.400     8083.944        6.170        3.093      248.099      105.265        0.180      350.543       31.783      858.554
07/21/2013  21:34:00     -266.814      -90.226       -4.398      167.722      101.015       79.595    28130.757    10204.013     6335.318        6.200        2.234      281.656       98.974        0.123      350.556       31.804      858.564
07/21/2013  21:35:00     -378.749     -208.619      -11.441      178.768      133.894       78.465    31957.976    17927.598     6156.733       12.156        2.802      432.403       84.030        0.038      350.603       31.884      858.562
07/21/2013  21:36:00     -308.989     -102.562       -9.404      157.470      119.263       61.978    24796.827    14223.704     3841.217        7.446        2.143      325.565       62.637        0.037      350.568       31.824      858.574
07/21/2013  21:37:00     -285.684      -80.942       -4.987      148.274      117.376       64.077    21985.269    13777.117     4105.812        6.402        1.993      296.929       67.653        0.052      350.513       31.728      858.589
07/21/2013  21:38:00     -161.358     -154.605       14.117      155.906      155.713       80.887    24306.600    24246.641     6542.699        5.261        2.755      223.470       90.126        0.163      350.541       31.779      858.597
07/21/2013  21:39:00     -213.185      -47.544      -13.913      105.579      101.810       41.610    11147.015    10365.196     1731.419        3.557        1.162      218.422       36.023        0.027      350.528       31.755      858.617
07/21/2013  21:40:00     -214.998     -146.803        0.834      137.866      108.773       72.317    19007.107    11831.544     5229.707        5.191        1.803      260.337       63.860        0.060      350.555       31.802      858.608
07/21/2013  21:41:00     -291.189     -131.348      -20.644      159.710      102.074       75.942    25507.235    10419.132     5767.208        7.207        2.085      319.442       84.563        0.070      350.572       31.833      858.588
07/21/2013  21:42:00     -266.018      -86.010       -4.680      154.148      130.632       73.476    23761.587    17064.804     5398.733        6.220        2.311      279.577       70.232        0.063      350.553       31.799      858.615
07/21/2013  21:43:00     -376.938     -161.069      -16.802      172.071      148.294       72.465    29608.467    21991.126     5251.182       11.257        2.843      409.910       70.704        0.030      350.588       31.859      858.597
07/21/2013  21:44:00     -416.075     -142.489      -15.680      162.209      146.326       77.049    26311.748    21411.334     5936.480       12.365        2.683      439.797       74.001        0.028      350.572       31.832      858.625
07/21/2013  21:45:00     -396.966     -130.833      -18.528      190.883      139.951       81.568    36436.419    19586.291     6653.294       11.885        3.134      417.971       95.436        0.052      350.540       31.775      858.646
07/21/2013  21:46:00     -278.971      -83.872        2.292      114.745       91.822       54.151    13166.454     8431.205     2932.343        5.469        1.227      291.306       55.584        0.036      350.481       31.674      858.658
07/21/2013  21:47:00     -327.473      -72.623       -0.832      172.713      151.984       73.526    29829.819    23099.059     5406.026        8.541        2.917      335.429       81.582        0.059      350.459       31.636      858.678
07/21/2013  21:48:00     -342.426     -164.197      -23.635      103.098       85.768       50.174    10629.102     7356.132     2517.452        8.263        1.025      379.758       44.914        0.014      350.470       31.653      858.693
07/21/2013  21:49:00     -204.299      -96.232      -12.232      137.791      121.540       61.637    18986.284    14772.059     3799.154        4.435        1.878      225.829       51.250        0.052      350.423       31.572      858.692
07/21/2013  21:50:00     -216.523      -76.308        3.493      114.136       75.670       49.633    13027.092     5725.945     2463.397        3.696        1.061      229.576       48.177        0.044      350.331       31.414      858.713
07/21/2013  21:51:00     -227.264      -51.252       -8.379      108.869       81.207       51.613    11852.353     6594.596     2663.856        3.772        1.056      232.971       45.426        0.038      350.303       31.364      858.717
07/21/2013  21:52:00     -219.304      -70.340       -7.790      166.573       89.743       59.326    27746.450     8053.858     3519.558        4.620        1.966      230.308       76.080        0.109      350.280       31.326      858.726
07/21/2013  21:53:00     -314.127      -22.683      -30.194       97.079      102.461       65.404     9424.301    10498.239     4277.734        6.215        1.210      314.945       62.400        0.039      350.293       31.348      858.739
07/21/2013  21:54:00     -191.522      -83.728       -3.089      117.529       85.844       49.670    13813.042     7369.234     2467.154        3.367        1.182      209.024       50.442        0.058      350.227       31.231      858.741
07/21/2013  21:55:00     -349.619     -105.169       -2.785      134.677       96.428       65.559    18138.005     9298.383     4297.988        8.251        1.587      365.094       54.102        0.022      350.282       31.329      858.757
07/21/2013  21:56:00     -300.189      -46.216       -8.805      119.320      100.879       63.781    14237.178    10176.499     4067.953        6.040        1.424      303.726       65.626        0.047      350.199       31.184      858.769
07/21/2013  21:57:00     -246.246      -53.935       -9.797      150.618       79.464       66.586    22685.698     6314.481     4433.644        4.853        1.672      252.083       74.626        0.088      350.198       31.183      858.778
07/21/2013  21:58:00     -295.083      -56.286        4.587      182.444      109.972       78.183    33285.693    12093.902     6112.585        7.087        2.575      300.404       83.609        0.077      350.213       31.209      858.785
07/21/2013  21:59:00     -248.391     -103.976       -0.797      163.850      144.043       67.754    26846.789    20748.476     4590.556        6.234        2.609      269.275       81.659        0.092      350.163       31.121      858.803
07/21/2013  22:00:00     -243.748      -79.263       -4.636       92.825       96.168       42.950     8616.429     9248.372     1844.740        4.271        0.985      256.312       36.045        0.020      350.162       31.119      858.811
07/21/2013  22:01:00     -362.801      -38.031       -1.598      155.498      145.863       60.518    24179.759    21276.129     3662.420        9.109        2.456      364.789       67.812        0.035      350.202       31.188      858.826
07/21/2013  22:02:00     -284.383        6.152      -10.475      188.498      110.201       66.057    35531.596    12144.291     4363.472        6.652        2.602      284.449       83.065        0.085      350.125       31.055      858.828
07/21/2013  22:03:00     -328.669        2.202       -0.678      201.252      101.526       65.699    40502.320    10307.574     4316.358        8.157        2.756      328.677       86.787        0.070      350.154       31.106      858.823
07/21/2013  22:04:00     -300.516      -83.191       -5.182      119.506       98.865       55.923    14281.745     9774.324     3127.333        6.221        1.359      311.818       62.147        0.040      350.129       31.061      858.838
07/21/2013  22:05:00     -234.487      -19.665        6.462      125.529       84.550       55.801    15757.605     7148.706     3113.791        4.071        1.301      235.310       60.734        0.067      350.080       30.977      858.839
07/21/2013  22:06:00     -257.139      -76.517       -0.705      116.577       73.624       42.710    13590.175     5420.492     1824.172        4.640        1.042      268.282       52.285        0.038      350.085       30.985      858.850
07/21/2013  22:07:00     -199.283      -46.086        8.499       97.526       78.903       48.534     9511.258     6225.638     2355.552        3.000        0.905      204.542       54.168        0.070      350.025       30.882      858.864
07/21/2013  22:08:00     -300.070      -61.789      -16.803      123.301       77.964       51.980    15203.073     6078.380     2701.882        5.906        1.199      306.366       53.743        0.031      350.055       30.934      858.861
07/21/2013  22:09:00     -221.380      -89.440        5.765      120.686       84.751       59.852    14565.157     7182.762     3582.234        4.118        1.267      238.765       52.483        0.048      350.029       30.887      858.872
07/21/2013  22:10:00     -229.378      -15.179       -0.150      127.628      109.793       51.118    16288.884    12054.579     2613.024        4.189        1.548      229.880       46.380        0.041      349.996       30.832      858.871
07/21/2013  22:11:00     -281.387        1.466      -18.258      114.122       94.688       54.185    13023.945     8965.800     2935.979        5.222        1.246      281.391       63.987        0.052      349.969       30.785      858.876
07/21/2013  22:12:00     -253.022      -89.482       -6.386      111.669      137.744       57.393    12469.915    18973.405     3293.927        5.340        1.737      268.379       57.764        0.046      349.953       30.757      858.879
07/21/2013  22:13:00     -306.372      -81.517      -35.764      111.720       78.870       57.252    12481.343     6220.424     3277.761        6.188        1.099      317.031       57.457        0.033      349.966       30.778      858.876
07/21/2013  22:14:00     -263.459     -111.478       -3.117      129.315      105.917       50.285    16722.401    11218.331     2528.627        5.615        1.523      286.074       60.870        0.045      349.934       30.725      858.899
07/21/2013  22:15:00     -386.928      -38.303      -10.900      187.203      137.608       75.867    35045.008    18935.962     5755.778       10.551        2.987      388.819       89.253        0.053      349.968       30.782      858.895
07/21/2013  22:16:00     -481.338      -72.275      -30.866      117.161      129.000       59.147    13726.817    16640.895     3498.345       13.586        1.693      486.734       46.394        0.009      350.023       30.877      858.904
07/21/2013  22:17:00     -271.647      -72.359       -8.507      145.371      116.618       73.169    21132.740    13599.768     5353.734        5.959        2.004      281.119       80.093        0.081      349.927       30.712      858.897
07/21/2013  22:18:00     -292.724      -90.875       -7.354      123.965       83.841       55.041    15367.368     7029.287     3029.469        5.971        1.271      306.506       54.294        0.031      349.910       30.683      858.895
07/21/2013  22:19:00     -239.696      -37.267      -17.223      103.458       78.931       53.355    10703.629     6230.119     2846.781        3.946        0.989      242.576       47.711        0.039      349.913       30.689      858.892
07/21/2013  22:20:00     -208.745      -43.507        3.801      130.373      101.282       57.220    16997.139    10258.108     3274.093        3.800        1.526      213.231       61.808        0.084      349.871       30.614      858.886
07/21/2013  22:21:00     -314.530      -26.598      -20.267       99.067       79.990       51.704     9814.239     6398.369     2673.288        5.946        0.944      315.652       48.198        0.023      349.886       30.640      858.896
07/21/2013  22:22:00     -247.999      -99.753       15.699      167.034      105.007       73.835    27900.200    11026.407     5451.637        5.803        2.219      267.309       70.455        0.069      349.904       30.673      858.882
07/21/2013  22:23:00     -235.883      -34.450       10.170      123.686      118.617       63.897    15298.241    14069.913     4082.822        4.518        1.673      238.385       62.119        0.068      349.865       30.604      858.879
07/21/2013  22:24:00     -300.742      -29.631      -15.596      207.021       92.035       67.622    42857.517     8470.487     4572.684        7.372        2.795      302.198       85.161        0.079      349.853       30.586      858.866
07/21/2013  22:25:00     -279.399      -59.704      -23.441      203.203      105.691       79.707    41291.262    11170.677     6353.249        7.048        2.941      285.707       93.873        0.108      349.872       30.617      858.887
07/21/2013  22:26:00     -314.441      -96.510       -7.130      141.071      113.391       69.705    19900.941    12857.628     4858.825        7.292        1.881      328.919       82.346        0.063      349.835       30.553      858.895
07/21/2013  22:27:00     -353.329      -50.997      -17.213      132.492      122.174       68.609    17554.244    14926.404     4707.211        8.246        1.859      356.990       60.085        0.028      349.832       30.548      858.900
07/21/2013  22:28:00     -419.932      -84.763      -20.233      131.708      116.513       67.264    17347.063    13575.177     4524.408       10.968        1.772      428.402       68.597        0.026      349.904       30.671      858.908
07/21/2013  22:29:00     -394.479      -70.970      -28.271      100.951      129.981       61.386    10191.020    16894.941     3768.246        9.615        1.543      400.813       52.566        0.017      349.854       30.585      858.916
07/21/2013  22:30:00     -377.661     -120.917       -8.431      146.206       99.217       59.543    21376.242     9844.001     3545.421        9.604        1.738      396.547       59.196        0.022      349.847       30.573      858.938
07/21/2013  22:31:00     -249.786      -66.520       -7.119       98.837       85.608       47.351     9768.666     7328.745     2242.149        4.310        0.967      258.492       33.168        0.016      349.791       30.475      858.954
07/21/2013  22:32:00     -342.644      -60.120      -15.229      153.578      112.482       70.626    23586.339    12652.243     4988.092        8.123        2.061      347.878       70.719        0.041      349.818       30.521      858.957
07/21/2013  22:33:00     -344.851      -32.633      -36.990      109.977       97.776       60.822    12094.922     9560.118     3699.356        7.335        1.268      346.392       51.765        0.022      349.816       30.516      858.973
07/21/2013  22:34:00     -312.106      -61.393       -5.815      115.066       84.255       57.473    13240.180     7098.945     3303.136        6.242        1.182      318.086       64.430        0.041      349.794       30.479      858.987
07/21/2013  22:35:00     -336.702      -66.929      -15.280      136.074      103.225       59.971    18516.114    10655.318     3596.554        7.542        1.638      343.290       69.357        0.041      349.794       30.480      859.004
07/21/2013  22:36:00     -370.372     -117.033      -22.673      173.722      109.055       65.545    30179.422    11893.013     4296.146        9.887        2.318      388.422       62.266        0.026      349.804       30.497      859.014
07/21/2013  22:37:00     -315.328      -92.076      -29.668      126.674      106.830       73.616    16046.317    11412.617     5419.299        7.083        1.644      328.496       64.111        0.038      349.791       30.475      859.010
07/21/2013  22:38:00     -305.365      -56.496      -28.464      120.653       88.565       46.637    14557.079     7843.687     2175.010        6.091        1.229      310.547       32.216        0.011      349.813       30.514      859.046
07/21/2013  22:39:00     -299.735      -46.669       -5.145      141.388      124.790       61.350    19990.634    15572.535     3763.861        6.568        1.966      303.347       61.491        0.041      349.803       30.496      859.035
07/21/2013  22:40:00     -307.551      -51.687      -29.964      147.982      106.776       57.678    21898.772    11401.160     3326.793        6.738        1.831      311.864       66.370        0.045      349.793       30.480      859.058
07/21/2013  22:41:00     -255.456      -80.160      -11.956      117.409       76.253       53.289    13784.968     5814.527     2839.671        4.713        1.122      267.738       49.771        0.035      349.761       30.423      859.065
07/21/2013  22:42:00     -350.971       13.351      -26.663      147.042      120.740       65.213    21621.379    14578.059     4252.795        8.225        2.023      351.225       56.471        0.026      349.802       30.494      859.075
07/21/2013  22:43:00     -424.815      -59.815      -17.961      160.994      125.239       61.281    25919.192    15684.873     3755.331       11.485        2.268      429.005       51.892        0.015      349.865       30.604      859.085
07/21/2013  22:44:00     -362.720      -15.717      -28.965      140.161      105.178       58.361    19644.997    11062.428     3406.015        8.338        1.706      363.061       49.556        0.019      349.794       30.479      859.099
07/21/2013  22:45:00     -384.232      -29.798      -31.224      155.833      129.894       64.545    24283.991    16872.427     4165.997        9.740        2.266      385.386       59.016        0.023      349.855       30.585      859.129
07/21/2013  22:46:00     -403.574      -44.270      -27.292      155.621      143.108       74.878    24217.972    20479.821     5606.678       10.793        2.515      405.995       75.758        0.035      349.907       30.676      859.127
07/21/2013  22:47:00     -395.449       14.310      -45.416      147.560       91.767       59.345    21774.004     8421.112     3521.795        9.618        1.686      395.708       63.609        0.026      349.876       30.624      859.137
07/21/2013  22:48:00     -155.642      -40.583        9.142      116.614       73.522       57.521    13598.733     5405.502     3308.687        2.413        1.116      160.846       57.208        0.126      349.699       30.317      859.147
07/21/2013  22:49:00     -428.846       21.541      -49.011      125.420       98.336       51.871    15730.259     9670.060     2690.579       10.743        1.405      429.387       42.502        0.010      349.784       30.462      859.175
07/21/2013  22:50:00     -326.474       30.514      -29.254      171.367      124.015       59.798    29366.745    15379.814     3575.762        7.834        2.416      327.896       77.878        0.056      349.729       30.368      859.195
07/21/2013  22:51:00     -268.397       26.510      -29.681      105.445      134.124       56.562    11118.566    17989.380     3199.214        5.296        1.615      269.703       49.325        0.033      349.745       30.395      859.207
07/21/2013  22:52:00     -180.435       -2.743      -10.932      168.831       88.552       51.250    28503.850     7841.428     2626.606        3.582        1.949      180.456       63.823        0.125      349.717       30.349      859.227
07/21/2013  22:53:00     -364.171      -17.898      -34.499      119.719      105.096       60.457    14332.625    11045.233     3655.025        8.158        1.452      364.610       63.877        0.031      349.814       30.514      859.233
07/21/2013  22:54:00     -112.713       53.930      -13.710       90.243       81.317       36.023     8143.770     6612.464     1297.629        1.592        0.803      124.950       36.168        0.084      349.733       30.377      859.227
07/21/2013  22:55:00      -76.412      -12.032      -21.324       77.473       86.243       33.153     6002.034     7437.855     1099.092        1.049        0.727       77.354       24.972        0.104      349.654       30.240      859.261
07/21/2013  22:56:00     -101.294      -38.921       18.381       76.285       73.779       39.145     5819.409     5443.354     1532.344        1.245        0.640      108.514       34.100        0.099      349.538       30.040      859.292
07/21/2013  22:57:00      -81.883       40.687       10.755       79.348       53.891       36.781     6296.184     2904.200     1352.832        0.951        0.528       91.435       33.911        0.138      349.483       29.943      859.310
07/21/2013  22:58:00     -102.859      -17.737       -7.574       77.051       53.911       39.720     5936.905     2906.402     1577.650        1.068        0.521      104.377       27.414        0.069      349.609       30.162      859.326
07/21/2013  22:59:00     -234.400      -38.867      -17.513       93.190       63.075       54.802     8684.407     3978.443     3003.232        3.621        0.783      237.601       54.215        0.052      349.600       30.145      859.346
07/21/2013  23:00:00     -215.128       -8.070      -16.244      105.040       87.191       50.968    11033.491     7602.297     2597.758        3.392        1.062      215.280       48.218        0.050      349.684       30.289      859.349
07/21/2013  23:01:00     -230.956       35.631      -27.783       84.601       59.002       51.139     7157.405     3481.205     2615.164        3.432        0.663      233.689       44.552        0.036      349.770       30.439      859.350
07/21/2013  23:02:00     -210.556      -23.552      -19.349       97.570       79.217       43.569     9519.974     6275.271     1898.294        3.147        0.885      211.869       48.684        0.053      349.827       30.536      859.361
07/21/2013  23:03:00     -166.340      124.194      -11.023       91.473       84.961       57.515     8367.382     7218.407     3308.004        3.105        0.945      207.589       56.097        0.073      349.804       30.498      859.357
07/21/2013  23:04:00     -145.592      -39.257        9.064       87.834       78.910       49.345     7714.748     6226.797     2434.972        1.960        0.819      150.792       42.876        0.081      349.774       30.448      859.403
07/21/2013  23:05:00      -47.848      128.399        2.412       55.981       67.736       41.404     3133.837     4588.182     1714.305        1.411        0.472      137.025       38.820        0.080      349.654       30.239      859.421
07/21/2013  23:06:00     -126.365      181.666      -14.638       79.800       90.436       49.140     6368.017     8178.691     2414.692        3.307        0.848      221.293       41.818        0.036      349.751       30.406      859.436
07/21/2013  23:07:00     -168.355      137.569      -19.353       88.690       85.186       55.378     7865.904     7256.601     3066.697        3.291        0.909      217.413       58.699        0.073      349.824       30.532      859.447
07/21/2013  23:08:00     -100.203      132.342      -28.898       94.453       59.155       41.684     8921.415     3499.331     1737.568        2.127        0.708      165.997       50.403        0.092      349.726       30.364      859.450
07/21/2013  23:09:00      -74.130       60.315      -15.796       33.835       39.030       22.950     1144.797     1523.371      526.722        0.629        0.160       95.567       20.885        0.048      349.606       30.159      859.465
07/21/2013  23:10:00     -131.516       60.816      -15.490       57.309       39.168       28.408     3284.366     1534.151      807.036        1.343        0.281      144.896       25.820        0.032      349.692       30.306      859.485
07/21/2013  23:11:00     -100.548       81.496      -12.297       62.833       55.600       35.501     3948.022     3091.364     1260.309        1.260        0.415      129.427       30.100        0.054      349.642       30.220      859.478
07/21/2013  23:12:00     -167.051       82.866      -20.968       89.759       69.909       32.421     8056.671     4887.210     1051.132        2.460        0.700      186.475       37.260        0.040      349.677       30.278      859.468
07/21/2013  23:13:00      -78.379      130.716      -10.094       75.606       95.735       43.142     5716.271     9165.149     1861.243        2.003        0.837      152.413       45.039        0.087      349.659       30.247      859.467
07/21/2013  23:14:00      -97.514       74.319      -12.231       46.195       58.130       31.892     2133.951     3379.103     1017.103        1.085        0.327      122.606       34.344        0.078      349.528       30.022      859.466
07/21/2013  23:15:00     -101.172      144.014      -17.386       49.395       66.364       33.991     2439.836     4404.236     1155.362        1.964        0.400      176.000       26.024        0.022      349.627       30.192      859.471
07/21/2013  23:16:00      -58.295      170.065      -23.840       42.204       65.224       27.801     1781.172     4254.121      772.885        1.985        0.340      179.779       26.901        0.022      349.618       30.176      859.453
07/21/2013  23:17:00      -59.619      134.842      -10.595       41.403       93.899       32.211     1714.211     8817.024     1037.517        1.671        0.578      147.433       29.509        0.040      349.509       29.988      859.456
07/21/2013  23:18:00     -130.515      -12.644      -19.661       62.990       59.684       23.686     3967.717     3562.131      561.008        1.283        0.405      131.126       14.477        0.012      349.544       30.049      859.494
07/21/2013  23:19:00       11.145      -57.040       15.836       65.379       36.972       36.656     4274.359     1366.918     1343.647        0.531        0.349       58.119       37.492        0.416      349.432       29.855      859.491
07/21/2013  23:20:00     -121.138      -82.534       -6.883       75.144       46.966       25.338     5646.638     2205.852      641.996        1.501        0.425      146.582       21.239        0.021      349.409       29.815      859.491
07/21/2013  23:21:00     -172.472        2.637      -11.607       47.612       45.902       21.483     2266.870     2107.032      461.519        1.736        0.242      172.492       18.396        0.011      349.358       29.728      859.504
07/21/2013  23:22:00     -107.214       71.988      -12.216       53.641       62.364       32.913     2877.399     3889.297     1083.286        1.234        0.392      129.140       28.259        0.048      349.459       29.903      859.477
07/21/2013  23:23:00      -97.646      110.900      -24.436       35.073       32.363       26.920     1230.095     1047.358      724.708        1.272        0.150      147.762       19.244        0.017      349.457       29.897      859.463
07/21/2013  23:24:00      -79.748      124.286      -14.523       57.332       57.003       37.090     3286.965     3249.357     1375.663        1.496        0.396      147.671       28.508        0.037      349.474       29.926      859.456
07/21/2013  23:25:00     -124.996      109.201      -19.454       50.215       58.221       34.269     2521.507     3389.709     1174.363        1.750        0.354      165.978       26.621        0.026      349.294       29.614      859.460
07/21/2013  23:26:00     -127.863      111.640      -30.110       45.430       57.203       31.329     2063.883     3272.166      981.524        1.802        0.316      169.742       27.380        0.026      349.474       29.928      859.458
07/21/2013  23:27:00      -86.294      109.735      -22.743       39.064       53.153       28.221     1526.034     2825.194      796.432        1.258        0.257      139.601       27.874        0.040      349.527       30.019      859.457
07/21/2013  23:28:00     -108.915       77.335      -10.539       43.767       55.977       24.361     1915.535     3133.470      593.470        1.180        0.282      133.578       24.551        0.034      349.337       29.692      859.465
07/21/2013  23:29:00      -64.416       32.526      -12.641       44.667       61.849       25.182     1995.160     3825.243      634.118        0.591        0.323       72.162       15.144        0.044      349.317       29.656      859.462
07/21/2013  23:30:00      -60.893       45.712      -13.755       45.689       43.222       23.203     2087.465     1868.137      538.375        0.524        0.225       76.142       13.517        0.032      349.345       29.704      859.458
07/21/2013  23:31:00     -105.576       27.508      -13.055       42.348       27.780       24.193     1793.372      771.701      585.307        0.761        0.158      109.101       24.728        0.051      349.195       29.444      859.484
07/21/2013  23:32:00     -136.959       88.593      -25.213       35.039       37.073       21.984     1227.754     1374.386      483.300        1.516        0.154      163.114       20.554        0.016      349.356       29.724      859.498
07/21/2013  23:33:00      -62.403       80.475       -9.953       40.957       55.786       24.103     1677.451     3112.030      580.940        0.792        0.269      101.835       27.014        0.070      349.339       29.693      859.507
07/21/2013  23:34:00     -119.816       30.140        1.810       89.980       89.468       35.315     8096.335     8004.486     1247.173        1.630        0.867      123.549       26.362        0.046      349.272       29.577      859.526
07/21/2013  23:35:00      -72.626      110.987      -13.731       31.902       61.424       26.735     1017.717     3772.908      714.758        1.164        0.275      132.638       24.054        0.033      349.190       29.436      859.544
07/21/2013  23:36:00      -64.803      130.864       -9.990       48.827       76.864       35.512     2384.060     5908.122     1261.085        1.549        0.478      146.030       33.008        0.051      349.159       29.380      859.551
07/21/2013  23:37:00     -100.475      166.640      -36.267       60.061       51.017       30.650     3607.371     2602.697      939.408        2.316        0.357      194.587       29.872        0.024      349.187       29.428      859.549
07/21/2013  23:38:00     -105.226      161.276      -18.490       52.366       79.577       30.902     2742.203     6332.570      954.926        2.373        0.501      192.569       32.174        0.028      349.133       29.336      859.569
07/21/2013  23:39:00      -70.833       97.098      -16.118       34.829       33.521       27.812     1213.058     1123.627      773.500        0.891        0.156      120.189       15.402        0.016      349.158       29.381      859.585
07/21/2013  23:40:00      -95.385      192.134      -26.668       48.346       74.982       34.994     2337.317     5622.226     1224.549        2.795        0.459      214.508       29.226        0.019      349.241       29.520      859.604
07/21/2013  23:41:00      -83.203      117.080      -14.308       63.525       62.811       30.876     4035.365     3945.204      953.331        1.488        0.447      143.634       21.773        0.023      349.239       29.520      859.615
07/21/2013  23:42:00      -12.107      115.438       -8.941       40.125       42.006       32.556     1609.983     1764.469     1059.891        0.899        0.222      116.071       21.417        0.034      349.302       29.630      859.605
07/21/2013  23:43:00      -83.602       74.319       -9.854       42.779       51.041       28.006     1830.034     2605.221      784.355        0.891        0.261      111.860       14.640        0.017      349.233       29.510      859.636
07/21/2013  23:44:00     -124.335      208.715      -29.690       59.864       78.374       44.638     3583.746     6142.426     1992.539        3.581        0.586      242.943       41.783        0.030      349.389       29.776      859.650
07/21/2013  23:45:00     -145.945      161.865      -32.977       52.000       71.955       35.578     2703.994     5177.569     1265.765        2.887        0.457      217.945       37.130        0.029      349.437       29.862      859.648
07/21/2013  23:46:00     -121.296      106.796      -25.504       34.485       56.707       27.390     1189.248     3215.719      750.212        1.596        0.258      161.611       25.576        0.025      349.311       29.647      859.670
07/21/2013  23:47:00      -69.659       80.488      -12.617       47.355       55.337       24.154     2242.519     3062.206      583.406        0.869        0.294      106.446       23.623        0.049      349.300       29.626      859.688
07/21/2013  23:48:00      -37.978      137.714      -24.395       28.015       44.859       19.387      784.843     2012.303      375.851        1.209        0.159      142.854       19.904        0.019      349.270       29.575      859.677
07/21/2013  23:49:00      -47.629      180.834      -28.876       67.089       66.117       25.085     4500.880     4371.451      629.252        2.265        0.475      187.001       21.823        0.014      349.295       29.614      859.681
07/21/2013  23:50:00      -58.082      135.843      -13.168       62.651       47.072       33.516     3925.186     2215.811     1123.298        1.463        0.363      147.739       24.229        0.027      349.296       29.620      859.696
07/21/2013  23:51:00      -47.746      170.343      -25.559       66.393       47.121       30.222     4408.037     2220.343      913.355        1.974        0.377      176.908       21.135        0.014      349.242       29.523      859.699
07/21/2013  23:52:00     -145.203       70.282      -19.411       67.706       61.045       34.384     4584.041     3726.455     1182.260        1.794        0.475      161.318       36.248        0.050      349.277       29.587      859.735
07/21/2013  23:53:00      -47.330       51.769       -9.256       39.103       43.154       23.419     1529.060     1862.283      548.442        0.447        0.197       70.144       19.254        0.075      349.080       29.247      859.746
07/21/2013  23:54:00      -53.659       28.911       -4.559       24.983       28.335       17.764      624.155      802.862      315.545        0.274        0.087       60.952       17.059        0.078      349.050       29.192      859.756
07/21/2013  23:55:00      -48.829       63.516      -10.524       62.553       42.200       28.200     3912.923     1780.873      795.219        0.651        0.324       80.116       33.027        0.170      349.154       29.375      859.777
07/21/2013  23:56:00      -24.138      103.493       -4.701       24.823       28.619       21.741      616.165      819.066      472.675        0.661        0.095      106.271       20.523        0.037      349.148       29.362      859.769
07/21/2013  23:57:00      -39.291      206.465      -25.332       38.215       65.957       24.042     1460.383     4350.338      578.020        2.560        0.319      210.170       27.291        0.017      349.321       29.660      859.760
07/21/2013  23:58:00       -0.951      203.662      -41.059       40.508       56.495       18.764     1640.895     3191.682      352.071        2.417        0.259      203.664       16.383        0.006      349.210       29.469      859.741
07/21/2013  23:59:00     -107.079      130.683      -26.725       47.059       73.200       30.645     2214.540     5358.201      939.100        1.888        0.426      168.950       25.947        0.024      349.097       29.272      859.777
